Darstellungsparameter: Aktuell verwendete Einstellungen:
Skalierung der Graphiken ... ?
xyx+y,   Skalierungsfaktor:      Skalierung: Modus: x, Faktor: 1
Darstellungszeitraum ... ?
Vom - - bis: - -   Zeitraum: 13.09.2005 - 12.09.2010
Min/Max/Avg-Anzeige ... ?
Zeige MMA aktuell
Zeige MMA Monat
Zeige MMA alles
Zeige --A aktuell
Zeige --A Monat
Zeige --A alles
Keine MMA-Anzeige
MMA:
Average (ber die Originaldaten)
MMA-Basis: 13.09.2005 - 12.09.2010
Quicknavigation für Darstellung... ?
Tage:      1T, 2T, 3T, 5T -1T -2T -3T -5T +1T +2T +3T +5T
Wochen: 1W, 2W, 3W -1W -2W -3W +1W +2W +3W
Monate: 1M, 3M, 6M -1M -3M -6M +1M +3M +6M
Jahre:    1J, 3J, 5J, 10J -1J -3J -5J -10J +1J +3J +5J +10J
Nutze für die Darstellung ... ?
Originaldaten oder ...
Mittelwerte Minima Maxima auf...
Stundenbasis Tagesbasis Wochenbasis
Monatsbasis Jahresbasis      Datenbasis: Mittelwerte auf Tagesbasis
Darstellen als:
Statistik (Auto) Statistik J:M      Darstellung:
Zur Graphik,    zurück zur Übersicht aller Sensoren.
 
Tabellarische Datenbersicht: ?
 
Sensor: Nr:Datum:Temp:Abs-Feuchte:Windchill:Wind:
Aussen-T/F 1 13-09-2005 00:00:00 17.45833 C 10.62 g/m*3 17.46 C 0 km/h
2 14-09-2005 00:00:00 16.755 C 10.01 g/m*3 16.76 C 0 km/h
3 15-09-2005 00:00:00 20.13361 C 11.35 g/m*3 20.13 C 0 km/h
4 16-09-2005 00:00:00 15.17311 C 9.68 g/m*3 15.17 C 0 km/h
5 17-09-2005 00:00:00 11.81667 C 6.67 g/m*3 11.82 C 0 km/h
6 18-09-2005 00:00:00 11.7875 C 6.82 g/m*3 11.79 C 0 km/h
7 19-09-2005 00:00:00 12.0719 C 6.68 g/m*3 12.07 C 0 km/h
8 20-09-2005 00:00:00 12.19583 C 7.15 g/m*3 12.2 C 0 km/h
9 21-09-2005 00:00:00 13.40667 C 7.66 g/m*3 13.41 C 0 km/h
10 22-09-2005 00:00:00 13.94833 C 8.1 g/m*3 13.95 C 0 km/h
11 23-09-2005 00:00:00 14.84667 C 8.74 g/m*3 14.85 C 0 km/h
12 24-09-2005 00:00:00 15.92583 C 9.59 g/m*3 15.93 C 0 km/h
13 25-09-2005 00:00:00 17.7325 C 10.47 g/m*3 17.73 C 0 km/h
14 26-09-2005 00:00:00 16.44083 C 9.46 g/m*3 16.44 C 0 km/h
15 27-09-2005 00:00:00 17.605 C 8.57 g/m*3 17.61 C 0 km/h
16 28-09-2005 00:00:00 15.42917 C 8.89 g/m*3 15.43 C 0 km/h
17 29-09-2005 00:00:00 12.91254 C 7.94 g/m*3 12.91 C 0 km/h
18 30-09-2005 00:00:00 12.29549 C 7.03 g/m*3 12.3 C 0 km/h
19 01-10-2005 00:00:00 12.61701 C 9.71 g/m*3 12.62 C 0 km/h
20 02-10-2005 00:00:00 10.70833 C 8.46 g/m*3 10.71 C 0 km/h
21 03-10-2005 00:00:00 11.3875 C 8.55 g/m*3 11.39 C 0 km/h
22 04-10-2005 00:00:00 14.26864 C 9.15 g/m*3 14.27 C 0 km/h
23 05-10-2005 00:00:00 16.7441 C 10.35 g/m*3 16.74 C 0 km/h
24 06-10-2005 00:00:00 16.68194 C 10.26 g/m*3 16.68 C 0 km/h
25 07-10-2005 00:00:00 14.36563 C 9.48 g/m*3 14.37 C 0 km/h
Sensor: Nr:Datum:Temp:Abs-Feuchte:Windchill:Wind:
Aussen-T/F 26 08-10-2005 00:00:00 13.06285 C 9.3 g/m*3 13.06 C 0 km/h
27 09-10-2005 00:00:00 14.51049 C 9.74 g/m*3 14.51 C 0 km/h
28 10-10-2005 00:00:00 15.84132 C 9.84 g/m*3 15.84 C 0 km/h
29 11-10-2005 00:00:00 13.49444 C 9.21 g/m*3 13.49 C 0 km/h
30 12-10-2005 00:00:00 13.54549 C 9.11 g/m*3 13.55 C 0 km/h
31 13-10-2005 00:00:00 12.36181 C 8.52 g/m*3 12.36 C 0 km/h
32 14-10-2005 00:00:00 11.9951 C 8.33 g/m*3 12 C 0 km/h
33 15-10-2005 00:00:00 11.45174 C 8.2 g/m*3 11.45 C 0 km/h
34 16-10-2005 00:00:00 10.83472 C 7.4 g/m*3 10.83 C 0 km/h
35 17-10-2005 00:00:00 8.28194 C 5.72 g/m*3 8.28 C 0 km/h
36 18-10-2005 00:00:00 8.65749 C 5.37 g/m*3 8.66 C 0 km/h
37 19-10-2005 00:00:00 7.00417 C 6.38 g/m*3 7 C 0 km/h
38 20-10-2005 00:00:00 11.25382 C 9.08 g/m*3 11.25 C 0 km/h
39 21-10-2005 00:00:00 14.43681 C 10.35 g/m*3 14.44 C 0 km/h
40 22-10-2005 00:00:00 15.54896 C 10.18 g/m*3 15.55 C 0 km/h
41 23-10-2005 00:00:00 14.24321 C 9.16 g/m*3 14.24 C 0 km/h
42 24-10-2005 00:00:00 12.10545 C 8.42 g/m*3 12.11 C 0 km/h
43 25-10-2005 00:00:00 15.69143 C 8.79 g/m*3 15.69 C 0 km/h
44 26-10-2005 00:00:00 16.07417 C 9.59 g/m*3 16.07 C 0 km/h
45 27-10-2005 00:00:00 14.98583 C 10.01 g/m*3 14.99 C 0 km/h
46 28-10-2005 00:00:00 16.07721 C 9.93 g/m*3 16.08 C 0 km/h
47 29-10-2005 00:00:00 13.94583 C 9.13 g/m*3 13.95 C 0 km/h
48 30-10-2005 00:00:00 12.71467 C 8.73 g/m*3 12.71 C 0 km/h
49 31-10-2005 00:00:00 13.11667 C 8.12 g/m*3 13.12 C 0 km/h
50 01-11-2005 00:00:00 12.41319 C 8.54 g/m*3 12.41 C 0 km/h
Sensor: Nr:Datum:Temp:Abs-Feuchte:Windchill:Wind:
Aussen-T/F 51 02-11-2005 00:00:00 10.43819 C 8.46 g/m*3 10.44 C 0 km/h
52 03-11-2005 00:00:00 14.78403 C 9.99 g/m*3 14.78 C 0 km/h
53 04-11-2005 00:00:00 13.39444 C 9.98 g/m*3 13.39 C 0 km/h
54 05-11-2005 00:00:00 8.99792 C 7.03 g/m*3 9 C 0 km/h
55 06-11-2005 00:00:00 9.96224 C 7.32 g/m*3 9.96 C 0 km/h
56 07-11-2005 00:00:00 8.03611 C 7.17 g/m*3 8.04 C 0 km/h
57 08-11-2005 00:00:00 10.35903 C 7.4 g/m*3 10.36 C 0 km/h
58 09-11-2005 00:00:00 7.83194 C 7.09 g/m*3 7.83 C 0 km/h
59 10-11-2005 00:00:00 9.97639 C 7.21 g/m*3 9.98 C 0 km/h
60 11-11-2005 00:00:00 9.26736 C 7.4 g/m*3 9.27 C 0 km/h
61 12-11-2005 00:00:00 7.83611 C 5.99 g/m*3 7.84 C 0 km/h
62 13-11-2005 00:00:00 9.98542 C 7.43 g/m*3 9.99 C 0 km/h
63 14-11-2005 00:00:00 7.76458 C 6.52 g/m*3 7.76 C 0 km/h
64 15-11-2005 00:00:00 6.09931 C 5.92 g/m*3 6.1 C 0 km/h
65 16-11-2005 00:00:00 5.71806 C 5.83 g/m*3 5.72 C 0 km/h
66 17-11-2005 00:00:00 4.69231 C 4.87 g/m*3 4.69 C 0 km/h
67 18-11-2005 00:00:00 3.75903 C 4.75 g/m*3 3.76 C 0 km/h
68 19-11-2005 00:00:00 1.67431 C 4.45 g/m*3 1.67 C 0 km/h
69 20-11-2005 00:00:00 1.75625 C 4.65 g/m*3 1.76 C 0 km/h
70 21-11-2005 00:00:00 4.09236 C 5.57 g/m*3 4.09 C 0 km/h
71 22-11-2005 00:00:00 -0.87778 C 3.96 g/m*3 -0.88 C 0 km/h
72 23-11-2005 00:00:00 0.84861 C 4.11 g/m*3 0.85 C 0 km/h
73 24-11-2005 00:00:00 2.37778 C 4.63 g/m*3 2.38 C 0 km/h
74 25-11-2005 00:00:00 1.54167 C 3.59 g/m*3 1.54 C 0 km/h
75 26-11-2005 00:00:00 2.46111 C 3.28 g/m*3 2.46 C 0 km/h
Sensor: Nr:Datum:Temp:Abs-Feuchte:Windchill:Wind:
Aussen-T/F 76 27-11-2005 00:00:00 2.30979 C 4.39 g/m*3 2.31 C 0 km/h
77 28-11-2005 00:00:00 1.92847 C 4.78 g/m*3 1.93 C 0 km/h
78 29-11-2005 00:00:00 2.30694 C 4.43 g/m*3 2.31 C 0 km/h
79 30-11-2005 00:00:00 2.00069 C 4.01 g/m*3 2 C 0 km/h
80 01-12-2005 00:00:00 0.41875 C 3.53 g/m*3 0.42 C 0 km/h
81 02-12-2005 00:00:00 0.22153 C 3.38 g/m*3 0.22 C 0 km/h
82 03-12-2005 00:00:00 3.82708 C 5.01 g/m*3 3.83 C 0 km/h
83 04-12-2005 00:00:00 7.05417 C 6.74 g/m*3 7.05 C 0 km/h
84 05-12-2005 00:00:00 6.35208 C 5.78 g/m*3 6.35 C 0 km/h
85 06-12-2005 00:00:00 4.99583 C 5.15 g/m*3 5 C 0 km/h
86 07-12-2005 00:00:00 4.93706 C 5.56 g/m*3 4.94 C 0 km/h
87 08-12-2005 00:00:00 4.74653 C 5.18 g/m*3 4.75 C 0 km/h
88 09-12-2005 00:00:00 3.66458 C 5.09 g/m*3 3.66 C 0 km/h
89 10-12-2005 00:00:00 -0.92292 C 3.78 g/m*3 -0.92 C 0 km/h
90 11-12-2005 00:00:00 -2.30069 C 3.46 g/m*3 -2.3 C 0 km/h
91 12-12-2005 00:00:00 1.72847 C 4.76 g/m*3 1.73 C 0 km/h
92 13-12-2005 00:00:00 1.28472 C 4.91 g/m*3 1.28 C 0 km/h
93 14-12-2005 00:00:00 3.84028 C 5.78 g/m*3 3.84 C 0 km/h
94 15-12-2005 00:00:00 5.59167 C 5.53 g/m*3 5.59 C 0 km/h
95 16-12-2005 00:00:00 6.09861 C 5.31 g/m*3 6.1 C 0 km/h
96 17-12-2005 00:00:00 1.45035 C 3.8 g/m*3 1.45 C 0 km/h
97 18-12-2005 00:00:00 1.59861 C 3.96 g/m*3 1.6 C 0 km/h
98 19-12-2005 00:00:00 1.45417 C 4.2 g/m*3 1.45 C 0 km/h
99 20-12-2005 00:00:00 2.75347 C 4.64 g/m*3 2.75 C 0 km/h
100 21-12-2005 00:00:00 2.23194 C 4.34 g/m*3 2.23 C 0 km/h
Sensor: Nr:Datum:Temp:Abs-Feuchte:Windchill:Wind:
Aussen-T/F 101 22-12-2005 00:00:00 2.96875 C 5.07 g/m*3 2.97 C 0 km/h
102 23-12-2005 00:00:00 4.89653 C 5.59 g/m*3 4.9 C 0 km/h
103 24-12-2005 00:00:00 5.93264 C 5.56 g/m*3 5.93 C 0 km/h
104 25-12-2005 00:00:00 4.13958 C 5.2 g/m*3 4.14 C 0 km/h
105 26-12-2005 00:00:00 1.48403 C 4.21 g/m*3 1.48 C 0 km/h
106 27-12-2005 00:00:00 -1.47413 C 3.38 g/m*3 -1.47 C 0 km/h
107 28-12-2005 00:00:00 -1.48681 C 3.38 g/m*3 -1.49 C 0 km/h
108 29-12-2005 00:00:00 -2.85486 C 2.99 g/m*3 -2.85 C 0 km/h
109 30-12-2005 00:00:00 -3.14514 C 2.78 g/m*3 -3.15 C 0 km/h
110 31-12-2005 00:00:00 2.82361 C 4.93 g/m*3 2.82 C 0 km/h
111 01-01-2006 00:00:00 3.86319 C 5.09 g/m*3 3.86 C 0 km/h
112 02-01-2006 00:00:00 3.13125 C 4.93 g/m*3 3.13 C 0 km/h
113 03-01-2006 00:00:00 2.31597 C 4.43 g/m*3 2.32 C 0 km/h
114 04-01-2006 00:00:00 0.29583 C 3.73 g/m*3 0.3 C 0 km/h
115 05-01-2006 00:00:00 1.24306 C 3.66 g/m*3 1.24 C 0 km/h
116 06-01-2006 00:00:00 -0.25035 C 4 g/m*3 -0.25 C 0 km/h
117 07-01-2006 00:00:00 2.66181 C 4.44 g/m*3 2.66 C 0 km/h
118 08-01-2006 00:00:00 2.09653 C 3.9 g/m*3 2.1 C 0 km/h
119 09-01-2006 00:00:00 -2.41736 C 3.27 g/m*3 -2.42 C 0 km/h
120 10-01-2006 00:00:00 -1.51736 C 3.25 g/m*3 -1.52 C 0 km/h
121 11-01-2006 00:00:00 -1.95903 C 3.55 g/m*3 -1.96 C 0 km/h
122 12-01-2006 00:00:00 1.79583 C 5.01 g/m*3 1.8 C 0 km/h
123 13-01-2006 00:00:00 0.35972 C 3.83 g/m*3 0.36 C 0 km/h
124 14-01-2006 00:00:00 -3.27639 C 3.12 g/m*3 -3.28 C 0 km/h
125 15-01-2006 00:00:00 -4.27153 C 2.57 g/m*3 -4.27 C 0 km/h
Sensor: Nr:Datum:Temp:Abs-Feuchte:Windchill:Wind:
Aussen-T/F 126 16-01-2006 00:00:00 -4.78951 C 2.59 g/m*3 -4.79 C 0 km/h
127 17-01-2006 00:00:00 1.90278 C 4.54 g/m*3 1.9 C 0 km/h
128 18-01-2006 00:00:00 3.8125 C 5.08 g/m*3 3.81 C 0 km/h
129 19-01-2006 00:00:00 1.43403 C 4.72 g/m*3 1.43 C 0 km/h
130 20-01-2006 00:00:00 6.2375 C 6 g/m*3 6.24 C 0 km/h
131 21-01-2006 00:00:00 4.58889 C 5.24 g/m*3 4.59 C 0 km/h
132 22-01-2006 00:00:00 1.08125 C 3.94 g/m*3 1.08 C 0 km/h
133 23-01-2006 00:00:00 -5.20417 C 1.94 g/m*3 -5.2 C 0 km/h
134 24-01-2006 00:00:00 -5.83542 C 1.92 g/m*3 -5.84 C 0 km/h
135 25-01-2006 00:00:00 -3.80833 C 2.61 g/m*3 -3.81 C 0 km/h
136 26-01-2006 00:00:00 -2.11818 C 3.16 g/m*3 -2.12 C 0 km/h
137 27-01-2006 00:00:00 -5.44236 C 2.23 g/m*3 -5.44 C 0 km/h
138 28-01-2006 00:00:00 -6.67986 C 2.22 g/m*3 -6.68 C 0 km/h
139 29-01-2006 00:00:00 -6.29792 C 2.35 g/m*3 -6.3 C 0 km/h
140 30-01-2006 00:00:00 -5.95139 C 2.43 g/m*3 -5.95 C 0 km/h
141 31-01-2006 00:00:00 -3.30486 C 3.12 g/m*3 -3.3 C 0 km/h
142 01-02-2006 00:00:00 -5.48333 C 2.52 g/m*3 -5.48 C 0 km/h
143 02-02-2006 00:00:00 -6.16667 C 2.42 g/m*3 -6.17 C 0 km/h
144 03-02-2006 00:00:00 -3.79931 C 2.72 g/m*3 -3.8 C 0 km/h
145 04-02-2006 00:00:00 -0.85208 C 3.61 g/m*3 -0.85 C 0 km/h
146 05-02-2006 00:00:00 -0.32867 C 3.81 g/m*3 -0.33 C 0 km/h
147 06-02-2006 00:00:00 1.50903 C 4.7 g/m*3 1.51 C 0 km/h
148 07-02-2006 00:00:00 3.74861 C 4.89 g/m*3 3.75 C 0 km/h
149 08-02-2006 00:00:00 3.70208 C 4.95 g/m*3 3.7 C 0 km/h
150 09-02-2006 00:00:00 2.29722 C 4.03 g/m*3 2.3 C 0 km/h
Sensor: Nr:Datum:Temp:Abs-Feuchte:Windchill:Wind:
Aussen-T/F 151 10-02-2006 00:00:00 2.10979 C 4.24 g/m*3 2.11 C 0 km/h
152 11-02-2006 00:00:00 1.21458 C 4.02 g/m*3 1.21 C 0 km/h
153 12-02-2006 00:00:00 1.60694 C 3.21 g/m*3 1.61 C 0 km/h
154 13-02-2006 00:00:00 2.60764 C 2.97 g/m*3 2.61 C 0 km/h
155 14-02-2006 00:00:00 4.21597 C 4.26 g/m*3 4.22 C 0 km/h
156 15-02-2006 00:00:00 6.17832 C 5.78 g/m*3 6.18 C 0 km/h
157 16-02-2006 00:00:00 7.31736 C 6.23 g/m*3 7.32 C 0 km/h
158 17-02-2006 00:00:00 6.0625 C 5.09 g/m*3 6.06 C 0 km/h
159 18-02-2006 00:00:00 5.81389 C 5.1 g/m*3 5.81 C 0 km/h
160 19-02-2006 00:00:00 7.08472 C 4.96 g/m*3 7.08 C 0 km/h
161 20-02-2006 00:00:00 4.17917 C 5.28 g/m*3 4.18 C 0 km/h
162 21-02-2006 00:00:00 3.04444 C 5.09 g/m*3 3.04 C 0 km/h
163 22-02-2006 00:00:00 2.47639 C 3.64 g/m*3 2.48 C 0 km/h
164 23-02-2006 00:00:00 1.36736 C 2.72 g/m*3 1.37 C 0 km/h
165 24-02-2006 00:00:00 2.05972 C 2.88 g/m*3 2.06 C 0 km/h
166 25-02-2006 00:00:00 0.46364 C 2.5 g/m*3 0.46 C 0 km/h
167 26-02-2006 00:00:00 -1.08472 C 2.46 g/m*3 -1.08 C 0 km/h
168 27-02-2006 00:00:00 -1.57569 C 3.19 g/m*3 -1.58 C 0 km/h
169 28-02-2006 00:00:00 1.56806 C 4.03 g/m*3 1.57 C 0 km/h
170 01-03-2006 00:00:00 0.10556 C 3.05 g/m*3 0.11 C 0 km/h
171 02-03-2006 00:00:00 -0.25347 C 2.76 g/m*3 -0.25 C 0 km/h
172 03-03-2006 00:00:00 -0.44722 C 3.59 g/m*3 -0.45 C 0 km/h
173 04-03-2006 00:00:00 -0.87361 C 3.51 g/m*3 -0.87 C 0 km/h
174 05-03-2006 00:00:00 -1.41944 C 3.13 g/m*3 -1.42 C 0 km/h
175 06-03-2006 00:00:00 1.2125 C 3.34 g/m*3 1.21 C 0 km/h
Sensor: Nr:Datum:Temp:Abs-Feuchte:Windchill:Wind:
Aussen-T/F 176 07-03-2006 00:00:00 2.11748 C 3.25 g/m*3 2.12 C 0 km/h
177 08-03-2006 00:00:00 0.99722 C 3.99 g/m*3 1 C 0 km/h
178 09-03-2006 00:00:00 8.02431 C 6.63 g/m*3 8.02 C 0 km/h
179 10-03-2006 00:00:00 5.79931 C 4.67 g/m*3 5.8 C 0 km/h
180 11-03-2006 00:00:00 1.7 C 4.29 g/m*3 1.7 C 0 km/h
181 12-03-2006 00:00:00 -2.45556 C 1.99 g/m*3 -2.46 C 0 km/h
182 13-03-2006 00:00:00 -1.82553 C 2.07 g/m*3 -1.83 C 0 km/h
183 14-03-2006 00:00:00 -0.25972 C 2.33 g/m*3 -0.26 C 0 km/h
184 15-03-2006 00:00:00 1.33333 C 2.81 g/m*3 1.33 C 0 km/h
185 16-03-2006 00:00:00 2.07292 C 2.65 g/m*3 2.07 C 0 km/h
186 17-03-2006 00:00:00 2.75175 C 3.25 g/m*3 2.75 C 0 km/h
187 18-03-2006 00:00:00 3.75069 C 3.43 g/m*3 3.75 C 0 km/h
188 19-03-2006 00:00:00 4.88056 C 3.93 g/m*3 4.88 C 0 km/h
189 20-03-2006 00:00:00 4.13542 C 4.32 g/m*3 4.14 C 0 km/h
190 21-03-2006 00:00:00 3.42222 C 5.01 g/m*3 3.42 C 0 km/h
191 22-03-2006 00:00:00 4.52708 C 3.53 g/m*3 4.53 C 0 km/h
192 23-03-2006 00:00:00 4.85694 C 2.84 g/m*3 4.86 C 0 km/h
193 24-03-2006 00:00:00 5.28125 C 5.03 g/m*3 5.28 C 0 km/h
194 25-03-2006 00:00:00 12.04861 C 7.85 g/m*3 12.05 C 0 km/h
195 26-03-2006 00:00:00 15.02826 C 9.07 g/m*3 15.03 C 0 km/h
196 27-03-2006 00:00:00 14.96319 C 8.44 g/m*3 14.96 C 0 km/h
197 28-03-2006 00:00:00 11.67273 C 6.09 g/m*3 11.67 C 0 km/h
198 29-03-2006 00:00:00 9.22222 C 5.78 g/m*3 9.22 C 0 km/h
199 30-03-2006 00:00:00 11.31181 C 7.59 g/m*3 11.31 C 0 km/h
200 31-03-2006 00:00:00 12.225 C 7.78 g/m*3 12.23 C 0 km/h
Sensor: Nr:Datum:Temp:Abs-Feuchte:Windchill:Wind:
Aussen-T/F 201 01-04-2006 00:00:00 10.95 C 7.33 g/m*3 10.95 C 0 km/h
202 02-04-2006 00:00:00 10.30347 C 6.71 g/m*3 10.3 C 0 km/h
203 03-04-2006 00:00:00 9.04444 C 5.27 g/m*3 9.04 C 0 km/h
204 04-04-2006 00:00:00 7.89306 C 4.31 g/m*3 7.89 C 0 km/h
205 05-04-2006 00:00:00 5.38542 C 3.69 g/m*3 5.39 C 0 km/h
206 06-04-2006 00:00:00 5.62847 C 3.78 g/m*3 5.63 C 0 km/h
207 07-04-2006 00:00:00 7.78112 C 3.69 g/m*3 7.78 C 0 km/h
208 08-04-2006 00:00:00 8.88681 C 3.81 g/m*3 8.89 C 0 km/h
209 09-04-2006 00:00:00 9.54931 C 4.04 g/m*3 9.55 C 0 km/h
210 10-04-2006 00:00:00 7.99444 C 3.73 g/m*3 7.99 C 0 km/h
211 11-04-2006 00:00:00 6.56528 C 3.66 g/m*3 6.57 C 0 km/h
212 12-04-2006 00:00:00 7.39167 C 5.46 g/m*3 7.39 C 0 km/h
213 13-04-2006 00:00:00 7.97014 C 5.79 g/m*3 7.97 C 0 km/h
214 14-04-2006 00:00:00 11.28681 C 7.12 g/m*3 11.29 C 0 km/h
215 15-04-2006 00:00:00 12.20486 C 7.42 g/m*3 12.2 C 0 km/h
216 16-04-2006 00:00:00 12.37986 C 7.33 g/m*3 12.38 C 0 km/h
217 17-04-2006 00:00:00 11.4 C 7.54 g/m*3 11.4 C 0 km/h
218 18-04-2006 00:00:00 10.37986 C 6.23 g/m*3 10.38 C 0 km/h
219 19-04-2006 00:00:00 11.18264 C 5.43 g/m*3 11.18 C 0 km/h
220 20-04-2006 00:00:00 12.16528 C 5.8 g/m*3 12.17 C 0 km/h
221 21-04-2006 00:00:00 14.47622 C 6.36 g/m*3 14.48 C 0 km/h
222 22-04-2006 00:00:00 13.62014 C 7.04 g/m*3 13.62 C 0 km/h
223 23-04-2006 00:00:00 10.87639 C 6.01 g/m*3 10.88 C 0 km/h
224 24-04-2006 00:00:00 15.40833 C 6.53 g/m*3 15.41 C 0 km/h
225 25-04-2006 00:00:00 17.60972 C 7.26 g/m*3 17.61 C 0 km/h
Sensor: Nr:Datum:Temp:Abs-Feuchte:Windchill:Wind:
Aussen-T/F 226 26-04-2006 00:00:00 15.22778 C 10.04 g/m*3 15.23 C 0 km/h
227 27-04-2006 00:00:00 12.53611 C 8.58 g/m*3 12.54 C 0 km/h
228 28-04-2006 00:00:00 10.85 C 5.75 g/m*3 10.85 C 0 km/h
229 29-04-2006 00:00:00 7.53194 C 4.57 g/m*3 7.53 C 0 km/h
230 30-04-2006 00:00:00 6.51389 C 5.5 g/m*3 6.51 C 0 km/h
231 01-05-2006 00:00:00 8.32727 C 6.64 g/m*3 8.33 C 0 km/h
232 02-05-2006 00:00:00 15.08819 C 7.52 g/m*3 15.09 C 0 km/h
233 03-05-2006 00:00:00 18.44931 C 8.16 g/m*3 18.45 C 0 km/h
234 04-05-2006 00:00:00 19.40278 C 8.14 g/m*3 19.4 C 0 km/h
235 05-05-2006 00:00:00 20.21389 C 7.05 g/m*3 20.21 C 0 km/h
236 06-05-2006 00:00:00 18.90069 C 6.51 g/m*3 18.9 C 0 km/h
237 07-05-2006 00:00:00 19.45486 C 5.48 g/m*3 19.45 C 0 km/h
238 08-05-2006 00:00:00 18.61667 C 6.18 g/m*3 18.62 C 0 km/h
239 09-05-2006 00:00:00 18.27431 C 6.73 g/m*3 18.27 C 0 km/h
240 10-05-2006 00:00:00 18.83194 C 8.46 g/m*3 18.83 C 0 km/h
241 11-05-2006 00:00:00 19.10629 C 6.83 g/m*3 19.11 C 0 km/h
242 12-05-2006 00:00:00 18.74583 C 6.68 g/m*3 18.75 C 0 km/h
243 13-05-2006 00:00:00 16.36944 C 9.54 g/m*3 16.37 C 0 km/h
244 14-05-2006 00:00:00 15.00278 C 8.64 g/m*3 15 C 0 km/h
245 15-05-2006 00:00:00 16.62986 C 8.78 g/m*3 16.63 C 0 km/h
246 16-05-2006 00:00:00 19.50347 C 9.69 g/m*3 19.5 C 0 km/h
247 17-05-2006 00:00:00 17.91736 C 9.73 g/m*3 17.92 C 0 km/h
248 18-05-2006 00:00:00 18.00347 C 10.26 g/m*3 18 C 0 km/h
249 19-05-2006 00:00:00 14.40347 C 8.4 g/m*3 14.4 C 0 km/h
250 20-05-2006 00:00:00 12.56853 C 7.83 g/m*3 12.57 C 0 km/h
Sensor: Nr:Datum:Temp:Abs-Feuchte:Windchill:Wind:
Aussen-T/F 251 21-05-2006 00:00:00 15.07431 C 7.61 g/m*3 15.07 C 0 km/h
252 22-05-2006 00:00:00 15.73472 C 8.94 g/m*3 15.73 C 0 km/h
253 23-05-2006 00:00:00 12.35556 C 6.68 g/m*3 12.36 C 0 km/h
254 24-05-2006 00:00:00 10.91667 C 6.68 g/m*3 10.92 C 0 km/h
255 25-05-2006 00:00:00 11.81736 C 8.3 g/m*3 11.82 C 0 km/h
256 26-05-2006 00:00:00 13.58681 C 10.19 g/m*3 13.59 C 0 km/h
257 27-05-2006 00:00:00 16.75972 C 10.96 g/m*3 16.76 C 0 km/h
258 28-05-2006 00:00:00 16.35 C 8.5 g/m*3 16.35 C 0 km/h
259 29-05-2006 00:00:00 12.47431 C 7.16 g/m*3 12.47 C 0 km/h
260 30-05-2006 00:00:00 9.24792 C 6.53 g/m*3 9.25 C 0 km/h
261 31-05-2006 00:00:00 9.13776 C 6.51 g/m*3 9.14 C 0 km/h
262 01-06-2006 00:00:00 9.43819 C 6.58 g/m*3 9.44 C 0 km/h
263 02-06-2006 00:00:00 13.68056 C 6.85 g/m*3 13.68 C 0 km/h
264 03-06-2006 00:00:00 13.95278 C 7.53 g/m*3 13.95 C 0 km/h
265 04-06-2006 00:00:00 14.34514 C 6.93 g/m*3 14.35 C 0 km/h
266 05-06-2006 00:00:00 14.45764 C 6.07 g/m*3 14.46 C 0 km/h
267 06-06-2006 00:00:00 14.33472 C 6.42 g/m*3 14.33 C 0 km/h
268 07-06-2006 00:00:00 16.37431 C 7.03 g/m*3 16.37 C 0 km/h
269 08-06-2006 00:00:00 19.21736 C 7.78 g/m*3 19.22 C 0 km/h
270 09-06-2006 00:00:00 21.24306 C 8.18 g/m*3 21.24 C 0 km/h
271 10-06-2006 00:00:00 22.62098 C 8.87 g/m*3 22.62 C 0 km/h
272 11-06-2006 00:00:00 23.39653 C 8.75 g/m*3 23.4 C 0 km/h
273 12-06-2006 00:00:00 23.62431 C 8.32 g/m*3 23.62 C 0 km/h
274 13-06-2006 00:00:00 25.05625 C 9.6 g/m*3 25.06 C 0 km/h
275 14-06-2006 00:00:00 25.71667 C 10.84 g/m*3 25.72 C 0 km/h
Sensor: Nr:Datum:Temp:Abs-Feuchte:Windchill:Wind:
Aussen-T/F 276 15-06-2006 00:00:00 22.39653 C 13.02 g/m*3 22.4 C 0 km/h
277 16-06-2006 00:00:00 19.19792 C 9.2 g/m*3 19.2 C 0 km/h
278 17-06-2006 00:00:00 19.55139 C 8.62 g/m*3 19.55 C 0 km/h
279 18-06-2006 00:00:00 22.94931 C 11.05 g/m*3 22.95 C 0 km/h
280 19-06-2006 00:00:00 22.18819 C 13.64 g/m*3 22.19 C 0 km/h
281 20-06-2006 00:00:00 22.95524 C 12.6 g/m*3 22.96 C 0 km/h
282 21-06-2006 00:00:00 22.61597 C 10.2 g/m*3 22.62 C 0 km/h
283 22-06-2006 00:00:00 18.87222 C 7.76 g/m*3 18.87 C 0 km/h
284 23-06-2006 00:00:00 18.88681 C 7.57 g/m*3 18.89 C 0 km/h
285 24-06-2006 00:00:00 22.39792 C 8.91 g/m*3 22.4 C 0 km/h
286 25-06-2006 00:00:00 23.4375 C 12.58 g/m*3 23.44 C 0 km/h
287 26-06-2006 00:00:00 21.99097 C 12.21 g/m*3 21.99 C 0 km/h
288 27-06-2006 00:00:00 19.64028 C 11.66 g/m*3 19.64 C 0 km/h
289 28-06-2006 00:00:00 21.16111 C 10.45 g/m*3 21.16 C 0 km/h
290 29-06-2006 00:00:00 21.06319 C 11.36 g/m*3 21.06 C 0 km/h
291 30-06-2006 00:00:00 23.44545 C 11.46 g/m*3 23.45 C 0 km/h
292 01-07-2006 00:00:00 24.6875 C 10.22 g/m*3 24.69 C 0 km/h
293 02-07-2006 00:00:00 25.27986 C 9.46 g/m*3 25.28 C 0 km/h
294 03-07-2006 00:00:00 25.22083 C 8.68 g/m*3 25.22 C 0 km/h
295 04-07-2006 00:00:00 26.70278 C 10.21 g/m*3 26.7 C 0 km/h
296 05-07-2006 00:00:00 26.28681 C 12.37 g/m*3 26.29 C 0 km/h
297 06-07-2006 00:00:00 24.85278 C 12.2 g/m*3 24.85 C 0 km/h
298 07-07-2006 00:00:00 22.81528 C 12.32 g/m*3 22.82 C 0 km/h
299 08-07-2006 00:00:00 22.68958 C 13.01 g/m*3 22.69 C 0 km/h
300 09-07-2006 00:00:00 23.57778 C 11.52 g/m*3 23.58 C 0 km/h
Sensor: Nr:Datum:Temp:Abs-Feuchte:Windchill:Wind:
Aussen-T/F 301 10-07-2006 00:00:00 25.03147 C 10.68 g/m*3 25.03 C 0 km/h
302 11-07-2006 00:00:00 23.91181 C 13.08 g/m*3 23.91 C 0 km/h
303 12-07-2006 00:00:00 25.55625 C 13.47 g/m*3 25.56 C 0 km/h
304 13-07-2006 00:00:00 26.02986 C 13.12 g/m*3 26.03 C 0 km/h
305 14-07-2006 00:00:00 24.71389 C 8.97 g/m*3 24.71 C 0 km/h
306 15-07-2006 00:00:00 23.42431 C 7.65 g/m*3 23.42 C 0 km/h
307 16-07-2006 00:00:00 24.37639 C 8.1 g/m*3 24.38 C 0 km/h
308 17-07-2006 00:00:00 25.54792 C 7.82 g/m*3 25.55 C 0 km/h
309 18-07-2006 00:00:00 26.24722 C 8.99 g/m*3 26.25 C 0 km/h
310 19-07-2006 00:00:00 27.43125 C 9.1 g/m*3 27.43 C 0 km/h
311 20-07-2006 00:00:00 28.02797 C 9.35 g/m*3 28.03 C 0 km/h
312 21-07-2006 00:00:00 28.09306 C 11.49 g/m*3 28.09 C 0 km/h
313 22-07-2006 00:00:00 24.58125 C 12.7 g/m*3 24.58 C 0 km/h
314 23-07-2006 00:00:00 26.09375 C 13.17 g/m*3 26.09 C 0 km/h
315 24-07-2006 00:00:00 27.19236 C 11.15 g/m*3 27.19 C 0 km/h
316 25-07-2006 00:00:00 28.08194 C 10.78 g/m*3 28.08 C 0 km/h
317 26-07-2006 00:00:00 28.25208 C 11.87 g/m*3 28.25 C 0 km/h
318 27-07-2006 00:00:00 25.83403 C 14.1 g/m*3 25.83 C 0 km/h
319 28-07-2006 00:00:00 22.68264 C 14.34 g/m*3 22.68 C 0 km/h
320 29-07-2006 00:00:00 24.07431 C 13.52 g/m*3 24.07 C 0 km/h
321 30-07-2006 00:00:00 24.48392 C 12.14 g/m*3 24.48 C 0 km/h
322 31-07-2006 00:00:00 23.2375 C 10.23 g/m*3 23.24 C 0 km/h
323 01-08-2006 00:00:00 20.05625 C 10.27 g/m*3 20.06 C 0 km/h
324 02-08-2006 00:00:00 16.51667 C 9.93 g/m*3 16.52 C 0 km/h
325 03-08-2006 00:00:00 15.56111 C 9.83 g/m*3 15.56 C 0 km/h
Sensor: Nr:Datum:Temp:Abs-Feuchte:Windchill:Wind:
Aussen-T/F 326 04-08-2006 00:00:00 19.03056 C 10.44 g/m*3 19.03 C 0 km/h
327 05-08-2006 00:00:00 20.59514 C 10.71 g/m*3 20.6 C 0 km/h
328 06-08-2006 00:00:00 21.40694 C 10.86 g/m*3 21.41 C 0 km/h
329 07-08-2006 00:00:00 21.93056 C 10.07 g/m*3 21.93 C 0 km/h
330 08-08-2006 00:00:00 19.79583 C 9.89 g/m*3 19.8 C 0 km/h
331 09-08-2006 00:00:00 19.08322 C 9.32 g/m*3 19.08 C 0 km/h
332 10-08-2006 00:00:00 15.04792 C 9.68 g/m*3 15.05 C 0 km/h
333 11-08-2006 00:00:00 14.23611 C 9.74 g/m*3 14.24 C 0 km/h
334 12-08-2006 00:00:00 15.08958 C 8.69 g/m*3 15.09 C 0 km/h
335 13-08-2006 00:00:00 14.64514 C 9.18 g/m*3 14.65 C 0 km/h
336 14-08-2006 00:00:00 14.16319 C 9.66 g/m*3 14.16 C 0 km/h
337 15-08-2006 00:00:00 17.63333 C 10.27 g/m*3 17.63 C 0 km/h
338 16-08-2006 00:00:00 17.65 C 10.87 g/m*3 17.65 C 0 km/h
339 17-08-2006 00:00:00 20.9 C 11.79 g/m*3 20.9 C 0 km/h
340 18-08-2006 00:00:00 19.10208 C 11.74 g/m*3 19.1 C 0 km/h
341 19-08-2006 00:00:00 18.77343 C 11.44 g/m*3 18.77 C 0 km/h
342 20-08-2006 00:00:00 18.10972 C 10.83 g/m*3 18.11 C 0 km/h
343 21-08-2006 00:00:00 16.97292 C 10.27 g/m*3 16.97 C 0 km/h
344 22-08-2006 00:00:00 16.96389 C 10.28 g/m*3 16.96 C 0 km/h
345 23-08-2006 00:00:00 17.71319 C 10.25 g/m*3 17.71 C 0 km/h
346 24-08-2006 00:00:00 16.95139 C 10.55 g/m*3 16.95 C 0 km/h
347 25-08-2006 00:00:00 16.57778 C 11 g/m*3 16.58 C 0 km/h
348 26-08-2006 00:00:00 16.86528 C 10.55 g/m*3 16.87 C 0 km/h
349 27-08-2006 00:00:00 15.83681 C 10.94 g/m*3 15.84 C 0 km/h
350 28-08-2006 00:00:00 13.83264 C 9.97 g/m*3 13.83 C 0 km/h
Sensor: Nr:Datum:Temp:Abs-Feuchte:Windchill:Wind:
Aussen-T/F 351 29-08-2006 00:00:00 12.56713 C 8.65 g/m*3 12.57 C 0 km/h
352 30-08-2006 00:00:00 13.16111 C 9.07 g/m*3 13.16 C 0 km/h
353 31-08-2006 00:00:00 15.10417 C 8.8 g/m*3 15.1 C 0 km/h
354 01-09-2006 00:00:00 20.10139 C 9.87 g/m*3 20.1 C 0 km/h
355 02-09-2006 00:00:00 20.75 C 11 g/m*3 20.75 C 0 km/h
356 03-09-2006 00:00:00 21.75069 C 12.12 g/m*3 21.75 C 0 km/h
357 04-09-2006 00:00:00 22.06389 C 10.38 g/m*3 22.06 C 0 km/h
358 05-09-2006 00:00:00 19.96458 C 11.3 g/m*3 19.96 C 0 km/h
359 06-09-2006 00:00:00 21.68819 C 12.31 g/m*3 21.69 C 0 km/h
360 07-09-2006 00:00:00 19.05694 C 11.44 g/m*3 19.06 C 0 km/h
361 08-09-2006 00:00:00 16.55874 C 8.04 g/m*3 16.56 C 0 km/h
362 09-09-2006 00:00:00 16.56458 C 8.18 g/m*3 16.56 C 0 km/h
363 10-09-2006 00:00:00 18.675 C 9.16 g/m*3 18.68 C 0 km/h
364 11-09-2006 00:00:00 20.64722 C 11.18 g/m*3 20.65 C 0 km/h
365 12-09-2006 00:00:00 22.28889 C 12.16 g/m*3 22.29 C 0 km/h
366 13-09-2006 00:00:00 22.18819 C 11.95 g/m*3 22.19 C 0 km/h
367 14-09-2006 00:00:00 21.21806 C 11.23 g/m*3 21.22 C 0 km/h
368 15-09-2006 00:00:00 21.27273 C 10.28 g/m*3 21.27 C 0 km/h
369 16-09-2006 00:00:00 21.06759 C 11.67 g/m*3 21.07 C 0 km/h
370 17-09-2006 00:00:00 18.62986 C 12.65 g/m*3 18.63 C 0 km/h
371 18-09-2006 00:00:00 17.15903 C 12.29 g/m*3 17.16 C 0 km/h
372 19-09-2006 00:00:00 16.75278 C 10.65 g/m*3 16.75 C 0 km/h
373 20-09-2006 00:00:00 16.65139 C 9.61 g/m*3 16.65 C 0 km/h
374 21-09-2006 00:00:00 18.26806 C 10.43 g/m*3 18.27 C 0 km/h
375 22-09-2006 00:00:00 20.87413 C 10.57 g/m*3 20.87 C 0 km/h
Sensor: Nr:Datum:Temp:Abs-Feuchte:Windchill:Wind:
Aussen-T/F 376 23-09-2006 00:00:00 20.17361 C 11.42 g/m*3 20.17 C 0 km/h
377 24-09-2006 00:00:00 21.00903 C 11.38 g/m*3 21.01 C 0 km/h
378 25-09-2006 00:00:00 18.50486 C 11.18 g/m*3 18.5 C 0 km/h
379 26-09-2006 00:00:00 17.03056 C 11.32 g/m*3 17.03 C 0 km/h
380 27-09-2006 00:00:00 17.04444 C 10.2 g/m*3 17.04 C 0 km/h
381 28-09-2006 00:00:00 16.01042 C 9.81 g/m*3 16.01 C 0 km/h
382 29-09-2006 00:00:00 17.325 C 10.7 g/m*3 17.33 C 0 km/h
383 30-09-2006 00:00:00 17.09583 C 10.68 g/m*3 17.1 C 0 km/h
384 01-10-2006 00:00:00 17.24406 C 11.46 g/m*3 17.24 C 0 km/h
385 02-10-2006 00:00:00 15.91042 C 9.59 g/m*3 15.91 C 0 km/h
386 03-10-2006 00:00:00 13.2126 C 10.47 g/m*3 13.21 C 0 km/h
387 04-10-2006 00:00:00 13.01961 C 8.62 g/m*3 13.02 C 0 km/h
388 05-10-2006 00:00:00 12.97647 C 7.92 g/m*3 12.98 C 0 km/h
389 06-10-2006 00:00:00 15.82353 C 9.57 g/m*3 15.82 C 0 km/h
390 07-10-2006 00:00:00 14.25769 C 8.26 g/m*3 14.26 C 0 km/h
391 08-10-2006 00:00:00 11.08235 C 7.49 g/m*3 11.08 C 0 km/h
392 09-10-2006 00:00:00 12.00192 C 8.16 g/m*3 12 C 0 km/h
393 10-10-2006 00:00:00 15.38824 C 9.83 g/m*3 15.39 C 0 km/h
394 11-10-2006 00:00:00 14.37885 C 9.66 g/m*3 14.38 C 0 km/h
395 12-10-2006 00:00:00 15.54118 C 10.53 g/m*3 15.54 C 0 km/h
396 13-10-2006 00:00:00 16.11765 C 11.21 g/m*3 16.12 C 0 km/h
397 14-10-2006 00:00:00 14.12115 C 9.1 g/m*3 14.12 C 0 km/h
398 15-10-2006 00:00:00 12.41569 C 8.17 g/m*3 12.42 C 0 km/h
399 16-10-2006 00:00:00 9.56154 C 7.1 g/m*3 9.56 C 0 km/h
400 17-10-2006 00:00:00 9.22745 C 7.11 g/m*3 9.23 C 0 km/h
Sensor: Nr:Datum:Temp:Abs-Feuchte:Windchill:Wind:
Aussen-T/F 401 18-10-2006 00:00:00 11.90769 C 8.05 g/m*3 11.91 C 0 km/h
402 19-10-2006 00:00:00 13.41961 C 9.54 g/m*3 13.42 C 0 km/h
403 20-10-2006 00:00:00 15.83725 C 9.91 g/m*3 15.84 C 0 km/h
404 21-10-2006 00:00:00 14.08553 C 10.16 g/m*3 14.09 C 0 km/h
405 22-10-2006 00:00:00 15.405 C 9.54 g/m*3 15.41 C 0 km/h
406 23-10-2006 00:00:00 17.22 C 11.01 g/m*3 17.22 C 0 km/h
407 24-10-2006 00:00:00 14.19167 C 9.57 g/m*3 14.19 C 0 km/h
408 25-10-2006 00:00:00 12.59167 C 8.45 g/m*3 12.59 C 0 km/h
409 26-10-2006 00:00:00 16.50583 C 9.43 g/m*3 16.51 C 0 km/h
410 27-10-2006 00:00:00 17.075 C 10.44 g/m*3 17.08 C 0 km/h
411 28-10-2006 00:00:00 15.02083 C 10.11 g/m*3 15.02 C 0 km/h
412 29-10-2006 00:00:00 15.9896 C 8.79 g/m*3 15.99 C 0 km/h
413 30-10-2006 00:00:00 12.1575 C 7.78 g/m*3 12.16 C 0 km/h
414 31-10-2006 00:00:00 10.23529 C 7.15 g/m*3 10.24 C 0 km/h
415 01-11-2006 00:00:00 7.77167 C 4.9 g/m*3 7.77 C 0 km/h
416 02-11-2006 00:00:00 3.03 C 5.06 g/m*3 3.03 C 0 km/h
417 03-11-2006 00:00:00 5.84333 C 5.93 g/m*3 5.84 C 0 km/h
418 04-11-2006 00:00:00 8.15833 C 6.41 g/m*3 8.16 C 0 km/h
419 05-11-2006 00:00:00 9.14833 C 6.17 g/m*3 9.15 C 0 km/h
420 06-11-2006 00:00:00 9.06833 C 6.39 g/m*3 9.07 C 0 km/h
421 07-11-2006 00:00:00 7.04083 C 6.11 g/m*3 7.04 C 0 km/h
422 08-11-2006 00:00:00 7.96417 C 6.49 g/m*3 7.96 C 0 km/h
423 09-11-2006 00:00:00 9.81917 C 6.62 g/m*3 9.82 C 0 km/h
424 10-11-2006 00:00:00 5.04917 C 5.59 g/m*3 5.05 C 0 km/h
425 11-11-2006 00:00:00 6.26667 C 6.03 g/m*3 6.27 C 0 km/h
Sensor: Nr:Datum:Temp:Abs-Feuchte:Windchill:Wind:
Aussen-T/F 426 12-11-2006 00:00:00 7.62353 C 5.75 g/m*3 7.62 C 0 km/h
427 13-11-2006 00:00:00 8.9025 C 7.09 g/m*3 8.9 C 0 km/h
428 14-11-2006 00:00:00 12.84083 C 9.06 g/m*3 12.84 C 0 km/h
429 15-11-2006 00:00:00 12.90167 C 8.11 g/m*3 12.9 C 0 km/h
430 16-11-2006 00:00:00 13.12 C 7.88 g/m*3 13.12 C 0 km/h
431 17-11-2006 00:00:00 12.54333 C 8.13 g/m*3 12.54 C 0 km/h
432 18-11-2006 00:00:00 9.73917 C 6.92 g/m*3 9.74 C 0 km/h
433 19-11-2006 00:00:00 7.74083 C 7.39 g/m*3 7.74 C 0 km/h
434 20-11-2006 00:00:00 6.5725 C 5.52 g/m*3 6.57 C 0 km/h
435 21-11-2006 00:00:00 8.63583 C 6.49 g/m*3 8.64 C 0 km/h
436 22-11-2006 00:00:00 6.01833 C 5.31 g/m*3 6.02 C 0 km/h
437 23-11-2006 00:00:00 9.36083 C 7.72 g/m*3 9.36 C 0 km/h
438 24-11-2006 00:00:00 10.1775 C 8.17 g/m*3 10.18 C 0 km/h
439 25-11-2006 00:00:00 14.79583 C 7.59 g/m*3 14.8 C 0 km/h
440 26-11-2006 00:00:00 10.72917 C 7.46 g/m*3 10.73 C 0 km/h
441 27-11-2006 00:00:00 8.08083 C 7.39 g/m*3 8.08 C 0 km/h
442 28-11-2006 00:00:00 7.2775 C 6.92 g/m*3 7.28 C 0 km/h
443 29-11-2006 00:00:00 7.40583 C 7.46 g/m*3 7.41 C 0 km/h
444 30-11-2006 00:00:00 6.29167 C 6.41 g/m*3 6.29 C 0 km/h
445 01-12-2006 00:00:00 5.935 C 6.4 g/m*3 5.94 C 0 km/h
446 02-12-2006 00:00:00 4.37083 C 6.16 g/m*3 4.37 C 0 km/h
447 03-12-2006 00:00:00 10.00583 C 6.96 g/m*3 10.01 C 0 km/h
448 04-12-2006 00:00:00 10.05042 C 6.32 g/m*3 10.05 C 0 km/h
449 05-12-2006 00:00:00 14.25917 C 7.5 g/m*3 14.26 C 0 km/h
450 06-12-2006 00:00:00 10.42667 C 6.11 g/m*3 10.43 C 0 km/h
Sensor: Nr:Datum:Temp:Abs-Feuchte:Windchill:Wind:
Aussen-T/F 451 07-12-2006 00:00:00 8.7025 C 5.3 g/m*3 8.7 C 0 km/h
452 08-12-2006 00:00:00 10.0975 C 6.14 g/m*3 10.1 C 0 km/h
453 09-12-2006 00:00:00 7.6075 C 4.91 g/m*3 7.61 C 0 km/h
454 10-12-2006 00:00:00 5.27833 C 4.83 g/m*3 5.28 C 0 km/h
455 11-12-2006 00:00:00 5.05583 C 4.74 g/m*3 5.06 C 0 km/h
456 12-12-2006 00:00:00 6.37333 C 5.29 g/m*3 6.37 C 0 km/h
457 13-12-2006 00:00:00 6.9775 C 5.44 g/m*3 6.98 C 0 km/h
458 14-12-2006 00:00:00 7.83083 C 5.4 g/m*3 7.83 C 0 km/h
459 15-12-2006 00:00:00 3.2075 C 4.68 g/m*3 3.21 C 0 km/h
460 16-12-2006 00:00:00 4.14333 C 5.23 g/m*3 4.14 C 0 km/h
461 17-12-2006 00:00:00 3.69333 C 5.01 g/m*3 3.69 C 0 km/h
462 18-12-2006 00:00:00 3.37917 C 5.38 g/m*3 3.38 C 0 km/h
463 19-12-2006 00:00:00 3.70083 C 4.15 g/m*3 3.7 C 0 km/h
464 20-12-2006 00:00:00 2.3425 C 4.1 g/m*3 2.34 C 0 km/h
465 21-12-2006 00:00:00 4.7375 C 5.27 g/m*3 4.74 C 0 km/h
466 22-12-2006 00:00:00 1.65 C 4.63 g/m*3 1.65 C 0 km/h
467 23-12-2006 00:00:00 3.19244 C 4.47 g/m*3 3.19 C 0 km/h
468 24-12-2006 00:00:00 0.1725 C 4.3 g/m*3 0.17 C 0 km/h
469 25-12-2006 00:00:00 0.51583 C 4.15 g/m*3 0.52 C 0 km/h
470 26-12-2006 00:00:00 0.8425 C 3.93 g/m*3 0.84 C 0 km/h
471 27-12-2006 00:00:00 -1.28667 C 3.48 g/m*3 -1.29 C 0 km/h
472 28-12-2006 00:00:00 0.405 C 3.88 g/m*3 0.41 C 0 km/h
473 29-12-2006 00:00:00 1.22333 C 4.59 g/m*3 1.22 C 0 km/h
474 30-12-2006 00:00:00 3.5575 C 5.12 g/m*3 3.56 C 0 km/h
475 31-12-2006 00:00:00 10.37107 C 5.17 g/m*3 10.37 C 0 km/h
Sensor: Nr:Datum:Temp:Abs-Feuchte:Windchill:Wind:
Aussen-T/F 476 01-01-2007 00:00:00 7.99664 C 5.44 g/m*3 8 C 0 km/h
477 02-01-2007 00:00:00 4.33083 C 4.79 g/m*3 4.33 C 0 km/h
478 03-01-2007 00:00:00 5.63417 C 5.28 g/m*3 5.63 C 0 km/h
479 04-01-2007 00:00:00 7.7525 C 5.33 g/m*3 7.75 C 0 km/h
480 05-01-2007 00:00:00 8.08667 C 5.69 g/m*3 8.09 C 0 km/h
481 06-01-2007 00:00:00 10.50333 C 7.18 g/m*3 10.5 C 0 km/h
482 07-01-2007 00:00:00 8.5725 C 5.21 g/m*3 8.57 C 0 km/h
483 08-01-2007 00:00:00 9.32667 C 5.75 g/m*3 9.33 C 0 km/h
484 09-01-2007 00:00:00 13.04333 C 7.07 g/m*3 13.04 C 0 km/h
485 10-01-2007 00:00:00 11.54333 C 5.64 g/m*3 11.54 C 0 km/h
486 11-01-2007 00:00:00 7.61933 C 4.64 g/m*3 7.62 C 0 km/h
487 12-01-2007 00:00:00 9.0325 C 4.92 g/m*3 9.03 C 0 km/h
488 13-01-2007 00:00:00 11.8175 C 6.14 g/m*3 11.82 C 0 km/h
489 14-01-2007 00:00:00 7.55833 C 4.65 g/m*3 7.56 C 0 km/h
490 15-01-2007 00:00:00 0.8725 C 4.34 g/m*3 0.87 C 0 km/h
491 16-01-2007 00:00:00 5.06583 C 4.9 g/m*3 5.07 C 0 km/h
492 17-01-2007 00:00:00 10.18333 C 6.05 g/m*3 10.18 C 0 km/h
493 18-01-2007 00:00:00 12.41833 C 7.26 g/m*3 12.42 C 0 km/h
494 19-01-2007 00:00:00 10.36667 C 6.21 g/m*3 10.37 C 0 km/h
495 20-01-2007 00:00:00 11.68917 C 6.43 g/m*3 11.69 C 0 km/h
496 21-01-2007 00:00:00 6.88167 C 3.9 g/m*3 6.88 C 0 km/h
497 22-01-2007 00:00:00 4.26167 C 3.78 g/m*3 4.26 C 0 km/h
498 23-01-2007 00:00:00 -1.075 C 1.21 g/m*3 -1.08 C 0 km/h
499 24-01-2007 00:00:00 -2.97 C 1.85 g/m*3 -2.97 C 0 km/h
500 25-01-2007 00:00:00 -3.4825 C 2.25 g/m*3 -3.48 C 0 km/h
Sensor: Nr:Datum:Temp:Abs-Feuchte:Windchill:Wind:
Aussen-T/F 501 26-01-2007 00:00:00 -3.23083 C 2.24 g/m*3 -3.23 C 0 km/h
502 27-01-2007 00:00:00 2.77 C 3.92 g/m*3 2.77 C 0 km/h
503 28-01-2007 00:00:00 4.49917 C 4.21 g/m*3 4.5 C 0 km/h
504 29-01-2007 00:00:00 7.0175 C 5.25 g/m*3 7.02 C 0 km/h
505 30-01-2007 00:00:00 6.84917 C 5.2 g/m*3 6.85 C 0 km/h
506 31-01-2007 00:00:00 6.82583 C 4.18 g/m*3 6.83 C 0 km/h
507 01-02-2007 00:00:00 7.76667 C 5.68 g/m*3 7.77 C 0 km/h
508 02-02-2007 00:00:00 8.26583 C 6.84 g/m*3 8.27 C 0 km/h
509 03-02-2007 00:00:00 6.285 C 4.67 g/m*3 6.29 C 0 km/h
510 04-02-2007 00:00:00 5.90667 C 4.74 g/m*3 5.91 C 0 km/h
511 05-02-2007 00:00:00 2.19664 C 4.27 g/m*3 2.2 C 0 km/h
512 06-02-2007 00:00:00 3.33417 C 4.06 g/m*3 3.33 C 0 km/h
513 07-02-2007 00:00:00 1.63417 C 4.12 g/m*3 1.63 C 0 km/h
514 08-02-2007 00:00:00 2.62167 C 4.23 g/m*3 2.62 C 0 km/h
515 09-02-2007 00:00:00 5.79167 C 3.84 g/m*3 5.79 C 0 km/h
516 10-02-2007 00:00:00 5.48667 C 5.34 g/m*3 5.49 C 0 km/h
517 11-02-2007 00:00:00 7.70667 C 5.71 g/m*3 7.71 C 0 km/h
518 12-02-2007 00:00:00 8.33083 C 5.62 g/m*3 8.33 C 0 km/h
519 13-02-2007 00:00:00 7.8175 C 4.79 g/m*3 7.82 C 0 km/h
520 14-02-2007 00:00:00 5.82083 C 5.14 g/m*3 5.82 C 0 km/h
521 15-02-2007 00:00:00 7.37917 C 4.4 g/m*3 7.38 C 0 km/h
522 16-02-2007 00:00:00 4.61583 C 4.23 g/m*3 4.62 C 0 km/h
523 17-02-2007 00:00:00 4.92083 C 3.9 g/m*3 4.92 C 0 km/h
524 18-02-2007 00:00:00 3.4775 C 4.32 g/m*3 3.48 C 0 km/h
525 19-02-2007 00:00:00 5.4675 C 4.34 g/m*3 5.47 C 0 km/h
Sensor: Nr:Datum:Temp:Abs-Feuchte:Windchill:Wind:
Aussen-T/F 526 20-02-2007 00:00:00 7.09583 C 4.63 g/m*3 7.1 C 0 km/h
527 21-02-2007 00:00:00 5.63083 C 4.98 g/m*3 5.63 C 0 km/h
528 22-02-2007 00:00:00 7.10583 C 5.19 g/m*3 7.11 C 0 km/h
529 23-02-2007 00:00:00 9.02333 C 5.53 g/m*3 9.02 C 0 km/h
530 24-02-2007 00:00:00 8.47917 C 6.6 g/m*3 8.48 C 0 km/h
531 25-02-2007 00:00:00 7.975 C 5.55 g/m*3 7.98 C 0 km/h
532 26-02-2007 00:00:00 6.53667 C 5.43 g/m*3 6.54 C 0 km/h
533 27-02-2007 00:00:00 6.38333 C 4.96 g/m*3 6.38 C 0 km/h
534 28-02-2007 00:00:00 10.44667 C 5.35 g/m*3 10.45 C 0 km/h
535 01-03-2007 00:00:00 9.04667 C 5.11 g/m*3 9.05 C 0 km/h
536 02-03-2007 00:00:00 6.77917 C 3.71 g/m*3 6.78 C 0 km/h
537 03-03-2007 00:00:00 6.66639 C 4.88 g/m*3 6.67 C 0 km/h
538 04-03-2007 00:00:00 7.69833 C 4.83 g/m*3 7.7 C 0 km/h
539 05-03-2007 00:00:00 10.24667 C 4.19 g/m*3 10.25 C 0 km/h
540 06-03-2007 00:00:00 9.76083 C 4.14 g/m*3 9.76 C 0 km/h
541 07-03-2007 00:00:00 9.16417 C 4.96 g/m*3 9.16 C 0 km/h
542 08-03-2007 00:00:00 7.035 C 4.54 g/m*3 7.04 C 0 km/h
543 09-03-2007 00:00:00 6.3175 C 4.84 g/m*3 6.32 C 0 km/h
544 10-03-2007 00:00:00 7.155 C 4.37 g/m*3 7.16 C 0 km/h
545 11-03-2007 00:00:00 7.3175 C 4.45 g/m*3 7.32 C 0 km/h
546 12-03-2007 00:00:00 8.52833 C 4.75 g/m*3 8.53 C 0 km/h
547 13-03-2007 00:00:00 9.0475 C 5.4 g/m*3 9.05 C 0 km/h
548 14-03-2007 00:00:00 10.57395 C 5.78 g/m*3 10.57 C 0 km/h
549 15-03-2007 00:00:00 8.44333 C 5.18 g/m*3 8.44 C 0 km/h
550 16-03-2007 00:00:00 7.8175 C 5.18 g/m*3 7.82 C 0 km/h
Sensor: Nr:Datum:Temp:Abs-Feuchte:Windchill:Wind:
Aussen-T/F 551 17-03-2007 00:00:00 8.70833 C 6.38 g/m*3 8.71 C 0 km/h
552 18-03-2007 00:00:00 7.715 C 5.51 g/m*3 7.72 C 0 km/h
553 19-03-2007 00:00:00 4.56333 C 4 g/m*3 4.56 C 0 km/h
554 20-03-2007 00:00:00 4.1325 C 4.47 g/m*3 4.13 C 0 km/h
555 21-03-2007 00:00:00 4.47417 C 4.53 g/m*3 4.47 C 0 km/h
556 22-03-2007 00:00:00 2.25667 C 5.17 g/m*3 2.26 C 0 km/h
557 23-03-2007 00:00:00 3.37333 C 5.31 g/m*3 3.37 C 0 km/h
558 24-03-2007 00:00:00 5.37333 C 6.27 g/m*3 5.37 C 0 km/h
559 25-03-2007 00:00:00 8.58101 C 5.72 g/m*3 8.58 C 0 km/h
560 26-03-2007 00:00:00 14.9957 C 4.93 g/m*3 15 C 0 km/h
561 27-03-2007 00:00:00 11.65 C 4.69 g/m*3 11.65 C 0 km/h
562 28-03-2007 00:00:00 11.65313 C 4.21 g/m*3 11.65 C 0 km/h
563 29-03-2007 00:00:00 9.75 C 5.52 g/m*3 9.75 C 0 km/h
564 30-03-2007 00:00:00 10.73785 C 6.65 g/m*3 10.74 C 0 km/h
565 31-03-2007 00:00:00 10.49618 C 6.1 g/m*3 10.5 C 0 km/h
566 01-04-2007 00:00:00 13.71707 C 4.51 g/m*3 13.72 C 0 km/h
567 02-04-2007 00:00:00 13.59583 C 4.59 g/m*3 13.6 C 0 km/h
568 03-04-2007 00:00:00 8.94861 C 4.81 g/m*3 8.95 C 0 km/h
569 04-04-2007 00:00:00 9.66076 C 3.85 g/m*3 9.66 C 0 km/h
570 05-04-2007 00:00:00 8.81528 C 4.24 g/m*3 8.82 C 0 km/h
571 06-04-2007 00:00:00 12.12431 C 6.2 g/m*3 12.12 C 0 km/h
572 07-04-2007 00:00:00 9.61533 C 5.4 g/m*3 9.62 C 0 km/h
573 08-04-2007 00:00:00 9.79306 C 5.37 g/m*3 9.79 C 0 km/h
574 09-04-2007 00:00:00 11.52465 C 5.47 g/m*3 11.52 C 0 km/h
575 10-04-2007 00:00:00 11.94688 C 6.26 g/m*3 11.95 C 0 km/h
Sensor: Nr:Datum:Temp:Abs-Feuchte:Windchill:Wind:
Aussen-T/F 576 11-04-2007 00:00:00 10.93697 C 6.87 g/m*3 10.94 C 0 km/h
577 12-04-2007 00:00:00 16.75 C 7.24 g/m*3 16.75 C 0 km/h
578 13-04-2007 00:00:00 19.17708 C 8 g/m*3 19.18 C 0 km/h
579 14-04-2007 00:00:00 21.16042 C 7.77 g/m*3 21.16 C 0 km/h
580 15-04-2007 00:00:00 20.80833 C 7.27 g/m*3 20.81 C 0 km/h
581 16-04-2007 00:00:00 19.4375 C 6.62 g/m*3 19.44 C 0 km/h
582 17-04-2007 00:00:00 14.74271 C 6.57 g/m*3 14.74 C 0 km/h
583 18-04-2007 00:00:00 11.07188 C 4.76 g/m*3 11.07 C 0 km/h
584 19-04-2007 00:00:00 11.67188 C 5.25 g/m*3 11.67 C 0 km/h
585 20-04-2007 00:00:00 12.26458 C 4.91 g/m*3 12.26 C 0 km/h
586 21-04-2007 00:00:00 11.89271 C 4.5 g/m*3 11.89 C 0 km/h
587 22-04-2007 00:00:00 15.65729 C 5.54 g/m*3 15.66 C 0 km/h
588 23-04-2007 00:00:00 17.48021 C 6.48 g/m*3 17.48 C 0 km/h
589 24-04-2007 00:00:00 20.85102 C 8.12 g/m*3 20.85 C 0 km/h
590 25-04-2007 00:00:00 22.135 C 8.68 g/m*3 22.14 C 0 km/h
591 26-04-2007 00:00:00 21.16 C 7.81 g/m*3 21.16 C 0 km/h
592 27-04-2007 00:00:00 20.46303 C 7.42 g/m*3 20.46 C 0 km/h
593 28-04-2007 00:00:00 20.92083 C 7.71 g/m*3 20.92 C 0 km/h
594 29-04-2007 00:00:00 19.75583 C 7.1 g/m*3 19.76 C 0 km/h
595 30-04-2007 00:00:00 16.78917 C 4.21 g/m*3 16.79 C 0 km/h
596 01-05-2007 00:00:00 16.47083 C 4.66 g/m*3 16.47 C 0 km/h
597 02-05-2007 00:00:00 16.09167 C 3.81 g/m*3 16.09 C 0 km/h
598 03-05-2007 00:00:00 17.355 C 5.15 g/m*3 17.36 C 0 km/h
599 04-05-2007 00:00:00 18.835 C 5.97 g/m*3 18.84 C 0 km/h
600 05-05-2007 00:00:00 17.5975 C 6.18 g/m*3 17.6 C 0 km/h
Sensor: Nr:Datum:Temp:Abs-Feuchte:Windchill:Wind:
Aussen-T/F 601 06-05-2007 00:00:00 16.51167 C 7.41 g/m*3 16.51 C 0 km/h
602 07-05-2007 00:00:00 15.5625 C 8.64 g/m*3 15.56 C 0 km/h
603 08-05-2007 00:00:00 14.1825 C 7.73 g/m*3 14.18 C 0 km/h
604 09-05-2007 00:00:00 12.76917 C 8.87 g/m*3 12.77 C 0 km/h
605 10-05-2007 00:00:00 17.70667 C 8.53 g/m*3 17.71 C 0 km/h
606 11-05-2007 00:00:00 15.535 C 6.56 g/m*3 15.54 C 0 km/h
607 12-05-2007 00:00:00 15.02689 C 7.96 g/m*3 15.03 C 0 km/h
608 13-05-2007 00:00:00 17.04333 C 8.98 g/m*3 17.04 C 0 km/h
609 14-05-2007 00:00:00 15.98917 C 7.81 g/m*3 15.99 C 0 km/h
610 15-05-2007 00:00:00 13.36917 C 7.46 g/m*3 13.37 C 0 km/h
611 16-05-2007 00:00:00 12.17917 C 7.6 g/m*3 12.18 C 0 km/h
612 17-05-2007 00:00:00 10.8525 C 7.97 g/m*3 10.85 C 0 km/h
613 18-05-2007 00:00:00 14.6325 C 8.23 g/m*3 14.63 C 0 km/h
614 19-05-2007 00:00:00 18.53583 C 10.39 g/m*3 18.54 C 0 km/h
615 20-05-2007 00:00:00 21.92667 C 9.73 g/m*3 21.93 C 0 km/h
616 21-05-2007 00:00:00 22.61667 C 11.44 g/m*3 22.62 C 0 km/h
617 22-05-2007 00:00:00 22.86667 C 11.78 g/m*3 22.87 C 0 km/h
618 23-05-2007 00:00:00 20.8675 C 11.32 g/m*3 20.87 C 0 km/h
619 24-05-2007 00:00:00 23.91417 C 11.42 g/m*3 23.91 C 0 km/h
620 25-05-2007 00:00:00 24.57059 C 11.78 g/m*3 24.57 C 0 km/h
621 26-05-2007 00:00:00 21.745 C 12.71 g/m*3 21.75 C 0 km/h
622 27-05-2007 00:00:00 17.5125 C 9.85 g/m*3 17.51 C 0 km/h
623 28-05-2007 00:00:00 12.24917 C 8.51 g/m*3 12.25 C 0 km/h
624 29-05-2007 00:00:00 11.033 C 7.93 g/m*3 11.03 C 0 km/h
625 30-05-2007 00:00:00 13.67465 C 6.29 g/m*3 13.67 C 0 km/h
Sensor: Nr:Datum:Temp:Abs-Feuchte:Windchill:Wind:
Aussen-T/F 626 31-05-2007 00:00:00 16.05139 C 8.28 g/m*3 16.05 C 0 km/h
627 01-06-2007 00:00:00 15.42361 C 9.57 g/m*3 15.42 C 0 km/h
628 02-06-2007 00:00:00 18.53611 C 9.82 g/m*3 18.54 C 0 km/h
629 03-06-2007 00:00:00 20.87083 C 10.1 g/m*3 20.87 C 0 km/h
630 04-06-2007 00:00:00 22.02361 C 10.59 g/m*3 22.02 C 0 km/h
631 05-06-2007 00:00:00 21.66389 C 10.23 g/m*3 21.66 C 0 km/h
632 06-06-2007 00:00:00 22.53889 C 10.59 g/m*3 22.54 C 0 km/h
633 07-06-2007 00:00:00 25.42222 C 11.36 g/m*3 25.42 C 0 km/h
634 08-06-2007 00:00:00 26.47639 C 11.42 g/m*3 26.48 C 0 km/h
635 09-06-2007 00:00:00 23.12917 C 12.28 g/m*3 23.13 C 0 km/h
636 10-06-2007 00:00:00 21.28889 C 12.55 g/m*3 21.29 C 0 km/h
637 11-06-2007 00:00:00 21.88068 C 11.9 g/m*3 21.88 C 0 km/h
638 12-06-2007 00:00:00 20.17167 C 11.8 g/m*3 20.17 C 0 km/h
639 13-06-2007 00:00:00 21.51176 C 10.38 g/m*3 21.51 C 0 km/h
640 14-06-2007 00:00:00 22.15833 C 12.13 g/m*3 22.16 C 0 km/h
641 15-06-2007 00:00:00 19.84667 C 11.6 g/m*3 19.85 C 0 km/h
642 16-06-2007 00:00:00 18.0125 C 9.3 g/m*3 18.01 C 0 km/h
643 17-06-2007 00:00:00 20.0125 C 9.63 g/m*3 20.01 C 0 km/h
644 18-06-2007 00:00:00 20.92583 C 11.23 g/m*3 20.93 C 0 km/h
645 19-06-2007 00:00:00 23.70833 C 11.18 g/m*3 23.71 C 0 km/h
646 20-06-2007 00:00:00 23.68667 C 12.04 g/m*3 23.69 C 0 km/h
647 21-06-2007 00:00:00 18.30167 C 12.42 g/m*3 18.3 C 0 km/h
648 22-06-2007 00:00:00 16.06417 C 10.95 g/m*3 16.06 C 0 km/h
649 23-06-2007 00:00:00 16.04167 C 10.56 g/m*3 16.04 C 0 km/h
650 24-06-2007 00:00:00 19.31667 C 10.02 g/m*3 19.32 C 0 km/h
Sensor: Nr:Datum:Temp:Abs-Feuchte:Windchill:Wind:
Aussen-T/F 651 25-06-2007 00:00:00 18.13667 C 10.86 g/m*3 18.14 C 0 km/h
652 26-06-2007 00:00:00 13.90667 C 8.35 g/m*3 13.91 C 0 km/h
653 27-06-2007 00:00:00 14.2225 C 6.63 g/m*3 14.22 C 0 km/h
654 28-06-2007 00:00:00 15.82833 C 7.44 g/m*3 15.83 C 0 km/h
655 29-06-2007 00:00:00 16.88417 C 8.32 g/m*3 16.88 C 0 km/h
656 30-06-2007 00:00:00 18.675 C 9.69 g/m*3 18.68 C 0 km/h
657 01-07-2007 00:00:00 20.8525 C 10.65 g/m*3 20.85 C 0 km/h
658 02-07-2007 00:00:00 19.54917 C 10.43 g/m*3 19.55 C 0 km/h
659 03-07-2007 00:00:00 15.42583 C 9.84 g/m*3 15.43 C 0 km/h
660 04-07-2007 00:00:00 15.17417 C 8.93 g/m*3 15.17 C 0 km/h
661 05-07-2007 00:00:00 15.1325 C 9.55 g/m*3 15.13 C 0 km/h
662 06-07-2007 00:00:00 17.63613 C 8.26 g/m*3 17.64 C 0 km/h
663 07-07-2007 00:00:00 18.55167 C 7.14 g/m*3 18.55 C 0 km/h
664 08-07-2007 00:00:00 19.8175 C 8.32 g/m*3 19.82 C 0 km/h
665 09-07-2007 00:00:00 17.15583 C 9.38 g/m*3 17.16 C 0 km/h
666 10-07-2007 00:00:00 14.66583 C 9.37 g/m*3 14.67 C 0 km/h
667 11-07-2007 00:00:00 14.37833 C 9.44 g/m*3 14.38 C 0 km/h
668 12-07-2007 00:00:00 17.7 C 9.66 g/m*3 17.7 C 0 km/h
669 13-07-2007 00:00:00 22.43167 C 11.88 g/m*3 22.43 C 0 km/h
670 14-07-2007 00:00:00 25.05 C 11.69 g/m*3 25.05 C 0 km/h
671 15-07-2007 00:00:00 27.2075 C 11.44 g/m*3 27.21 C 0 km/h
672 16-07-2007 00:00:00 26.8025 C 8.93 g/m*3 26.8 C 0 km/h
673 17-07-2007 00:00:00 25.11167 C 8.56 g/m*3 25.11 C 0 km/h
674 18-07-2007 00:00:00 22.78 C 9.2 g/m*3 22.78 C 0 km/h
675 19-07-2007 00:00:00 20.29333 C 11.02 g/m*3 20.29 C 0 km/h
Sensor: Nr:Datum:Temp:Abs-Feuchte:Windchill:Wind:
Aussen-T/F 676 20-07-2007 00:00:00 22.04917 C 12.14 g/m*3 22.05 C 0 km/h
677 21-07-2007 00:00:00 19.74917 C 9.69 g/m*3 19.75 C 0 km/h
678 22-07-2007 00:00:00 19.89917 C 8.33 g/m*3 19.9 C 0 km/h
679 23-07-2007 00:00:00 16.33333 C 10.14 g/m*3 16.33 C 0 km/h
680 24-07-2007 00:00:00 16.72667 C 9.48 g/m*3 16.73 C 0 km/h
681 25-07-2007 00:00:00 19.68571 C 8.82 g/m*3 19.69 C 0 km/h
682 26-07-2007 00:00:00 21.75583 C 9.38 g/m*3 21.76 C 0 km/h
683 27-07-2007 00:00:00 22.4675 C 8.25 g/m*3 22.47 C 0 km/h
684 28-07-2007 00:00:00 21.095 C 10.2 g/m*3 21.1 C 0 km/h
685 29-07-2007 00:00:00 17.3075 C 9.52 g/m*3 17.31 C 0 km/h
686 30-07-2007 00:00:00 14.66167 C 6.94 g/m*3 14.66 C 0 km/h
687 31-07-2007 00:00:00 15.68167 C 6.71 g/m*3 15.68 C 0 km/h
688 01-08-2007 00:00:00 18.53833 C 7.48 g/m*3 18.54 C 0 km/h
689 02-08-2007 00:00:00 18.3275 C 9.54 g/m*3 18.33 C 0 km/h
690 03-08-2007 00:00:00 19.78083 C 8.92 g/m*3 19.78 C 0 km/h
691 04-08-2007 00:00:00 21.05 C 8.85 g/m*3 21.05 C 0 km/h
692 05-08-2007 00:00:00 23.69833 C 9.12 g/m*3 23.7 C 0 km/h
693 06-08-2007 00:00:00 24.23417 C 9.32 g/m*3 24.23 C 0 km/h
694 07-08-2007 00:00:00 18.36167 C 12.63 g/m*3 18.36 C 0 km/h
695 08-08-2007 00:00:00 16.0175 C 11.01 g/m*3 16.02 C 0 km/h
696 09-08-2007 00:00:00 14.26667 C 11.55 g/m*3 14.27 C 0 km/h
697 10-08-2007 00:00:00 17.82833 C 13.5 g/m*3 17.83 C 0 km/h
698 11-08-2007 00:00:00 19.64083 C 11.07 g/m*3 19.64 C 0 km/h
699 12-08-2007 00:00:00 20.07417 C 10.09 g/m*3 20.07 C 0 km/h
700 13-08-2007 00:00:00 20.9175 C 10.13 g/m*3 20.92 C 0 km/h
Sensor: Nr:Datum:Temp:Abs-Feuchte:Windchill:Wind:
Aussen-T/F 701 14-08-2007 00:00:00 20.9275 C 9.64 g/m*3 20.93 C 0 km/h
702 15-08-2007 00:00:00 23.49917 C 12.92 g/m*3 23.5 C 0 km/h
703 16-08-2007 00:00:00 18.74667 C 10.51 g/m*3 18.75 C 0 km/h
704 17-08-2007 00:00:00 17.27833 C 8.08 g/m*3 17.28 C 0 km/h
705 18-08-2007 00:00:00 17.40917 C 8.03 g/m*3 17.41 C 0 km/h
706 19-08-2007 00:00:00 17.24583 C 9.91 g/m*3 17.25 C 0 km/h
707 20-08-2007 00:00:00 17.315 C 9.7 g/m*3 17.32 C 0 km/h
708 21-08-2007 00:00:00 15.4225 C 10.31 g/m*3 15.42 C 0 km/h
709 22-08-2007 00:00:00 15.95593 C 11.84 g/m*3 15.96 C 0 km/h
710 23-08-2007 00:00:00 17.7575 C 11.98 g/m*3 17.76 C 0 km/h
711 24-08-2007 00:00:00 19.43833 C 11.56 g/m*3 19.44 C 0 km/h
712 25-08-2007 00:00:00 21.42 C 11.91 g/m*3 21.42 C 0 km/h
713 26-08-2007 00:00:00 21.99167 C 12.1 g/m*3 21.99 C 0 km/h
714 27-08-2007 00:00:00 19.53583 C 8.84 g/m*3 19.54 C 0 km/h
715 28-08-2007 00:00:00 16.42167 C 8.1 g/m*3 16.42 C 0 km/h
716 29-08-2007 00:00:00 17.285 C 6.71 g/m*3 17.29 C 0 km/h
717 30-08-2007 00:00:00 15.3675 C 7.01 g/m*3 15.37 C 0 km/h
718 31-08-2007 00:00:00 17.5825 C 9.89 g/m*3 17.58 C 0 km/h
719 01-09-2007 00:00:00 17.1975 C 10.01 g/m*3 17.2 C 0 km/h
720 02-09-2007 00:00:00 17.35583 C 9 g/m*3 17.36 C 0 km/h
721 03-09-2007 00:00:00 15.74917 C 9.08 g/m*3 15.75 C 0 km/h
722 04-09-2007 00:00:00 12.88417 C 7.04 g/m*3 12.88 C 0 km/h
723 05-09-2007 00:00:00 12.6395 C 6.92 g/m*3 12.64 C 0 km/h
724 06-09-2007 00:00:00 15.00917 C 9.43 g/m*3 15.01 C 0 km/h
725 07-09-2007 00:00:00 15.9325 C 9.22 g/m*3 15.93 C 0 km/h
Sensor: Nr:Datum:Temp:Abs-Feuchte:Windchill:Wind:
Aussen-T/F 726 08-09-2007 00:00:00 15.13667 C 10.05 g/m*3 15.14 C 0 km/h
727 09-09-2007 00:00:00 15.125 C 9.17 g/m*3 15.13 C 0 km/h
728 10-09-2007 00:00:00 12.4075 C 8.68 g/m*3 12.41 C 0 km/h
729 11-09-2007 00:00:00 14.36833 C 8.61 g/m*3 14.37 C 0 km/h
730 12-09-2007 00:00:00 14.94417 C 8.54 g/m*3 14.94 C 0 km/h
731 13-09-2007 00:00:00 14.5175 C 8.49 g/m*3 14.52 C 0 km/h
732 14-09-2007 00:00:00 15.68417 C 8.62 g/m*3 15.68 C 0 km/h
733 15-09-2007 00:00:00 16.86917 C 8.24 g/m*3 16.87 C 0 km/h
734 16-09-2007 00:00:00 15.27 C 8.22 g/m*3 15.27 C 0 km/h
735 17-09-2007 00:00:00 16.68833 C 10.1 g/m*3 16.69 C 0 km/h
736 18-09-2007 00:00:00 11.46833 C 8.27 g/m*3 11.47 C 0 km/h
737 19-09-2007 00:00:00 10.3275 C 6.41 g/m*3 10.33 C 0 km/h
738 20-09-2007 00:00:00 13.68083 C 7.03 g/m*3 13.68 C 0 km/h
739 21-09-2007 00:00:00 14.35833 C 7.71 g/m*3 14.36 C 0 km/h
740 22-09-2007 00:00:00 15.97583 C 8.74 g/m*3 15.98 C 0 km/h
741 23-09-2007 00:00:00 17.80333 C 9.5 g/m*3 17.8 C 0 km/h
742 24-09-2007 00:00:00 16.95833 C 9.49 g/m*3 16.96 C 0 km/h
743 25-09-2007 00:00:00 12.91917 C 7.71 g/m*3 12.92 C 0 km/h
744 26-09-2007 00:00:00 12.2675 C 7.86 g/m*3 12.27 C 0 km/h
745 27-09-2007 00:00:00 10.19083 C 8.85 g/m*3 10.19 C 0 km/h
746 28-09-2007 00:00:00 12.50168 C 8.71 g/m*3 12.5 C 0 km/h
747 29-09-2007 00:00:00 13.54444 C 8.6 g/m*3 13.54 C 0 km/h
748 30-09-2007 00:00:00 14.59687 C 9.12 g/m*3 14.6 C 0 km/h
749 01-10-2007 00:00:00 14.70313 C 9.71 g/m*3 14.7 C 0 km/h
750 02-10-2007 00:00:00 17.235 C 11.49 g/m*3 17.24 C 0 km/h
Sensor: Nr:Datum:Temp:Abs-Feuchte:Windchill:Wind:
Aussen-T/F 751 03-10-2007 00:00:00 17.39188 C 11.47 g/m*3 17.39 C 0 km/h
752 04-10-2007 00:00:00 17.33653 C 11.53 g/m*3 17.34 C 0 km/h
753 05-10-2007 00:00:00 15.50646 C 8.72 g/m*3 15.51 C 0 km/h
754 06-10-2007 00:00:00 12.34042 C 7.59 g/m*3 12.34 C 0 km/h
755 07-10-2007 00:00:00 11.60813 C 7.69 g/m*3 11.61 C 0 km/h
756 08-10-2007 00:00:00 10.74021 C 7.53 g/m*3 10.74 C 0 km/h
757 09-10-2007 00:00:00 12.05052 C 8.1 g/m*3 12.05 C 0 km/h
758 10-10-2007 00:00:00 14.53875 C 8.04 g/m*3 14.54 C 0 km/h
759 11-10-2007 00:00:00 11.52958 C 7.34 g/m*3 11.53 C 0 km/h
760 12-10-2007 00:00:00 12.23271 C 8.24 g/m*3 12.23 C 0 km/h
761 13-10-2007 00:00:00 13.96146 C 7.82 g/m*3 13.96 C 0 km/h
762 14-10-2007 00:00:00 9.94958 C 6.47 g/m*3 9.95 C 0 km/h
763 15-10-2007 00:00:00 10.725 C 7.35 g/m*3 10.73 C 0 km/h
764 16-10-2007 00:00:00 13.70417 C 8.35 g/m*3 13.7 C 0 km/h
765 17-10-2007 00:00:00 11.78601 C 8.39 g/m*3 11.79 C 0 km/h
766 18-10-2007 00:00:00 9.70042 C 6.45 g/m*3 9.7 C 0 km/h
767 19-10-2007 00:00:00 7.65667 C 6.17 g/m*3 7.66 C 0 km/h
768 20-10-2007 00:00:00 3.38583 C 5.54 g/m*3 3.39 C 0 km/h
769 24-10-2007 00:00:00 7.63803 C 5.69 g/m*3 7.64 C 0 km/h
770 25-10-2007 00:00:00 8.51042 C 6.26 g/m*3 8.51 C 0 km/h
771 26-10-2007 00:00:00 8.8712 C 6.03 g/m*3 8.87 C 0 km/h
772 27-10-2007 00:00:00 8.5725 C 5.85 g/m*3 8.57 C 0 km/h
773 28-10-2007 00:00:00 9.1632 C 5.9 g/m*3 9.16 C 0 km/h
774 29-10-2007 00:00:00 8.77833 C 7.07 g/m*3 8.78 C 0 km/h
775 30-10-2007 00:00:00 8.70333 C 7.3 g/m*3 8.7 C 0 km/h
Sensor: Nr:Datum:Temp:Abs-Feuchte:Windchill:Wind:
Aussen-T/F 776 31-10-2007 00:00:00 6.43333 C 6.44 g/m*3 6.43 C 0 km/h
777 01-11-2007 00:00:00 5.77833 C 6.04 g/m*3 5.78 C 0 km/h
778 02-11-2007 00:00:00 10.20333 C 8.52 g/m*3 10.2 C 0 km/h
779 03-11-2007 00:00:00 11.76723 C 9.64 g/m*3 11.77 C 0 km/h
780 04-11-2007 00:00:00 10.35 C 6.84 g/m*3 10.35 C 0 km/h
781 05-11-2007 00:00:00 8.61333 C 5.38 g/m*3 8.61 C 0 km/h
782 06-11-2007 00:00:00 8.1225 C 5.88 g/m*3 8.12 C 0 km/h
783 07-11-2007 00:00:00 8.495 C 6.13 g/m*3 8.49 C 0 km/h
784 08-11-2007 00:00:00 9.85667 C 7.21 g/m*3 9.86 C 0 km/h
785 09-11-2007 00:00:00 5.16167 C 5.11 g/m*3 5.16 C 0 km/h
786 10-11-2007 00:00:00 6.29083 C 5.92 g/m*3 6.29 C 0 km/h
787 11-11-2007 00:00:00 7.75917 C 6.67 g/m*3 7.76 C 0 km/h
788 12-11-2007 00:00:00 5.1475 C 4.79 g/m*3 5.15 C 0 km/h
789 13-11-2007 00:00:00 3.98167 C 5.14 g/m*3 3.98 C 0 km/h
790 14-11-2007 00:00:00 2.72417 C 4.37 g/m*3 2.72 C 0 km/h
791 15-11-2007 00:00:00 1.3425 C 3.82 g/m*3 1.34 C 0 km/h
792 16-11-2007 00:00:00 -0.59167 C 3.84 g/m*3 -0.59 C 0 km/h
793 17-11-2007 00:00:00 3.35714 C 4.68 g/m*3 3.36 C 0 km/h
794 18-11-2007 00:00:00 3.3825 C 4.91 g/m*3 3.38 C 0 km/h
795 19-11-2007 00:00:00 2.57333 C 4.34 g/m*3 2.57 C 0 km/h
796 20-11-2007 00:00:00 5.33 C 4.59 g/m*3 5.33 C 0 km/h
797 21-11-2007 00:00:00 6.755 C 5.66 g/m*3 6.76 C 0 km/h
798 22-11-2007 00:00:00 7.93917 C 6.65 g/m*3 7.94 C 0 km/h
799 23-11-2007 00:00:00 6.7275 C 6.81 g/m*3 6.73 C 0 km/h
800 24-11-2007 00:00:00 2.76833 C 4.82 g/m*3 2.77 C 0 km/h
Sensor: Nr:Datum:Temp:Abs-Feuchte:Windchill:Wind:
Aussen-T/F 801 25-11-2007 00:00:00 4.25167 C 5.29 g/m*3 4.25 C 0 km/h
802 26-11-2007 00:00:00 3.9725 C 4.66 g/m*3 3.97 C 0 km/h
803 27-11-2007 00:00:00 4.23833 C 4.68 g/m*3 4.24 C 0 km/h
804 28-11-2007 00:00:00 0.0625 C 4.32 g/m*3 0.06 C 0 km/h
805 29-11-2007 00:00:00 1.3325 C 4.59 g/m*3 1.33 C 0 km/h
806 30-11-2007 00:00:00 5.76 C 5.7 g/m*3 5.76 C 0 km/h
807 01-12-2007 00:00:00 8.51345 C 5.82 g/m*3 8.51 C 0 km/h
808 02-12-2007 00:00:00 9.13667 C 6.27 g/m*3 9.14 C 0 km/h
809 03-12-2007 00:00:00 7.21167 C 4.97 g/m*3 7.21 C 0 km/h
810 04-12-2007 00:00:00 5.77583 C 5.61 g/m*3 5.78 C 0 km/h
811 05-12-2007 00:00:00 10.11667 C 7.2 g/m*3 10.12 C 0 km/h
812 06-12-2007 00:00:00 9.85667 C 6.67 g/m*3 9.86 C 0 km/h
813 07-12-2007 00:00:00 10.3625 C 6.09 g/m*3 10.36 C 0 km/h
814 08-12-2007 00:00:00 5.77917 C 4.69 g/m*3 5.78 C 0 km/h
815 09-12-2007 00:00:00 7.00333 C 5.75 g/m*3 7 C 0 km/h
816 10-12-2007 00:00:00 6.24167 C 6.16 g/m*3 6.24 C 0 km/h
817 11-12-2007 00:00:00 5.6775 C 5.39 g/m*3 5.68 C 0 km/h
818 12-12-2007 00:00:00 4.92417 C 5 g/m*3 4.92 C 0 km/h
819 13-12-2007 00:00:00 5.2125 C 4.36 g/m*3 5.21 C 0 km/h
820 14-12-2007 00:00:00 2.35798 C 2.96 g/m*3 2.36 C 0 km/h
821 15-12-2007 00:00:00 0.0325 C 2.86 g/m*3 0.03 C 0 km/h
822 16-12-2007 00:00:00 -2.92417 C 2.98 g/m*3 -2.92 C 0 km/h
823 17-12-2007 00:00:00 -1.06 C 2.85 g/m*3 -1.06 C 0 km/h
824 18-12-2007 00:00:00 -2.50833 C 3.14 g/m*3 -2.51 C 0 km/h
825 19-12-2007 00:00:00 -3.8675 C 3.09 g/m*3 -3.87 C 0 km/h
Sensor: Nr:Datum:Temp:Abs-Feuchte:Windchill:Wind:
Aussen-T/F 826 20-12-2007 00:00:00 -5.26417 C 2.9 g/m*3 -5.26 C 0 km/h
827 21-12-2007 00:00:00 -5.9625 C 2.72 g/m*3 -5.96 C 0 km/h
828 22-12-2007 00:00:00 -7.21833 C 2.43 g/m*3 -7.22 C 0 km/h
829 23-12-2007 00:00:00 -5.47333 C 2.81 g/m*3 -5.47 C 0 km/h
830 24-12-2007 00:00:00 -1.28333 C 4.01 g/m*3 -1.28 C 0 km/h
831 25-12-2007 00:00:00 -3.13917 C 3.2 g/m*3 -3.14 C 0 km/h
832 26-12-2007 00:00:00 -1.31513 C 3.83 g/m*3 -1.32 C 0 km/h
833 27-12-2007 00:00:00 2.63917 C 4.81 g/m*3 2.64 C 0 km/h
834 28-12-2007 00:00:00 4.575 C 5.27 g/m*3 4.58 C 0 km/h
835 29-12-2007 00:00:00 3.32667 C 4.84 g/m*3 3.33 C 0 km/h
836 30-12-2007 00:00:00 4.99167 C 5.24 g/m*3 4.99 C 0 km/h
837 31-12-2007 00:00:00 3.21667 C 5.19 g/m*3 3.22 C 0 km/h
838 01-01-2008 00:00:00 1.85083 C 4.52 g/m*3 1.85 C 0 km/h
839 02-01-2008 00:00:00 -1.72 C 3.21 g/m*3 -1.72 C 0 km/h
840 03-01-2008 00:00:00 -0.05667 C 2.87 g/m*3 -0.06 C 0 km/h
841 04-01-2008 00:00:00 0.27167 C 3.34 g/m*3 0.27 C 0 km/h
842 05-01-2008 00:00:00 5.0775 C 5.63 g/m*3 5.08 C 0 km/h
843 06-01-2008 00:00:00 3.95167 C 5.23 g/m*3 3.95 C 0 km/h
844 07-01-2008 00:00:00 5.63583 C 5.3 g/m*3 5.64 C 0 km/h
845 08-01-2008 00:00:00 4.45546 C 5.42 g/m*3 4.46 C 0 km/h
846 09-01-2008 00:00:00 4.03167 C 5.39 g/m*3 4.03 C 0 km/h
847 10-01-2008 00:00:00 6.32083 C 5.48 g/m*3 6.32 C 0 km/h
848 11-01-2008 00:00:00 9.6175 C 5.87 g/m*3 9.62 C 0 km/h
849 12-01-2008 00:00:00 6.39 C 5.01 g/m*3 6.39 C 0 km/h
850 13-01-2008 00:00:00 0.58167 C 4.26 g/m*3 0.58 C 0 km/h
Sensor: Nr:Datum:Temp:Abs-Feuchte:Windchill:Wind:
Aussen-T/F 851 14-01-2008 00:00:00 3.80833 C 4.9 g/m*3 3.81 C 0 km/h
852 15-01-2008 00:00:00 8.28833 C 5.12 g/m*3 8.29 C 0 km/h
853 16-01-2008 00:00:00 8.28667 C 5.35 g/m*3 8.29 C 0 km/h
854 17-01-2008 00:00:00 7.21833 C 5.52 g/m*3 7.22 C 0 km/h
855 18-01-2008 00:00:00 9.17667 C 6.31 g/m*3 9.18 C 0 km/h
856 19-01-2008 00:00:00 12.72353 C 7.44 g/m*3 12.72 C 0 km/h
857 20-01-2008 00:00:00 12.27333 C 6.9 g/m*3 12.27 C 0 km/h
858 21-01-2008 00:00:00 10.17403 C 5.8 g/m*3 10.17 C 0 km/h
859 22-01-2008 00:00:00 4.58605 C 4.01 g/m*3 4.59 C 0 km/h
860 23-01-2008 00:00:00 2.9125 C 3.92 g/m*3 2.91 C 0 km/h
861 24-01-2008 00:00:00 6.355 C 4.65 g/m*3 6.36 C 0 km/h
862 25-01-2008 00:00:00 3.72583 C 4.34 g/m*3 3.73 C 0 km/h
863 26-01-2008 00:00:00 5.43583 C 4.26 g/m*3 5.44 C 0 km/h
864 27-01-2008 00:00:00 5.64333 C 4.29 g/m*3 5.64 C 0 km/h
865 28-01-2008 00:00:00 7.44 C 5.19 g/m*3 7.44 C 0 km/h
866 29-01-2008 00:00:00 5.72167 C 4.29 g/m*3 5.72 C 0 km/h
867 30-01-2008 00:00:00 2.05833 C 4.71 g/m*3 2.06 C 0 km/h
868 31-01-2008 00:00:00 2.0958 C 3.82 g/m*3 2.1 C 0 km/h
869 01-02-2008 00:00:00 4.10167 C 4.83 g/m*3 4.1 C 0 km/h
870 02-02-2008 00:00:00 2.155 C 3.64 g/m*3 2.15 C 0 km/h
871 03-02-2008 00:00:00 0.64917 C 3.2 g/m*3 0.65 C 0 km/h
872 04-02-2008 00:00:00 4.5125 C 4.25 g/m*3 4.51 C 0 km/h
873 05-02-2008 00:00:00 6.43917 C 5.11 g/m*3 6.44 C 0 km/h
874 06-02-2008 00:00:00 8.675 C 5.72 g/m*3 8.68 C 0 km/h
875 07-02-2008 00:00:00 3.96333 C 4.24 g/m*3 3.96 C 0 km/h
Sensor: Nr:Datum:Temp:Abs-Feuchte:Windchill:Wind:
Aussen-T/F 876 08-02-2008 00:00:00 2.41167 C 3.87 g/m*3 2.41 C 0 km/h
877 09-02-2008 00:00:00 2.61833 C 3.61 g/m*3 2.62 C 0 km/h
878 10-02-2008 00:00:00 2.41333 C 3.74 g/m*3 2.41 C 0 km/h
879 11-02-2008 00:00:00 3.10083 C 4.4 g/m*3 3.1 C 0 km/h
880 12-02-2008 00:00:00 2.92667 C 4.49 g/m*3 2.93 C 0 km/h
881 13-02-2008 00:00:00 2.03193 C 4.33 g/m*3 2.03 C 0 km/h
882 14-02-2008 00:00:00 0.96667 C 4.4 g/m*3 0.97 C 0 km/h
883 15-02-2008 00:00:00 2.4125 C 3.13 g/m*3 2.41 C 0 km/h
884 16-02-2008 00:00:00 -0.75333 C 2.03 g/m*3 -0.75 C 0 km/h
885 17-02-2008 00:00:00 -1.21667 C 2.05 g/m*3 -1.22 C 0 km/h
886 18-02-2008 00:00:00 -0.28333 C 2.13 g/m*3 -0.28 C 0 km/h
887 19-02-2008 00:00:00 0.85417 C 2.54 g/m*3 0.85 C 0 km/h
888 20-02-2008 00:00:00 1.65 C 4.49 g/m*3 1.65 C 0 km/h
889 21-02-2008 00:00:00 6.5725 C 5.76 g/m*3 6.57 C 0 km/h
890 22-02-2008 00:00:00 9.70667 C 5.88 g/m*3 9.71 C 0 km/h
891 23-02-2008 00:00:00 9.48833 C 5.6 g/m*3 9.49 C 0 km/h
892 24-02-2008 00:00:00 6.65583 C 5.66 g/m*3 6.66 C 0 km/h
893 25-02-2008 00:00:00 9.93833 C 6.06 g/m*3 9.94 C 0 km/h
894 26-02-2008 00:00:00 11.1075 C 6.49 g/m*3 11.11 C 0 km/h
895 27-02-2008 00:00:00 7.70168 C 4.44 g/m*3 7.7 C 0 km/h
896 28-02-2008 00:00:00 7.6125 C 4.89 g/m*3 7.61 C 0 km/h
897 29-02-2008 00:00:00 8.7625 C 7.16 g/m*3 8.76 C 0 km/h
898 01-03-2008 00:00:00 9.4675 C 4.85 g/m*3 9.47 C 0 km/h
899 02-03-2008 00:00:00 11.1725 C 5.33 g/m*3 11.17 C 0 km/h
900 03-03-2008 00:00:00 7.56583 C 4.08 g/m*3 7.57 C 0 km/h
Sensor: Nr:Datum:Temp:Abs-Feuchte:Windchill:Wind:
Aussen-T/F 901 04-03-2008 00:00:00 2.7525 C 4.06 g/m*3 2.75 C 0 km/h
902 05-03-2008 00:00:00 1.71 C 3.03 g/m*3 1.71 C 0 km/h
903 06-03-2008 00:00:00 2.81917 C 2.99 g/m*3 2.82 C 0 km/h
904 07-03-2008 00:00:00 6.93833 C 4.72 g/m*3 6.94 C 0 km/h
905 08-03-2008 00:00:00 6.94667 C 4.5 g/m*3 6.95 C 0 km/h
906 09-03-2008 00:00:00 8.06667 C 4.11 g/m*3 8.07 C 0 km/h
907 10-03-2008 00:00:00 8.22941 C 4.32 g/m*3 8.23 C 0 km/h
908 11-03-2008 00:00:00 8.355 C 5.31 g/m*3 8.36 C 0 km/h
909 12-03-2008 00:00:00 9.11833 C 4.2 g/m*3 9.12 C 0 km/h
910 13-03-2008 00:00:00 7.62667 C 4.06 g/m*3 7.63 C 0 km/h
911 14-03-2008 00:00:00 9.14417 C 5.77 g/m*3 9.14 C 0 km/h
912 15-03-2008 00:00:00 9.33 C 5.42 g/m*3 9.33 C 0 km/h
913 16-03-2008 00:00:00 9.8675 C 6.68 g/m*3 9.87 C 0 km/h
914 17-03-2008 00:00:00 5.94583 C 3.99 g/m*3 5.95 C 0 km/h
915 18-03-2008 00:00:00 4.26083 C 3.07 g/m*3 4.26 C 0 km/h
916 19-03-2008 00:00:00 3.37083 C 3.9 g/m*3 3.37 C 0 km/h
917 20-03-2008 00:00:00 3.89083 C 4.07 g/m*3 3.89 C 0 km/h
918 21-03-2008 00:00:00 3.9975 C 4.22 g/m*3 4 C 0 km/h
919 22-03-2008 00:00:00 2.82917 C 4.71 g/m*3 2.83 C 0 km/h
920 23-03-2008 00:00:00 1.56639 C 2.31 g/m*3 1.57 C 0 km/h
921 24-03-2008 00:00:00 -0.00917 C 3.2 g/m*3 -0.01 C 0 km/h
922 25-03-2008 00:00:00 1.51333 C 3.09 g/m*3 1.51 C 0 km/h
923 26-03-2008 00:00:00 2.39667 C 4.29 g/m*3 2.4 C 0 km/h
924 27-03-2008 00:00:00 5.29417 C 5.44 g/m*3 5.29 C 0 km/h
925 28-03-2008 00:00:00 8.15333 C 4.14 g/m*3 8.15 C 0 km/h
Sensor: Nr:Datum:Temp:Abs-Feuchte:Windchill:Wind:
Aussen-T/F 926 29-03-2008 00:00:00 9.55083 C 3.95 g/m*3 9.55 C 0 km/h
927 30-03-2008 00:00:00 13.03217 C 4.01 g/m*3 13.03 C 0 km/h
928 31-03-2008 00:00:00 11.98333 C 5.6 g/m*3 11.98 C 0 km/h
929 01-04-2008 00:00:00 10.06833 C 5.37 g/m*3 10.07 C 0 km/h
930 02-04-2008 00:00:00 9.77417 C 5.52 g/m*3 9.77 C 0 km/h
931 03-04-2008 00:00:00 7.48 C 5.75 g/m*3 7.48 C 0 km/h
932 04-04-2008 00:00:00 9.15583 C 5.79 g/m*3 9.16 C 0 km/h
933 05-04-2008 00:00:00 7.49076 C 6.73 g/m*3 7.49 C 0 km/h
934 06-04-2008 00:00:00 3.825 C 5.64 g/m*3 3.83 C 0 km/h
935 07-04-2008 00:00:00 1.36917 C 4.88 g/m*3 1.37 C 0 km/h
936 08-04-2008 00:00:00 3.57833 C 4.72 g/m*3 3.58 C 0 km/h
937 09-04-2008 00:00:00 5.82833 C 5.5 g/m*3 5.83 C 0 km/h
938 10-04-2008 00:00:00 8.76917 C 5.74 g/m*3 8.77 C 0 km/h
939 11-04-2008 00:00:00 8.235 C 6.34 g/m*3 8.24 C 0 km/h
940 12-04-2008 00:00:00 8.02 C 5.41 g/m*3 8.02 C 0 km/h
941 13-04-2008 00:00:00 9.70833 C 6.56 g/m*3 9.71 C 0 km/h
942 14-04-2008 00:00:00 7.63083 C 6.9 g/m*3 7.63 C 0 km/h
943 15-04-2008 00:00:00 6.56083 C 5.99 g/m*3 6.56 C 0 km/h
944 16-04-2008 00:00:00 6.30083 C 4.78 g/m*3 6.3 C 0 km/h
945 17-04-2008 00:00:00 6.47227 C 4.04 g/m*3 6.47 C 0 km/h
946 18-04-2008 00:00:00 9.94 C 4.58 g/m*3 9.94 C 0 km/h
947 19-04-2008 00:00:00 8.41667 C 6.18 g/m*3 8.42 C 0 km/h
948 20-04-2008 00:00:00 12.42417 C 7.14 g/m*3 12.42 C 0 km/h
949 21-04-2008 00:00:00 12.98833 C 6.29 g/m*3 12.99 C 0 km/h
950 22-04-2008 00:00:00 12.95917 C 5.98 g/m*3 12.96 C 0 km/h
Sensor: Nr:Datum:Temp:Abs-Feuchte:Windchill:Wind:
Aussen-T/F 951 23-04-2008 00:00:00 13.95083 C 6.27 g/m*3 13.95 C 0 km/h
952 24-04-2008 00:00:00 15.095 C 7.14 g/m*3 15.1 C 0 km/h
953 25-04-2008 00:00:00 12.67583 C 6.12 g/m*3 12.68 C 0 km/h
954 26-04-2008 00:00:00 14.51833 C 6.16 g/m*3 14.52 C 0 km/h
955 27-04-2008 00:00:00 15.87667 C 5.79 g/m*3 15.88 C 0 km/h
956 28-04-2008 00:00:00 13.4125 C 8.14 g/m*3 13.41 C 0 km/h
957 29-04-2008 00:00:00 13.07667 C 6.39 g/m*3 13.08 C 0 km/h
958 30-04-2008 00:00:00 13.76639 C 5.33 g/m*3 13.77 C 0 km/h
959 01-05-2008 00:00:00 11.62583 C 5.8 g/m*3 11.63 C 0 km/h
960 02-05-2008 00:00:00 12.97583 C 6.28 g/m*3 12.98 C 0 km/h
961 03-05-2008 00:00:00 14.47667 C 6.5 g/m*3 14.48 C 0 km/h
962 04-05-2008 00:00:00 17.15667 C 5.91 g/m*3 17.16 C 0 km/h
963 05-05-2008 00:00:00 16.51 C 5.51 g/m*3 16.51 C 0 km/h
964 06-05-2008 00:00:00 18.36833 C 7.67 g/m*3 18.37 C 0 km/h
965 07-05-2008 00:00:00 19.48083 C 7 g/m*3 19.48 C 0 km/h
966 08-05-2008 00:00:00 19.40583 C 6.98 g/m*3 19.41 C 0 km/h
967 09-05-2008 00:00:00 20.20083 C 7.05 g/m*3 20.2 C 0 km/h
968 10-05-2008 00:00:00 21.22917 C 7.16 g/m*3 21.23 C 0 km/h
969 11-05-2008 00:00:00 21.15714 C 6.43 g/m*3 21.16 C 0 km/h
970 12-05-2008 00:00:00 21.02017 C 6.74 g/m*3 21.02 C 0 km/h
971 13-05-2008 00:00:00 21.3175 C 7.09 g/m*3 21.32 C 0 km/h
972 14-05-2008 00:00:00 21.27167 C 7.79 g/m*3 21.27 C 0 km/h
973 15-05-2008 00:00:00 18.93333 C 8.92 g/m*3 18.93 C 0 km/h
974 16-05-2008 00:00:00 18.3725 C 9.69 g/m*3 18.37 C 0 km/h
975 17-05-2008 00:00:00 17.11167 C 10.03 g/m*3 17.11 C 0 km/h
Sensor: Nr:Datum:Temp:Abs-Feuchte:Windchill:Wind:
Aussen-T/F 976 18-05-2008 00:00:00 14.09583 C 8.38 g/m*3 14.1 C 0 km/h
977 19-05-2008 00:00:00 14.61833 C 5.61 g/m*3 14.62 C 0 km/h
978 20-05-2008 00:00:00 15.59417 C 4.92 g/m*3 15.59 C 0 km/h
979 21-05-2008 00:00:00 16.93833 C 4.74 g/m*3 16.94 C 0 km/h
980 22-05-2008 00:00:00 18.32417 C 5.49 g/m*3 18.32 C 0 km/h
981 23-05-2008 00:00:00 19.045 C 6.46 g/m*3 19.05 C 0 km/h
982 24-05-2008 00:00:00 18.23 C 7.82 g/m*3 18.23 C 0 km/h
983 25-05-2008 00:00:00 21.65462 C 9.39 g/m*3 21.65 C 0 km/h
984 26-05-2008 00:00:00 21.2775 C 11.27 g/m*3 21.28 C 0 km/h
985 27-05-2008 00:00:00 22.17167 C 12.27 g/m*3 22.17 C 0 km/h
986 28-05-2008 00:00:00 23.79417 C 10.23 g/m*3 23.79 C 0 km/h
987 29-05-2008 00:00:00 23.08917 C 11.47 g/m*3 23.09 C 0 km/h
988 30-05-2008 00:00:00 20.37 C 13.32 g/m*3 20.37 C 0 km/h
989 31-05-2008 00:00:00 17.68917 C 12.05 g/m*3 17.69 C 0 km/h
990 01-06-2008 00:00:00 21.38917 C 11.64 g/m*3 21.39 C 0 km/h
991 02-06-2008 00:00:00 23.66833 C 12.72 g/m*3 23.67 C 0 km/h
992 03-06-2008 00:00:00 21.2825 C 11.09 g/m*3 21.28 C 0 km/h
993 04-06-2008 00:00:00 19.19833 C 11.48 g/m*3 19.2 C 0 km/h
994 05-06-2008 00:00:00 20.67731 C 12.57 g/m*3 20.68 C 0 km/h
995 06-06-2008 00:00:00 21.07333 C 10.91 g/m*3 21.07 C 0 km/h
996 07-06-2008 00:00:00 19.84417 C 10.51 g/m*3 19.84 C 0 km/h
997 08-06-2008 00:00:00 20.63167 C 10.52 g/m*3 20.63 C 0 km/h
998 09-06-2008 00:00:00 22.875 C 10.01 g/m*3 22.88 C 0 km/h
999 10-06-2008 00:00:00 23.51583 C 9.23 g/m*3 23.52 C 0 km/h
1000 11-06-2008 00:00:00 18.4725 C 7.23 g/m*3 18.47 C 0 km/h
Sensor: Nr:Datum:Temp:Abs-Feuchte:Windchill:Wind:
Aussen-T/F 1001 12-06-2008 00:00:00 12.7425 C 7.69 g/m*3 12.74 C 0 km/h
1002 13-06-2008 00:00:00 13.67167 C 7.09 g/m*3 13.67 C 0 km/h
1003 14-06-2008 00:00:00 13.75917 C 7.2 g/m*3 13.76 C 0 km/h
1004 15-06-2008 00:00:00 13.75333 C 8.27 g/m*3 13.75 C 0 km/h
1005 16-06-2008 00:00:00 16.2275 C 7.7 g/m*3 16.23 C 0 km/h
1006 17-06-2008 00:00:00 17.34333 C 7.29 g/m*3 17.34 C 0 km/h
1007 18-06-2008 00:00:00 20.30583 C 7.89 g/m*3 20.31 C 0 km/h
1008 19-06-2008 00:00:00 20.67417 C 8.05 g/m*3 20.67 C 0 km/h
1009 20-06-2008 00:00:00 18.32 C 8.63 g/m*3 18.32 C 0 km/h
1010 21-06-2008 00:00:00 23.24706 C 9.11 g/m*3 23.25 C 0 km/h
1011 22-06-2008 00:00:00 24.30833 C 11.76 g/m*3 24.31 C 0 km/h
1012 23-06-2008 00:00:00 22.40417 C 8.41 g/m*3 22.4 C 0 km/h
1013 24-06-2008 00:00:00 23.6325 C 8.33 g/m*3 23.63 C 0 km/h
1014 25-06-2008 00:00:00 22.66833 C 12.11 g/m*3 22.67 C 0 km/h
1015 26-06-2008 00:00:00 20.39833 C 8.44 g/m*3 20.4 C 0 km/h
1016 27-06-2008 00:00:00 18.72167 C 8.67 g/m*3 18.72 C 0 km/h
1017 28-06-2008 00:00:00 21.21 C 9.93 g/m*3 21.21 C 0 km/h
1018 29-06-2008 00:00:00 22.68667 C 9.85 g/m*3 22.69 C 0 km/h
1019 30-06-2008 00:00:00 22.95083 C 8.73 g/m*3 22.95 C 0 km/h
1020 01-07-2008 00:00:00 24.35583 C 9.2 g/m*3 24.36 C 0 km/h
1021 02-07-2008 00:00:00 26.47583 C 10.39 g/m*3 26.48 C 0 km/h
1022 03-07-2008 00:00:00 20.18992 C 12.77 g/m*3 20.19 C 0 km/h
1023 04-07-2008 00:00:00 19.38083 C 9.22 g/m*3 19.38 C 0 km/h
1024 05-07-2008 00:00:00 21.0575 C 8.87 g/m*3 21.06 C 0 km/h
1025 06-07-2008 00:00:00 21.2225 C 8.99 g/m*3 21.22 C 0 km/h
Sensor: Nr:Datum:Temp:Abs-Feuchte:Windchill:Wind:
Aussen-T/F 1026 07-07-2008 00:00:00 18.24917 C 8.13 g/m*3 18.25 C 0 km/h
1027 08-07-2008 00:00:00 17.2125 C 8.69 g/m*3 17.21 C 0 km/h
1028 09-07-2008 00:00:00 17.0525 C 8.83 g/m*3 17.05 C 0 km/h
1029 10-07-2008 00:00:00 22.32833 C 10.77 g/m*3 22.33 C 0 km/h
1030 11-07-2008 00:00:00 20.48167 C 11.17 g/m*3 20.48 C 0 km/h
1031 12-07-2008 00:00:00 17.645 C 9.92 g/m*3 17.65 C 0 km/h
1032 13-07-2008 00:00:00 17.8375 C 8.02 g/m*3 17.84 C 0 km/h
1033 14-07-2008 00:00:00 18.38 C 7.76 g/m*3 18.38 C 0 km/h
1034 15-07-2008 00:00:00 19.61978 C 8.34 g/m*3 19.62 C 0 km/h
1035 16-07-2008 00:00:00 20.38298 C 10.82 g/m*3 20.38 C 0 km/h
1036 17-07-2008 00:00:00 17.22917 C 8.94 g/m*3 17.23 C 0 km/h
1037 18-07-2008 00:00:00 16.58125 C 9.74 g/m*3 16.58 C 0 km/h
1038 19-07-2008 00:00:00 19.61667 C 9.94 g/m*3 19.62 C 0 km/h
1039 20-07-2008 00:00:00 15.48542 C 9.13 g/m*3 15.49 C 0 km/h
1040 21-07-2008 00:00:00 12.62917 C 8.41 g/m*3 12.63 C 0 km/h
1041 22-07-2008 00:00:00 14.56042 C 9.4 g/m*3 14.56 C 0 km/h
1042 23-07-2008 00:00:00 18.94375 C 9.57 g/m*3 18.94 C 0 km/h
1043 24-07-2008 00:00:00 22.13958 C 9.31 g/m*3 22.14 C 0 km/h
1044 25-07-2008 00:00:00 24.55625 C 9.56 g/m*3 24.56 C 0 km/h
1045 26-07-2008 00:00:00 23.54792 C 12.42 g/m*3 23.55 C 0 km/h
1046 27-07-2008 00:00:00 23.20625 C 13.92 g/m*3 23.21 C 0 km/h
1047 28-07-2008 00:00:00 25.10833 C 12.45 g/m*3 25.11 C 0 km/h
1048 29-07-2008 00:00:00 24.49792 C 12.1 g/m*3 24.5 C 0 km/h
1049 30-07-2008 00:00:00 23.67292 C 12.74 g/m*3 23.67 C 0 km/h
1050 31-07-2008 00:00:00 24.69792 C 13.38 g/m*3 24.7 C 0 km/h
Sensor: Nr:Datum:Temp:Abs-Feuchte:Windchill:Wind:
Aussen-T/F 1051 01-08-2008 00:00:00 24.97917 C 10.83 g/m*3 24.98 C 0 km/h
1052 02-08-2008 00:00:00 21.29792 C 9.43 g/m*3 21.3 C 0 km/h
1053 03-08-2008 00:00:00 23.42561 C 10.97 g/m*3 23.43 C 0 km/h
1054 04-08-2008 00:00:00 21.85083 C 10.01 g/m*3 21.85 C 0 km/h
1055 05-08-2008 00:00:00 20.3125 C 8.72 g/m*3 20.31 C 0 km/h
1056 06-08-2008 00:00:00 24.05417 C 10.21 g/m*3 24.05 C 0 km/h
1057 07-08-2008 00:00:00 24.29583 C 11.12 g/m*3 24.3 C 0 km/h
1058 08-08-2008 00:00:00 18.50948 C 11.78 g/m*3 18.51 C 0 km/h
1059 09-08-2008 00:00:00 19.32 C 9.06 g/m*3 19.32 C 0 km/h
1060 10-08-2008 00:00:00 20.1 C 9.41 g/m*3 20.1 C 0 km/h
1061 11-08-2008 00:00:00 20.59748 C 9.44 g/m*3 20.6 C 0 km/h
1062 12-08-2008 00:00:00 18.91833 C 12.54 g/m*3 18.92 C 0 km/h
1063 13-08-2008 00:00:00 18.3525 C 8.74 g/m*3 18.35 C 0 km/h
1064 14-08-2008 00:00:00 19.14917 C 7.79 g/m*3 19.15 C 0 km/h
1065 15-08-2008 00:00:00 18.3625 C 8.19 g/m*3 18.36 C 0 km/h
1066 16-08-2008 00:00:00 18.89 C 8.44 g/m*3 18.89 C 0 km/h
1067 17-08-2008 00:00:00 19.10252 C 8.4 g/m*3 19.1 C 0 km/h
1068 18-08-2008 00:00:00 21.21 C 10.7 g/m*3 21.21 C 0 km/h
1069 19-08-2008 00:00:00 20.7925 C 9.67 g/m*3 20.79 C 0 km/h
1070 20-08-2008 00:00:00 18.82 C 9.37 g/m*3 18.82 C 0 km/h
1071 21-08-2008 00:00:00 19.6375 C 8.99 g/m*3 19.64 C 0 km/h
1072 22-08-2008 00:00:00 18.45333 C 11.1 g/m*3 18.45 C 0 km/h
1073 23-08-2008 00:00:00 14.95083 C 9.15 g/m*3 14.95 C 0 km/h
1074 24-08-2008 00:00:00 16.59333 C 8.67 g/m*3 16.59 C 0 km/h
1075 25-08-2008 00:00:00 17.43583 C 10.93 g/m*3 17.44 C 0 km/h
Sensor: Nr:Datum:Temp:Abs-Feuchte:Windchill:Wind:
Aussen-T/F 1076 26-08-2008 00:00:00 19.2725 C 10.13 g/m*3 19.27 C 0 km/h
1077 27-08-2008 00:00:00 19.89833 C 10.62 g/m*3 19.9 C 0 km/h
1078 28-08-2008 00:00:00 20.35417 C 9.37 g/m*3 20.35 C 0 km/h
1079 29-08-2008 00:00:00 20.84454 C 9.74 g/m*3 20.84 C 0 km/h
1080 30-08-2008 00:00:00 21.35167 C 10.94 g/m*3 21.35 C 0 km/h
1081 31-08-2008 00:00:00 22.25917 C 10.49 g/m*3 22.26 C 0 km/h
1082 01-09-2008 00:00:00 20.93917 C 10.36 g/m*3 20.94 C 0 km/h
1083 02-09-2008 00:00:00 19.11333 C 9.31 g/m*3 19.11 C 0 km/h
1084 03-09-2008 00:00:00 15.21083 C 10.42 g/m*3 15.21 C 0 km/h
1085 04-09-2008 00:00:00 13.7025 C 7.94 g/m*3 13.7 C 0 km/h
1086 05-09-2008 00:00:00 16.9775 C 10.5 g/m*3 16.98 C 0 km/h
1087 06-09-2008 00:00:00 17.5625 C 11.38 g/m*3 17.56 C 0 km/h
1088 07-09-2008 00:00:00 16.83583 C 9.34 g/m*3 16.84 C 0 km/h
1089 08-09-2008 00:00:00 17.9741 C 8.43 g/m*3 17.97 C 0 km/h
1090 09-09-2008 00:00:00 18.12014 C 9.04 g/m*3 18.12 C 0 km/h
1091 10-09-2008 00:00:00 21.10243 C 10.72 g/m*3 21.1 C 0 km/h
1092 11-09-2008 00:00:00 19.94479 C 12.52 g/m*3 19.94 C 0 km/h
1093 12-09-2008 00:00:00 16.69236 C 12.91 g/m*3 16.69 C 0 km/h
1094 13-09-2008 00:00:00 12.63937 C 10.07 g/m*3 12.64 C 0 km/h
1095 14-09-2008 00:00:00 11.66215 C 6.19 g/m*3 11.66 C 0 km/h
1096 15-09-2008 00:00:00 10.27153 C 7.08 g/m*3 10.27 C 0 km/h
1097 16-09-2008 00:00:00 11.32014 C 7.11 g/m*3 11.32 C 0 km/h
1098 17-09-2008 00:00:00 11.34948 C 5.77 g/m*3 11.35 C 0 km/h
1099 18-09-2008 00:00:00 10.63264 C 5.3 g/m*3 10.63 C 0 km/h
1100 19-09-2008 00:00:00 10.48333 C 6.14 g/m*3 10.48 C 0 km/h
Sensor: Nr:Datum:Temp:Abs-Feuchte:Windchill:Wind:
Aussen-T/F 1101 20-09-2008 00:00:00 11.00556 C 6.26 g/m*3 11.01 C 0 km/h
1102 21-09-2008 00:00:00 11.67222 C 6.89 g/m*3 11.67 C 0 km/h
1103 22-09-2008 00:00:00 12.57108 C 7.54 g/m*3 12.57 C 0 km/h
1104 23-09-2008 00:00:00 12.21111 C 8.35 g/m*3 12.21 C 0 km/h
1105 24-09-2008 00:00:00 13.30799 C 9.32 g/m*3 13.31 C 0 km/h
1106 25-09-2008 00:00:00 12.56736 C 7.77 g/m*3 12.57 C 0 km/h
1107 26-09-2008 00:00:00 12.00521 C 7.09 g/m*3 12.01 C 0 km/h
1108 27-09-2008 00:00:00 11.93693 C 7.15 g/m*3 11.94 C 0 km/h
1109 28-09-2008 00:00:00 11.96493 C 7.21 g/m*3 11.96 C 0 km/h
1110 29-09-2008 00:00:00 11.47396 C 7.33 g/m*3 11.47 C 0 km/h
1111 30-09-2008 00:00:00 10.38611 C 7.67 g/m*3 10.39 C 0 km/h
1112 01-10-2008 00:00:00 13.07222 C 8.43 g/m*3 13.07 C 0 km/h
1113 02-10-2008 00:00:00 10.70244 C 6.41 g/m*3 10.7 C 0 km/h
1114 03-10-2008 00:00:00 8.94063 C 6.04 g/m*3 8.94 C 0 km/h
1115 04-10-2008 00:00:00 9.76632 C 5.66 g/m*3 9.77 C 0 km/h
1116 05-10-2008 00:00:00 11.69062 C 6.1 g/m*3 11.69 C 0 km/h
1117 06-10-2008 00:00:00 14.79306 C 10.16 g/m*3 14.79 C 0 km/h
1118 07-10-2008 00:00:00 15.17875 C 10.24 g/m*3 15.18 C 0 km/h
1119 08-10-2008 00:00:00 13.26389 C 10.6 g/m*3 13.26 C 0 km/h
1120 09-10-2008 00:00:00 13.20937 C 8.82 g/m*3 13.21 C 0 km/h
1121 10-10-2008 00:00:00 13.01806 C 8.66 g/m*3 13.02 C 0 km/h
1122 11-10-2008 00:00:00 13.2125 C 9 g/m*3 13.21 C 0 km/h
1123 12-10-2008 00:00:00 15.40729 C 9.68 g/m*3 15.41 C 0 km/h
1124 13-10-2008 00:00:00 14.40976 C 9.47 g/m*3 14.41 C 0 km/h
1125 14-10-2008 00:00:00 15.63438 C 9.35 g/m*3 15.63 C 0 km/h
Sensor: Nr:Datum:Temp:Abs-Feuchte:Windchill:Wind:
Aussen-T/F 1126 15-10-2008 00:00:00 13.57361 C 8.88 g/m*3 13.57 C 0 km/h
1127 16-10-2008 00:00:00 11.59444 C 8.43 g/m*3 11.59 C 0 km/h
1128 17-10-2008 00:00:00 8.00313 C 6.15 g/m*3 8 C 0 km/h
1129 18-10-2008 00:00:00 7.10488 C 5.92 g/m*3 7.1 C 0 km/h
1130 19-10-2008 00:00:00 8.10521 C 6.25 g/m*3 8.11 C 0 km/h
1131 20-10-2008 00:00:00 9.83646 C 7.21 g/m*3 9.84 C 0 km/h
1132 21-10-2008 00:00:00 13.12986 C 9.32 g/m*3 13.13 C 0 km/h
1133 22-10-2008 00:00:00 9.36528 C 7.49 g/m*3 9.37 C 0 km/h
1134 23-10-2008 00:00:00 9.2115 C 6.5 g/m*3 9.21 C 0 km/h
1135 24-10-2008 00:00:00 7.4434 C 6.07 g/m*3 7.44 C 0 km/h
1136 25-10-2008 00:00:00 10.48151 C 7.39 g/m*3 10.48 C 0 km/h
1137 26-10-2008 00:00:00 10.725 C 6.55 g/m*3 10.73 C 0 km/h
1138 27-10-2008 00:00:00 10.21724 C 7.98 g/m*3 10.22 C 0 km/h
1139 28-10-2008 00:00:00 6.92456 C 6.29 g/m*3 6.92 C 0 km/h
1140 29-10-2008 00:00:00 5.45 C 5.63 g/m*3 5.45 C 0 km/h
1141 30-10-2008 00:00:00 4.78947 C 6 g/m*3 4.79 C 0 km/h
1142 31-10-2008 00:00:00 5.97414 C 6.34 g/m*3 5.97 C 0 km/h
1143 01-11-2008 00:00:00 7.97414 C 7.15 g/m*3 7.97 C 0 km/h
1144 02-11-2008 00:00:00 9.98772 C 7.86 g/m*3 9.99 C 0 km/h
1145 03-11-2008 00:00:00 9.82241 C 7.83 g/m*3 9.82 C 0 km/h
1146 04-11-2008 00:00:00 9.00351 C 7.82 g/m*3 9 C 0 km/h
1147 05-11-2008 00:00:00 9.79828 C 7.68 g/m*3 9.8 C 0 km/h
1148 06-11-2008 00:00:00 10.54483 C 7.37 g/m*3 10.54 C 0 km/h
1149 07-11-2008 00:00:00 10.79123 C 7.22 g/m*3 10.79 C 0 km/h
1150 08-11-2008 00:00:00 8.24828 C 6.77 g/m*3 8.25 C 0 km/h
Sensor: Nr:Datum:Temp:Abs-Feuchte:Windchill:Wind:
Aussen-T/F 1151 09-11-2008 00:00:00 8.89583 C 7.31 g/m*3 8.9 C 0 km/h
1152 10-11-2008 00:00:00 13.98833 C 7.91 g/m*3 13.99 C 0 km/h
1153 11-11-2008 00:00:00 12.73917 C 6.46 g/m*3 12.74 C 0 km/h
1154 12-11-2008 00:00:00 8.5175 C 6.56 g/m*3 8.52 C 0 km/h
1155 13-11-2008 00:00:00 6.40667 C 6.06 g/m*3 6.41 C 0 km/h
1156 14-11-2008 00:00:00 5.60833 C 5.47 g/m*3 5.61 C 0 km/h
1157 15-11-2008 00:00:00 9.82083 C 7.04 g/m*3 9.82 C 0 km/h
1158 16-11-2008 00:00:00 9.9375 C 7.83 g/m*3 9.94 C 0 km/h
1159 17-11-2008 00:00:00 4.03167 C 5.46 g/m*3 4.03 C 0 km/h
1160 18-11-2008 00:00:00 4.76417 C 5.59 g/m*3 4.76 C 0 km/h
1161 19-11-2008 00:00:00 7.7775 C 6.09 g/m*3 7.78 C 0 km/h
1162 20-11-2008 00:00:00 9.54 C 6.58 g/m*3 9.54 C 0 km/h
1163 21-11-2008 00:00:00 5.21083 C 5.22 g/m*3 5.21 C 0 km/h
1164 22-11-2008 00:00:00 1.08571 C 3.81 g/m*3 1.09 C 0 km/h
1165 23-11-2008 00:00:00 0.81333 C 4.11 g/m*3 0.81 C 0 km/h
1166 24-11-2008 00:00:00 1.92667 C 4.67 g/m*3 1.93 C 0 km/h
1167 25-11-2008 00:00:00 0.79667 C 4.51 g/m*3 0.8 C 0 km/h
1168 26-11-2008 00:00:00 2.38333 C 4.91 g/m*3 2.38 C 0 km/h
1169 27-11-2008 00:00:00 3.435 C 4.58 g/m*3 3.44 C 0 km/h
1170 28-11-2008 00:00:00 0.47667 C 3.78 g/m*3 0.48 C 0 km/h
1171 29-11-2008 00:00:00 0.98 C 4.13 g/m*3 0.98 C 0 km/h
1172 30-11-2008 00:00:00 1.12 C 4.72 g/m*3 1.12 C 0 km/h
1173 01-12-2008 00:00:00 0.30417 C 4.54 g/m*3 0.3 C 0 km/h
1174 02-12-2008 00:00:00 2.80917 C 4.97 g/m*3 2.81 C 0 km/h
1175 03-12-2008 00:00:00 1.785 C 4.91 g/m*3 1.79 C 0 km/h
Sensor: Nr:Datum:Temp:Abs-Feuchte:Windchill:Wind:
Aussen-T/F 1176 04-12-2008 00:00:00 1.92353 C 5.05 g/m*3 1.92 C 0 km/h
1177 05-12-2008 00:00:00 5.36 C 6.01 g/m*3 5.36 C 0 km/h
1178 06-12-2008 00:00:00 4.73 C 5.89 g/m*3 4.73 C 0 km/h
1179 07-12-2008 00:00:00 3.85333 C 5.78 g/m*3 3.85 C 0 km/h
1180 08-12-2008 00:00:00 0.26917 C 4.58 g/m*3 0.27 C 0 km/h
1181 09-12-2008 00:00:00 0.56667 C 4.36 g/m*3 0.57 C 0 km/h
1182 10-12-2008 00:00:00 1.97667 C 5.17 g/m*3 1.98 C 0 km/h
1183 11-12-2008 00:00:00 1.4775 C 4.54 g/m*3 1.48 C 0 km/h
1184 12-12-2008 00:00:00 -0.23583 C 3.8 g/m*3 -0.24 C 0 km/h
1185 13-12-2008 00:00:00 -0.26167 C 3.56 g/m*3 -0.26 C 0 km/h
1186 14-12-2008 00:00:00 0.28083 C 4.24 g/m*3 0.28 C 0 km/h
1187 15-12-2008 00:00:00 -0.1075 C 4.53 g/m*3 -0.11 C 0 km/h
1188 16-12-2008 00:00:00 0.42521 C 4.59 g/m*3 0.43 C 0 km/h
1189 17-12-2008 00:00:00 -0.0375 C 4.31 g/m*3 -0.04 C 0 km/h
1190 18-12-2008 00:00:00 2.15083 C 5.01 g/m*3 2.15 C 0 km/h
1191 19-12-2008 00:00:00 4.22333 C 5.23 g/m*3 4.22 C 0 km/h
1192 20-12-2008 00:00:00 6.45667 C 6.48 g/m*3 6.46 C 0 km/h
1193 21-12-2008 00:00:00 7.94917 C 6.81 g/m*3 7.95 C 0 km/h
1194 22-12-2008 00:00:00 8.47167 C 6.7 g/m*3 8.47 C 0 km/h
1195 23-12-2008 00:00:00 6.21417 C 5.86 g/m*3 6.21 C 0 km/h
1196 24-12-2008 00:00:00 4.55833 C 5.62 g/m*3 4.56 C 0 km/h
1197 25-12-2008 00:00:00 4.40252 C 4.56 g/m*3 4.4 C 0 km/h
1198 26-12-2008 00:00:00 -1.1875 C 2.6 g/m*3 -1.19 C 0 km/h
1199 27-12-2008 00:00:00 -1.85667 C 2.56 g/m*3 -1.86 C 0 km/h
1200 28-12-2008 00:00:00 -3.02917 C 2.53 g/m*3 -3.03 C 0 km/h
Sensor: Nr:Datum:Temp:Abs-Feuchte:Windchill:Wind:
Aussen-T/F 1201 29-12-2008 00:00:00 -5.49833 C 2.6 g/m*3 -5.5 C 0 km/h
1202 30-12-2008 00:00:00 -6.21833 C 2.53 g/m*3 -6.22 C 0 km/h
1203 31-12-2008 00:00:00 -4.32583 C 2.92 g/m*3 -4.33 C 0 km/h
1204 01-01-2009 00:00:00 -3.46417 C 2.96 g/m*3 -3.46 C 0 km/h
1205 02-01-2009 00:00:00 -2.03917 C 3.39 g/m*3 -2.04 C 0 km/h
1206 03-01-2009 00:00:00 -3.57 C 2.96 g/m*3 -3.57 C 0 km/h
1207 04-01-2009 00:00:00 -1.06833 C 2.96 g/m*3 -1.07 C 0 km/h
1208 05-01-2009 00:00:00 -1.23866 C 3.28 g/m*3 -1.24 C 0 km/h
1209 06-01-2009 00:00:00 -6.97 C 1.26 g/m*3 -6.97 C 0 km/h
1210 07-01-2009 00:00:00 -10.99167 C 1.39 g/m*3 -10.99 C 0 km/h
1211 08-01-2009 00:00:00 -6.02083 C 2.27 g/m*3 -6.02 C 0 km/h
1212 09-01-2009 00:00:00 -11.165 C 1.54 g/m*3 -11.17 C 0 km/h
1213 10-01-2009 00:00:00 -11.3175 C 1.53 g/m*3 -11.32 C 0 km/h
1214 11-01-2009 00:00:00 -8.9975 C 1.92 g/m*3 -9 C 0 km/h
1215 12-01-2009 00:00:00 -7.30417 C 2.15 g/m*3 -7.3 C 0 km/h
1216 13-01-2009 00:00:00 -0.17833 C 3.29 g/m*3 -0.18 C 0 km/h
1217 14-01-2009 00:00:00 -0.15917 C 4.05 g/m*3 -0.16 C 0 km/h
1218 15-01-2009 00:00:00 0.77417 C 4.28 g/m*3 0.77 C 0 km/h
1219 16-01-2009 00:00:00 0.69833 C 3.9 g/m*3 0.7 C 0 km/h
1220 17-01-2009 00:00:00 2.97833 C 4.9 g/m*3 2.98 C 0 km/h
1221 18-01-2009 00:00:00 4.50924 C 5.1 g/m*3 4.51 C 0 km/h
1222 19-01-2009 00:00:00 5.4575 C 5.21 g/m*3 5.46 C 0 km/h
1223 20-01-2009 00:00:00 3.6475 C 4.19 g/m*3 3.65 C 0 km/h
1224 21-01-2009 00:00:00 0.32 C 4.11 g/m*3 0.32 C 0 km/h
1225 22-01-2009 00:00:00 2.825 C 4.02 g/m*3 2.83 C 0 km/h
Sensor: Nr:Datum:Temp:Abs-Feuchte:Windchill:Wind:
Aussen-T/F 1226 23-01-2009 00:00:00 4.345 C 5.29 g/m*3 4.35 C 0 km/h
1227 24-01-2009 00:00:00 3.13 C 4.29 g/m*3 3.13 C 0 km/h
1228 25-01-2009 00:00:00 0.15167 C 4.08 g/m*3 0.15 C 0 km/h
1229 26-01-2009 00:00:00 -2.16917 C 3.69 g/m*3 -2.17 C 0 km/h
1230 27-01-2009 00:00:00 -0.93167 C 3.93 g/m*3 -0.93 C 0 km/h
1231 28-01-2009 00:00:00 0.50833 C 4.02 g/m*3 0.51 C 0 km/h
1232 29-01-2009 00:00:00 1.15667 C 3.12 g/m*3 1.16 C 0 km/h
1233 30-01-2009 00:00:00 -1.50917 C 3.06 g/m*3 -1.51 C 0 km/h
1234 31-01-2009 00:00:00 0.06303 C 2.59 g/m*3 0.06 C 0 km/h
1235 01-02-2009 00:00:00 -0.11167 C 2.24 g/m*3 -0.11 C 0 km/h
1236 02-02-2009 00:00:00 1.085 C 2.84 g/m*3 1.09 C 0 km/h
1237 03-02-2009 00:00:00 0.63833 C 3.81 g/m*3 0.64 C 0 km/h
1238 04-02-2009 00:00:00 3.0025 C 4.61 g/m*3 3 C 0 km/h
1239 05-02-2009 00:00:00 3.2325 C 4.69 g/m*3 3.23 C 0 km/h
1240 06-02-2009 00:00:00 4.3 C 5.03 g/m*3 4.3 C 0 km/h
1241 07-02-2009 00:00:00 4.03417 C 5.27 g/m*3 4.03 C 0 km/h
1242 08-02-2009 00:00:00 2.6525 C 3.3 g/m*3 2.65 C 0 km/h
1243 09-02-2009 00:00:00 2.3775 C 3.79 g/m*3 2.38 C 0 km/h
1244 10-02-2009 00:00:00 4.155 C 5.17 g/m*3 4.16 C 0 km/h
1245 11-02-2009 00:00:00 2.90333 C 3.62 g/m*3 2.9 C 0 km/h
1246 12-02-2009 00:00:00 0.68908 C 3.9 g/m*3 0.69 C 0 km/h
1247 13-02-2009 00:00:00 0.51333 C 4.05 g/m*3 0.51 C 0 km/h
1248 14-02-2009 00:00:00 0.46083 C 3.41 g/m*3 0.46 C 0 km/h
1249 15-02-2009 00:00:00 -1.63583 C 2.82 g/m*3 -1.64 C 0 km/h
1250 16-02-2009 00:00:00 1.96417 C 4.68 g/m*3 1.96 C 0 km/h
Sensor: Nr:Datum:Temp:Abs-Feuchte:Windchill:Wind:
Aussen-T/F 1251 17-02-2009 00:00:00 3.77167 C 5.13 g/m*3 3.77 C 0 km/h
1252 18-02-2009 00:00:00 -1.62667 C 2.39 g/m*3 -1.63 C 0 km/h
1253 19-02-2009 00:00:00 1.01417 C 2.7 g/m*3 1.01 C 0 km/h
1254 20-02-2009 00:00:00 3.41917 C 5.01 g/m*3 3.42 C 0 km/h
1255 21-02-2009 00:00:00 4.72083 C 4.87 g/m*3 4.72 C 0 km/h
1256 22-02-2009 00:00:00 5.24667 C 5.76 g/m*3 5.25 C 0 km/h
1257 23-02-2009 00:00:00 5.50083 C 4.72 g/m*3 5.5 C 0 km/h
1258 24-02-2009 00:00:00 4.8325 C 4.1 g/m*3 4.83 C 0 km/h
1259 25-02-2009 00:00:00 3.34286 C 4 g/m*3 3.34 C 0 km/h
1260 26-02-2009 00:00:00 6.7377 C 4.3 g/m*3 6.74 C 0 km/h
1261 27-02-2009 00:00:00 7.10417 C 5.5 g/m*3 7.1 C 0 km/h
1262 28-02-2009 00:00:00 10.0375 C 5.89 g/m*3 10.04 C 0 km/h
1263 01-03-2009 00:00:00 9.95 C 5.76 g/m*3 9.95 C 0 km/h
1264 02-03-2009 00:00:00 7.98 C 5.85 g/m*3 7.98 C 0 km/h
1265 03-03-2009 00:00:00 5.05583 C 3.94 g/m*3 5.06 C 0 km/h
1266 04-03-2009 00:00:00 7.27917 C 3.96 g/m*3 7.28 C 0 km/h
1267 05-03-2009 00:00:00 4.42917 C 5.35 g/m*3 4.43 C 0 km/h
1268 06-03-2009 00:00:00 3.82417 C 5.35 g/m*3 3.82 C 0 km/h
1269 07-03-2009 00:00:00 5.72167 C 3.85 g/m*3 5.72 C 0 km/h
1270 08-03-2009 00:00:00 7.50833 C 5.49 g/m*3 7.51 C 0 km/h
1271 09-03-2009 00:00:00 5.1521 C 4.17 g/m*3 5.15 C 0 km/h
1272 10-03-2009 00:00:00 5.4275 C 4.82 g/m*3 5.43 C 0 km/h
1273 11-03-2009 00:00:00 5.60417 C 4.35 g/m*3 5.6 C 0 km/h
1274 12-03-2009 00:00:00 5.67083 C 5.13 g/m*3 5.67 C 0 km/h
1275 13-03-2009 00:00:00 8.68167 C 5.63 g/m*3 8.68 C 0 km/h
Sensor: Nr:Datum:Temp:Abs-Feuchte:Windchill:Wind:
Aussen-T/F 1276 14-03-2009 00:00:00 8.925 C 5.68 g/m*3 8.93 C 0 km/h
1277 15-03-2009 00:00:00 9.41667 C 4.91 g/m*3 9.42 C 0 km/h
1278 16-03-2009 00:00:00 8.23417 C 5.83 g/m*3 8.23 C 0 km/h
1279 17-03-2009 00:00:00 7.73833 C 5.15 g/m*3 7.74 C 0 km/h
1280 18-03-2009 00:00:00 5.82417 C 3.93 g/m*3 5.82 C 0 km/h
1281 19-03-2009 00:00:00 5.41917 C 3.04 g/m*3 5.42 C 0 km/h
1282 20-03-2009 00:00:00 4.59917 C 2.69 g/m*3 4.6 C 0 km/h
1283 21-03-2009 00:00:00 5.07 C 2.81 g/m*3 5.07 C 0 km/h
1284 22-03-2009 00:00:00 5.16639 C 3.79 g/m*3 5.17 C 0 km/h
1285 23-03-2009 00:00:00 7.82917 C 4.91 g/m*3 7.83 C 0 km/h
1286 24-03-2009 00:00:00 3.67333 C 4.24 g/m*3 3.67 C 0 km/h
1287 25-03-2009 00:00:00 3.18417 C 4.69 g/m*3 3.18 C 0 km/h
1288 26-03-2009 00:00:00 6.40083 C 5.48 g/m*3 6.4 C 0 km/h
1289 27-03-2009 00:00:00 7.28333 C 5.31 g/m*3 7.28 C 0 km/h
1290 28-03-2009 00:00:00 6.97583 C 5.39 g/m*3 6.98 C 0 km/h
1291 29-03-2009 00:00:00 6.18435 C 4.96 g/m*3 6.18 C 0 km/h
1292 30-03-2009 00:00:00 6.41833 C 4.78 g/m*3 6.42 C 0 km/h
1293 31-03-2009 00:00:00 8.3325 C 4.49 g/m*3 8.33 C 0 km/h
1294 01-04-2009 00:00:00 10.89833 C 4.57 g/m*3 10.9 C 0 km/h
1295 02-04-2009 00:00:00 15.335 C 5.18 g/m*3 15.34 C 0 km/h
1296 03-04-2009 00:00:00 15.87143 C 6.71 g/m*3 15.87 C 0 km/h
1297 04-04-2009 00:00:00 16.68333 C 7.32 g/m*3 16.68 C 0 km/h
1298 05-04-2009 00:00:00 14.9675 C 6.93 g/m*3 14.97 C 0 km/h
1299 06-04-2009 00:00:00 14.72833 C 6.98 g/m*3 14.73 C 0 km/h
1300 07-04-2009 00:00:00 14.57333 C 7.41 g/m*3 14.57 C 0 km/h
Sensor: Nr:Datum:Temp:Abs-Feuchte:Windchill:Wind:
Aussen-T/F 1301 08-04-2009 00:00:00 14.20167 C 6.07 g/m*3 14.2 C 0 km/h
1302 09-04-2009 00:00:00 16.28067 C 7.49 g/m*3 16.28 C 0 km/h
1303 10-04-2009 00:00:00 18.55372 C 7.45 g/m*3 18.55 C 0 km/h
1304 11-04-2009 00:00:00 17.3525 C 7.29 g/m*3 17.35 C 0 km/h
1305 12-04-2009 00:00:00 16.79 C 8.39 g/m*3 16.79 C 0 km/h
1306 13-04-2009 00:00:00 15.65167 C 9.22 g/m*3 15.65 C 0 km/h
1307 14-04-2009 00:00:00 16.16167 C 8.27 g/m*3 16.16 C 0 km/h
1308 15-04-2009 00:00:00 16.94202 C 7.01 g/m*3 16.94 C 0 km/h
1309 16-04-2009 00:00:00 14.94583 C 6.79 g/m*3 14.95 C 0 km/h
1310 17-04-2009 00:00:00 10.0825 C 8.69 g/m*3 10.08 C 0 km/h
1311 18-04-2009 00:00:00 9.84 C 8.53 g/m*3 9.84 C 0 km/h
1312 19-04-2009 00:00:00 14.95667 C 7.61 g/m*3 14.96 C 0 km/h
1313 20-04-2009 00:00:00 15.16917 C 7.23 g/m*3 15.17 C 0 km/h
1314 21-04-2009 00:00:00 15.74583 C 6.35 g/m*3 15.75 C 0 km/h
1315 22-04-2009 00:00:00 13.68833 C 5.48 g/m*3 13.69 C 0 km/h
1316 23-04-2009 00:00:00 11.645 C 5.16 g/m*3 11.65 C 0 km/h
1317 24-04-2009 00:00:00 14.11333 C 5.96 g/m*3 14.11 C 0 km/h
1318 25-04-2009 00:00:00 14.64833 C 7.16 g/m*3 14.65 C 0 km/h
1319 26-04-2009 00:00:00 18.35 C 8.19 g/m*3 18.35 C 0 km/h
1320 27-04-2009 00:00:00 14.89496 C 7.27 g/m*3 14.89 C 0 km/h
1321 28-04-2009 00:00:00 11.07833 C 8.01 g/m*3 11.08 C 0 km/h
1322 29-04-2009 00:00:00 11.9025 C 7.14 g/m*3 11.9 C 0 km/h
1323 30-04-2009 00:00:00 12.85833 C 7.53 g/m*3 12.86 C 0 km/h
1324 01-05-2009 00:00:00 16.25583 C 8.09 g/m*3 16.26 C 0 km/h
1325 02-05-2009 00:00:00 17.60167 C 7.7 g/m*3 17.6 C 0 km/h
Sensor: Nr:Datum:Temp:Abs-Feuchte:Windchill:Wind:
Aussen-T/F 1326 03-05-2009 00:00:00 14.58333 C 7.12 g/m*3 14.58 C 0 km/h
1327 04-05-2009 00:00:00 11.88333 C 4.53 g/m*3 11.88 C 0 km/h
1328 05-05-2009 00:00:00 10.50917 C 6.68 g/m*3 10.51 C 0 km/h
1329 06-05-2009 00:00:00 13.85625 C 7.25 g/m*3 13.86 C 0 km/h
1330 07-05-2009 00:00:00 16.47708 C 7.43 g/m*3 16.48 C 0 km/h
1331 08-05-2009 00:00:00 16.58021 C 8.46 g/m*3 16.58 C 0 km/h
1332 09-05-2009 00:00:00 14.3875 C 8.01 g/m*3 14.39 C 0 km/h
1333 10-05-2009 00:00:00 17.72083 C 9.72 g/m*3 17.72 C 0 km/h
1334 11-05-2009 00:00:00 13.57188 C 11.06 g/m*3 13.57 C 0 km/h
1335 12-05-2009 00:00:00 11.83333 C 9.17 g/m*3 11.83 C 0 km/h
1336 13-05-2009 00:00:00 15.51771 C 8.96 g/m*3 15.52 C 0 km/h
1337 14-05-2009 00:00:00 16.00104 C 9.44 g/m*3 16 C 0 km/h
1338 15-05-2009 00:00:00 15.12255 C 10.34 g/m*3 15.12 C 0 km/h
1339 16-05-2009 00:00:00 13.80333 C 7.38 g/m*3 13.8 C 0 km/h
1340 17-05-2009 00:00:00 17.02083 C 7.92 g/m*3 17.02 C 0 km/h
1341 18-05-2009 00:00:00 16.95083 C 6.63 g/m*3 16.95 C 0 km/h
1342 19-05-2009 00:00:00 16.49333 C 7.85 g/m*3 16.49 C 0 km/h
1343 20-05-2009 00:00:00 18.70167 C 9.55 g/m*3 18.7 C 0 km/h
1344 21-05-2009 00:00:00 19.21167 C 10.72 g/m*3 19.21 C 0 km/h
1345 22-05-2009 00:00:00 17.97917 C 7.45 g/m*3 17.98 C 0 km/h
1346 23-05-2009 00:00:00 18.72083 C 7.4 g/m*3 18.72 C 0 km/h
1347 24-05-2009 00:00:00 22.53417 C 9.1 g/m*3 22.53 C 0 km/h
1348 25-05-2009 00:00:00 23.49833 C 10.6 g/m*3 23.5 C 0 km/h
1349 26-05-2009 00:00:00 19.86583 C 9.97 g/m*3 19.87 C 0 km/h
1350 27-05-2009 00:00:00 14.4425 C 6.18 g/m*3 14.44 C 0 km/h
Sensor: Nr:Datum:Temp:Abs-Feuchte:Windchill:Wind:
Aussen-T/F 1351 28-05-2009 00:00:00 15.5325 C 8.21 g/m*3 15.53 C 0 km/h
1352 29-05-2009 00:00:00 17.81765 C 6.76 g/m*3 17.82 C 0 km/h
1353 30-05-2009 00:00:00 18.43417 C 6.45 g/m*3 18.43 C 0 km/h
1354 31-05-2009 00:00:00 20.3075 C 7.55 g/m*3 20.31 C 0 km/h
1355 01-06-2009 00:00:00 19.42541 C 9.1 g/m*3 19.43 C 0 km/h
1356 02-06-2009 00:00:00 19.91917 C 8.16 g/m*3 19.92 C 0 km/h
1357 03-06-2009 00:00:00 16.3775 C 5.31 g/m*3 16.38 C 0 km/h
1358 04-06-2009 00:00:00 13.435 C 4.59 g/m*3 13.44 C 0 km/h
1359 05-06-2009 00:00:00 13.4075 C 5 g/m*3 13.41 C 0 km/h
1360 06-06-2009 00:00:00 9.18333 C 7.41 g/m*3 9.18 C 0 km/h
1361 07-06-2009 00:00:00 13.71083 C 8.43 g/m*3 13.71 C 0 km/h
1362 08-06-2009 00:00:00 16.58667 C 7.38 g/m*3 16.59 C 0 km/h
1363 09-06-2009 00:00:00 17.9275 C 9.37 g/m*3 17.93 C 0 km/h
1364 10-06-2009 00:00:00 17.24454 C 8.99 g/m*3 17.24 C 0 km/h
1365 11-06-2009 00:00:00 14.60417 C 9.26 g/m*3 14.6 C 0 km/h
1366 12-06-2009 00:00:00 15.915 C 7.28 g/m*3 15.92 C 0 km/h
1367 13-06-2009 00:00:00 18.29417 C 7.64 g/m*3 18.29 C 0 km/h
1368 14-06-2009 00:00:00 20.3875 C 10.19 g/m*3 20.39 C 0 km/h
1369 15-06-2009 00:00:00 16.76083 C 12.71 g/m*3 16.76 C 0 km/h
1370 16-06-2009 00:00:00 16.58083 C 9.69 g/m*3 16.58 C 0 km/h
1371 17-06-2009 00:00:00 19.89 C 9.38 g/m*3 19.89 C 0 km/h
1372 18-06-2009 00:00:00 19.45417 C 10.3 g/m*3 19.45 C 0 km/h
1373 19-06-2009 00:00:00 18.45583 C 7.96 g/m*3 18.46 C 0 km/h
1374 20-06-2009 00:00:00 13.84583 C 7.89 g/m*3 13.85 C 0 km/h
1375 21-06-2009 00:00:00 13.40167 C 8.61 g/m*3 13.4 C 0 km/h
Sensor: Nr:Datum:Temp:Abs-Feuchte:Windchill:Wind:
Aussen-T/F 1376 22-06-2009 00:00:00 15.23697 C 7.62 g/m*3 15.24 C 0 km/h
1377 23-06-2009 00:00:00 18.58583 C 7.92 g/m*3 18.59 C 0 km/h
1378 24-06-2009 00:00:00 22.29167 C 7.85 g/m*3 22.29 C 0 km/h
1379 25-06-2009 00:00:00 24.10583 C 9.67 g/m*3 24.11 C 0 km/h
1380 26-06-2009 00:00:00 24.31083 C 10.7 g/m*3 24.31 C 0 km/h
1381 27-06-2009 00:00:00 22.1625 C 12.54 g/m*3 22.16 C 0 km/h
1382 28-06-2009 00:00:00 25.04417 C 11.78 g/m*3 25.04 C 0 km/h
1383 29-06-2009 00:00:00 24.71583 C 12 g/m*3 24.72 C 0 km/h
1384 30-06-2009 00:00:00 22.55083 C 13.98 g/m*3 22.55 C 0 km/h
1385 01-07-2009 00:00:00 23.6175 C 13.73 g/m*3 23.62 C 0 km/h
1386 02-07-2009 00:00:00 25.95917 C 12.87 g/m*3 25.96 C 0 km/h
1387 03-07-2009 00:00:00 23.36083 C 13.72 g/m*3 23.36 C 0 km/h
1388 04-07-2009 00:00:00 24.17479 C 11.83 g/m*3 24.17 C 0 km/h
1389 05-07-2009 00:00:00 23.89917 C 11.07 g/m*3 23.9 C 0 km/h
1390 06-07-2009 00:00:00 21.82333 C 11.98 g/m*3 21.82 C 0 km/h
1391 07-07-2009 00:00:00 18.7625 C 10.11 g/m*3 18.76 C 0 km/h
1392 08-07-2009 00:00:00 16.39 C 9.61 g/m*3 16.39 C 0 km/h
1393 09-07-2009 00:00:00 16.38583 C 8.58 g/m*3 16.39 C 0 km/h
1394 10-07-2009 00:00:00 15.17083 C 7.78 g/m*3 15.17 C 0 km/h
1395 11-07-2009 00:00:00 17.55667 C 8.2 g/m*3 17.56 C 0 km/h
1396 12-07-2009 00:00:00 19.3525 C 10.57 g/m*3 19.35 C 0 km/h
1397 13-07-2009 00:00:00 21.76917 C 12.23 g/m*3 21.77 C 0 km/h
1398 14-07-2009 00:00:00 23.4 C 13.46 g/m*3 23.4 C 0 km/h
1399 15-07-2009 00:00:00 24.0475 C 10.2 g/m*3 24.05 C 0 km/h
1400 16-07-2009 00:00:00 23.37479 C 9.98 g/m*3 23.37 C 0 km/h
Sensor: Nr:Datum:Temp:Abs-Feuchte:Windchill:Wind:
Aussen-T/F 1401 17-07-2009 00:00:00 20.90917 C 9.78 g/m*3 20.91 C 0 km/h
1402 18-07-2009 00:00:00 17.575 C 8.46 g/m*3 17.58 C 0 km/h
1403 19-07-2009 00:00:00 17.92167 C 8.71 g/m*3 17.92 C 0 km/h
1404 20-07-2009 00:00:00 19.82583 C 7.87 g/m*3 19.83 C 0 km/h
1405 21-07-2009 00:00:00 23.22833 C 11.03 g/m*3 23.23 C 0 km/h
1406 22-07-2009 00:00:00 25.10583 C 12 g/m*3 25.11 C 0 km/h
1407 23-07-2009 00:00:00 22.65417 C 12.31 g/m*3 22.65 C 0 km/h
1408 24-07-2009 00:00:00 20.33167 C 9.89 g/m*3 20.33 C 0 km/h
1409 25-07-2009 00:00:00 18.03083 C 9.21 g/m*3 18.03 C 0 km/h
1410 26-07-2009 00:00:00 19.94833 C 9.75 g/m*3 19.95 C 0 km/h
1411 27-07-2009 00:00:00 20.60667 C 10.4 g/m*3 20.61 C 0 km/h
1412 28-07-2009 00:00:00 20.41513 C 8.48 g/m*3 20.42 C 0 km/h
1413 29-07-2009 00:00:00 21.77833 C 9.2 g/m*3 21.78 C 0 km/h
1414 30-07-2009 00:00:00 21.10583 C 8.72 g/m*3 21.11 C 0 km/h
1415 31-07-2009 00:00:00 20.32583 C 7.51 g/m*3 20.33 C 0 km/h
1416 01-08-2009 00:00:00 22.455 C 8.67 g/m*3 22.46 C 0 km/h
1417 02-08-2009 00:00:00 20.47167 C 10.91 g/m*3 20.47 C 0 km/h
1418 03-08-2009 00:00:00 19.3075 C 9.46 g/m*3 19.31 C 0 km/h
1419 04-08-2009 00:00:00 20.48917 C 8.95 g/m*3 20.49 C 0 km/h
1420 05-08-2009 00:00:00 22.0275 C 8.17 g/m*3 22.03 C 0 km/h
1421 06-08-2009 00:00:00 24.19667 C 9.51 g/m*3 24.2 C 0 km/h
1422 07-08-2009 00:00:00 25.2075 C 10.12 g/m*3 25.21 C 0 km/h
1423 08-08-2009 00:00:00 21.22583 C 12.28 g/m*3 21.23 C 0 km/h
1424 09-08-2009 00:00:00 22.82101 C 12.15 g/m*3 22.82 C 0 km/h
1425 10-08-2009 00:00:00 21.7025 C 11.79 g/m*3 21.7 C 0 km/h
Sensor: Nr:Datum:Temp:Abs-Feuchte:Windchill:Wind:
Aussen-T/F 1426 11-08-2009 00:00:00 20.44 C 11.61 g/m*3 20.44 C 0 km/h
1427 12-08-2009 00:00:00 20.9725 C 11.23 g/m*3 20.97 C 0 km/h
1428 13-08-2009 00:00:00 18.55917 C 12.82 g/m*3 18.56 C 0 km/h
1429 14-08-2009 00:00:00 19.44083 C 10.85 g/m*3 19.44 C 0 km/h
1430 15-08-2009 00:00:00 21.37917 C 10.5 g/m*3 21.38 C 0 km/h
1431 16-08-2009 00:00:00 23.84583 C 11 g/m*3 23.85 C 0 km/h
1432 17-08-2009 00:00:00 23.615 C 11.27 g/m*3 23.62 C 0 km/h
1433 18-08-2009 00:00:00 22.105 C 9.45 g/m*3 22.11 C 0 km/h
1434 19-08-2009 00:00:00 23.76 C 10.14 g/m*3 23.76 C 0 km/h
1435 20-08-2009 00:00:00 26.03167 C 11.39 g/m*3 26.03 C 0 km/h
1436 21-08-2009 00:00:00 20.32185 C 10.69 g/m*3 20.32 C 0 km/h
1437 22-08-2009 00:00:00 19.745 C 9.13 g/m*3 19.75 C 0 km/h
1438 23-08-2009 00:00:00 20.0375 C 8.31 g/m*3 20.04 C 0 km/h
1439 24-08-2009 00:00:00 22.19667 C 9.27 g/m*3 22.2 C 0 km/h
1440 25-08-2009 00:00:00 23.11917 C 10.67 g/m*3 23.12 C 0 km/h
1441 26-08-2009 00:00:00 21.68417 C 9.77 g/m*3 21.68 C 0 km/h
1442 27-08-2009 00:00:00 23.10167 C 10.48 g/m*3 23.1 C 0 km/h
1443 28-08-2009 00:00:00 21.60583 C 8.45 g/m*3 21.61 C 0 km/h
1444 29-08-2009 00:00:00 16.21167 C 6.62 g/m*3 16.21 C 0 km/h
1445 30-08-2009 00:00:00 16.655 C 6.94 g/m*3 16.66 C 0 km/h
1446 31-08-2009 00:00:00 19.54667 C 7.6 g/m*3 19.55 C 0 km/h
1447 01-09-2009 00:00:00 19.93167 C 10.19 g/m*3 19.93 C 0 km/h
1448 02-09-2009 00:00:00 18.765 C 9.38 g/m*3 18.77 C 0 km/h
1449 03-09-2009 00:00:00 17.39328 C 8.67 g/m*3 17.39 C 0 km/h
1450 04-09-2009 00:00:00 14.56333 C 8.22 g/m*3 14.56 C 0 km/h
Sensor: Nr:Datum:Temp:Abs-Feuchte:Windchill:Wind:
Aussen-T/F 1451 05-09-2009 00:00:00 15.10833 C 7.6 g/m*3 15.11 C 0 km/h
1452 06-09-2009 00:00:00 14.74583 C 8.27 g/m*3 14.75 C 0 km/h
1453 07-09-2009 00:00:00 17.63417 C 8.91 g/m*3 17.63 C 0 km/h
1454 08-09-2009 00:00:00 19.88167 C 9.54 g/m*3 19.88 C 0 km/h
1455 09-09-2009 00:00:00 19.7475 C 9.47 g/m*3 19.75 C 0 km/h
1456 10-09-2009 00:00:00 18.43917 C 10.33 g/m*3 18.44 C 0 km/h
1457 11-09-2009 00:00:00 17.6725 C 7.37 g/m*3 17.67 C 0 km/h
1458 12-09-2009 00:00:00 16.99083 C 7.3 g/m*3 16.99 C 0 km/h
1459 13-09-2009 00:00:00 14.23 C 8.62 g/m*3 14.23 C 0 km/h
1460 14-09-2009 00:00:00 12.17417 C 10.1 g/m*3 12.17 C 0 km/h
1461 15-09-2009 00:00:00 13.7563 C 10.75 g/m*3 13.76 C 0 km/h
1462 16-09-2009 00:00:00 16.725 C 11.49 g/m*3 16.73 C 0 km/h
1463 17-09-2009 00:00:00 18.47583 C 9.96 g/m*3 18.48 C 0 km/h
1464 18-09-2009 00:00:00 18.26083 C 9.85 g/m*3 18.26 C 0 km/h
1465 19-09-2009 00:00:00 20.78583 C 11.08 g/m*3 20.79 C 0 km/h
1466 20-09-2009 00:00:00 19.92833 C 11.89 g/m*3 19.93 C 0 km/h
1467 21-09-2009 00:00:00 18.85833 C 10.75 g/m*3 18.86 C 0 km/h
1468 22-09-2009 00:00:00 17.215 C 9.52 g/m*3 17.22 C 0 km/h
1469 23-09-2009 00:00:00 17.4225 C 9.72 g/m*3 17.42 C 0 km/h
1470 24-09-2009 00:00:00 17.19 C 10.45 g/m*3 17.19 C 0 km/h
1471 25-09-2009 00:00:00 15.16083 C 8.71 g/m*3 15.16 C 0 km/h
1472 26-09-2009 00:00:00 14.56333 C 8.19 g/m*3 14.56 C 0 km/h
1473 27-09-2009 00:00:00 14.64 C 8.22 g/m*3 14.64 C 0 km/h
1474 28-09-2009 00:00:00 14.21583 C 8.47 g/m*3 14.22 C 0 km/h
1475 29-09-2009 00:00:00 15.88319 C 8.68 g/m*3 15.88 C 0 km/h
Sensor: Nr:Datum:Temp:Abs-Feuchte:Windchill:Wind:
Aussen-T/F 1476 30-09-2009 00:00:00 16.535 C 9.98 g/m*3 16.54 C 0 km/h
1477 01-10-2009 00:00:00 14.71583 C 8.88 g/m*3 14.72 C 0 km/h
1478 02-10-2009 00:00:00 11.32167 C 6.59 g/m*3 11.32 C 0 km/h
1479 03-10-2009 00:00:00 11.72333 C 6.76 g/m*3 11.72 C 0 km/h
1480 04-10-2009 00:00:00 13.54167 C 7.94 g/m*3 13.54 C 0 km/h
1481 05-10-2009 00:00:00 12.4075 C 9.99 g/m*3 12.41 C 0 km/h
1482 06-10-2009 00:00:00 16.13417 C 12.08 g/m*3 16.13 C 0 km/h
1483 07-10-2009 00:00:00 19.57083 C 12.9 g/m*3 19.57 C 0 km/h
1484 08-10-2009 00:00:00 16.41167 C 9.99 g/m*3 16.41 C 0 km/h
1485 09-10-2009 00:00:00 11.88417 C 7.56 g/m*3 11.88 C 0 km/h
1486 10-10-2009 00:00:00 13.34667 C 9.66 g/m*3 13.35 C 0 km/h
1487 11-10-2009 00:00:00 12.35042 C 8.83 g/m*3 12.35 C 0 km/h
1488 12-10-2009 00:00:00 10.9275 C 6.43 g/m*3 10.93 C 0 km/h
1489 13-10-2009 00:00:00 9.24333 C 6.35 g/m*3 9.24 C 0 km/h
1490 14-10-2009 00:00:00 4.27333 C 4.38 g/m*3 4.27 C 0 km/h
1491 15-10-2009 00:00:00 3.45583 C 4.18 g/m*3 3.46 C 0 km/h
1492 16-10-2009 00:00:00 6.41083 C 5.8 g/m*3 6.41 C 0 km/h
1493 17-10-2009 00:00:00 8.52083 C 5.63 g/m*3 8.52 C 0 km/h
1494 18-10-2009 00:00:00 7.3775 C 5.38 g/m*3 7.38 C 0 km/h
1495 19-10-2009 00:00:00 4.59 C 4.71 g/m*3 4.59 C 0 km/h
1496 20-10-2009 00:00:00 5.17083 C 4.82 g/m*3 5.17 C 0 km/h
1497 21-10-2009 00:00:00 8.07333 C 5.02 g/m*3 8.07 C 0 km/h
1498 22-10-2009 00:00:00 9.4 C 5.91 g/m*3 9.4 C 0 km/h
1499 23-10-2009 00:00:00 8.34 C 7.02 g/m*3 8.34 C 0 km/h
1500 24-10-2009 00:00:00 10.5084 C 7.81 g/m*3 10.51 C 0 km/h
Sensor: Nr:Datum:Temp:Abs-Feuchte:Windchill:Wind:
Aussen-T/F 1501 25-10-2009 00:00:00 12.6096 C 8.4 g/m*3 12.61 C 0 km/h
1502 26-10-2009 00:00:00 11.8875 C 7.56 g/m*3 11.89 C 0 km/h
1503 27-10-2009 00:00:00 11.82417 C 7.63 g/m*3 11.82 C 0 km/h
1504 28-10-2009 00:00:00 8.37917 C 7.06 g/m*3 8.38 C 0 km/h
1505 29-10-2009 00:00:00 8.69333 C 7.48 g/m*3 8.69 C 0 km/h
1506 30-10-2009 00:00:00 10.54083 C 7.59 g/m*3 10.54 C 0 km/h
1507 31-10-2009 00:00:00 7.03083 C 5.82 g/m*3 7.03 C 0 km/h
1508 01-11-2009 00:00:00 9.17333 C 6.74 g/m*3 9.17 C 0 km/h
1509 02-11-2009 00:00:00 10.32333 C 8.29 g/m*3 10.32 C 0 km/h
1510 03-11-2009 00:00:00 8.06167 C 6.19 g/m*3 8.06 C 0 km/h
1511 04-11-2009 00:00:00 8.75 C 7.01 g/m*3 8.75 C 0 km/h
1512 05-11-2009 00:00:00 9.29748 C 6.2 g/m*3 9.3 C 0 km/h
1513 06-11-2009 00:00:00 9.43333 C 6.28 g/m*3 9.43 C 0 km/h
1514 07-11-2009 00:00:00 8.11583 C 5.94 g/m*3 8.12 C 0 km/h
1515 08-11-2009 00:00:00 6.9 C 6.33 g/m*3 6.9 C 0 km/h
1516 09-11-2009 00:00:00 6.21167 C 6.26 g/m*3 6.21 C 0 km/h
1517 10-11-2009 00:00:00 6.03 C 6.79 g/m*3 6.03 C 0 km/h
1518 11-11-2009 00:00:00 6.2525 C 6.18 g/m*3 6.25 C 0 km/h
1519 12-11-2009 00:00:00 4.66 C 6.06 g/m*3 4.66 C 0 km/h
1520 13-11-2009 00:00:00 11.27583 C 8.27 g/m*3 11.28 C 0 km/h
1521 14-11-2009 00:00:00 11.7125 C 7.87 g/m*3 11.71 C 0 km/h
1522 15-11-2009 00:00:00 11.2125 C 6.89 g/m*3 11.21 C 0 km/h
1523 16-11-2009 00:00:00 10.92667 C 8.53 g/m*3 10.93 C 0 km/h
1524 17-11-2009 00:00:00 10.88235 C 8.48 g/m*3 10.88 C 0 km/h
1525 18-11-2009 00:00:00 10.245 C 6.24 g/m*3 10.25 C 0 km/h
Sensor: Nr:Datum:Temp:Abs-Feuchte:Windchill:Wind:
Aussen-T/F 1526 19-11-2009 00:00:00 9.77667 C 6.57 g/m*3 9.78 C 0 km/h
1527 20-11-2009 00:00:00 7.87917 C 6.83 g/m*3 7.88 C 0 km/h
1528 21-11-2009 00:00:00 11.67333 C 7.8 g/m*3 11.67 C 0 km/h
1529 22-11-2009 00:00:00 11.84167 C 6.48 g/m*3 11.84 C 0 km/h
1530 23-11-2009 00:00:00 10.33417 C 6.93 g/m*3 10.33 C 0 km/h
1531 24-11-2009 00:00:00 11.89833 C 7.31 g/m*3 11.9 C 0 km/h
1532 25-11-2009 00:00:00 12.0875 C 6.36 g/m*3 12.09 C 0 km/h
1533 26-11-2009 00:00:00 9.98917 C 5.73 g/m*3 9.99 C 0 km/h
1534 27-11-2009 00:00:00 9.0425 C 5.58 g/m*3 9.04 C 0 km/h
1535 28-11-2009 00:00:00 8.79 C 5.95 g/m*3 8.79 C 0 km/h
1536 29-11-2009 00:00:00 9.41597 C 6.1 g/m*3 9.42 C 0 km/h
1537 30-11-2009 00:00:00 6.46 C 6.32 g/m*3 6.46 C 0 km/h
1538 01-12-2009 00:00:00 5.65583 C 5.93 g/m*3 5.66 C 0 km/h
1539 02-12-2009 00:00:00 5.96 C 5.22 g/m*3 5.96 C 0 km/h
1540 03-12-2009 00:00:00 8.53667 C 6.07 g/m*3 8.54 C 0 km/h
1541 04-12-2009 00:00:00 4.73917 C 4.37 g/m*3 4.74 C 0 km/h
1542 05-12-2009 00:00:00 5.3975 C 5.13 g/m*3 5.4 C 0 km/h
1543 06-12-2009 00:00:00 9.83 C 7.53 g/m*3 9.83 C 0 km/h
1544 07-12-2009 00:00:00 5.59917 C 6.01 g/m*3 5.6 C 0 km/h
1545 08-12-2009 00:00:00 6.95833 C 6.27 g/m*3 6.96 C 0 km/h
1546 09-12-2009 00:00:00 7.2525 C 6.19 g/m*3 7.25 C 0 km/h
1547 10-12-2009 00:00:00 8.78583 C 6.99 g/m*3 8.79 C 0 km/h
1548 11-12-2009 00:00:00 6.665 C 6.16 g/m*3 6.67 C 0 km/h
1549 12-12-2009 00:00:00 3.47833 C 5.29 g/m*3 3.48 C 0 km/h
1550 13-12-2009 00:00:00 1.50924 C 3.54 g/m*3 1.51 C 0 km/h
Sensor: Nr:Datum:Temp:Abs-Feuchte:Windchill:Wind:
Aussen-T/F 1551 14-12-2009 00:00:00 -0.80667 C 2.67 g/m*3 -0.81 C 0 km/h
1552 15-12-2009 00:00:00 -0.50083 C 2.88 g/m*3 -0.5 C 0 km/h
1553 16-12-2009 00:00:00 -1.19917 C 2.79 g/m*3 -1.2 C 0 km/h
1554 17-12-2009 00:00:00 -4.445 C 2.62 g/m*3 -4.45 C 0 km/h
1555 18-12-2009 00:00:00 -5.04417 C 2.34 g/m*3 -5.04 C 0 km/h
1556 19-12-2009 00:00:00 -12.79 C 1.12 g/m*3 -12.79 C 0 km/h
1557 20-12-2009 00:00:00 -8.03917 C 1.87 g/m*3 -8.04 C 0 km/h
1558 21-12-2009 00:00:00 -2.18417 C 3.25 g/m*3 -2.18 C 0 km/h
1559 22-12-2009 00:00:00 2.7175 C 5.09 g/m*3 2.72 C 0 km/h
1560 23-12-2009 00:00:00 0.49333 C 4.68 g/m*3 0.49 C 0 km/h
1561 24-12-2009 00:00:00 2.31333 C 5.15 g/m*3 2.31 C 0 km/h
1562 25-12-2009 00:00:00 4.38824 C 5.08 g/m*3 4.39 C 0 km/h
1563 26-12-2009 00:00:00 2.04583 C 4.45 g/m*3 2.05 C 0 km/h
1564 27-12-2009 00:00:00 0.5475 C 4.38 g/m*3 0.55 C 0 km/h
1565 28-12-2009 00:00:00 3.1425 C 4.49 g/m*3 3.14 C 0 km/h
1566 29-12-2009 00:00:00 0.4625 C 4.61 g/m*3 0.46 C 0 km/h
1567 30-12-2009 00:00:00 7.05667 C 7.27 g/m*3 7.06 C 0 km/h
1568 31-12-2009 00:00:00 5.32667 C 6.59 g/m*3 5.33 C 0 km/h
1569 01-01-2010 00:00:00 -0.1725 C 4.38 g/m*3 -0.17 C 0 km/h
1570 02-01-2010 00:00:00 -1.51083 C 3.34 g/m*3 -1.51 C 0 km/h
1571 03-01-2010 00:00:00 -1.79667 C 3.45 g/m*3 -1.8 C 0 km/h
1572 04-01-2010 00:00:00 -5.24083 C 2.41 g/m*3 -5.24 C 0 km/h
1573 05-01-2010 00:00:00 -8.00083 C 2.22 g/m*3 -8 C 0 km/h
1574 06-01-2010 00:00:00 -6.88917 C 2.25 g/m*3 -6.89 C 0 km/h
1575 07-01-2010 00:00:00 -3.75966 C 2.79 g/m*3 -3.76 C 0 km/h
Sensor: Nr:Datum:Temp:Abs-Feuchte:Windchill:Wind:
Aussen-T/F 1576 08-01-2010 00:00:00 -4.82167 C 2.54 g/m*3 -4.82 C 0 km/h
1577 09-01-2010 00:00:00 -2.655 C 3.05 g/m*3 -2.66 C 0 km/h
1578 10-01-2010 00:00:00 -1.87083 C 3.27 g/m*3 -1.87 C 0 km/h
1579 11-01-2010 00:00:00 -1.42833 C 3.62 g/m*3 -1.43 C 0 km/h
1580 12-01-2010 00:00:00 -1.65833 C 3.4 g/m*3 -1.66 C 0 km/h
1581 13-01-2010 00:00:00 -2.2325 C 2.99 g/m*3 -2.23 C 0 km/h
1582 14-01-2010 00:00:00 0.35417 C 3.98 g/m*3 0.35 C 0 km/h
1583 15-01-2010 00:00:00 0.87333 C 4.07 g/m*3 0.87 C 0 km/h
1584 16-01-2010 00:00:00 -0.11833 C 3.75 g/m*3 -0.12 C 0 km/h
1585 17-01-2010 00:00:00 2.09667 C 5.1 g/m*3 2.1 C 0 km/h
1586 18-01-2010 00:00:00 3.38333 C 5.07 g/m*3 3.38 C 0 km/h
1587 19-01-2010 00:00:00 2.24583 C 5.1 g/m*3 2.25 C 0 km/h
1588 20-01-2010 00:00:00 1.97417 C 4.66 g/m*3 1.97 C 0 km/h
1589 21-01-2010 00:00:00 2.45126 C 4.02 g/m*3 2.45 C 0 km/h
1590 22-01-2010 00:00:00 2.93667 C 4.24 g/m*3 2.94 C 0 km/h
1591 23-01-2010 00:00:00 -0.41333 C 3.36 g/m*3 -0.41 C 0 km/h
1592 24-01-2010 00:00:00 0.27167 C 4.06 g/m*3 0.27 C 0 km/h
1593 25-01-2010 00:00:00 0.01667 C 4.19 g/m*3 0.02 C 0 km/h
1594 26-01-2010 00:00:00 -3.325 C 2.8 g/m*3 -3.33 C 0 km/h
1595 27-01-2010 00:00:00 -5.54083 C 2.18 g/m*3 -5.54 C 0 km/h
1596 28-01-2010 00:00:00 1.20667 C 4.04 g/m*3 1.21 C 0 km/h
1597 29-01-2010 00:00:00 1.39083 C 4.5 g/m*3 1.39 C 0 km/h
1598 30-01-2010 00:00:00 -1.54583 C 3.39 g/m*3 -1.55 C 0 km/h
1599 31-01-2010 00:00:00 -1.62333 C 3.2 g/m*3 -1.62 C 0 km/h
1600 01-02-2010 00:00:00 0.20167 C 3.69 g/m*3 0.2 C 0 km/h
Sensor: Nr:Datum:Temp:Abs-Feuchte:Windchill:Wind:
Aussen-T/F 1601 02-02-2010 00:00:00 0.69916 C 4 g/m*3 0.7 C 0 km/h
1602 03-02-2010 00:00:00 2.28899 C 5.05 g/m*3 2.29 C 0 km/h
1603 04-02-2010 00:00:00 4.17018 C 5.55 g/m*3 4.17 C 0 km/h
1604 05-02-2010 00:00:00 3.29649 C 4.9 g/m*3 3.3 C 0 km/h
1605 06-02-2010 00:00:00 4.55172 C 5.47 g/m*3 4.55 C 0 km/h
1606 07-02-2010 00:00:00 4.17018 C 5.02 g/m*3 4.17 C 0 km/h
1607 08-02-2010 00:00:00 -0.75 C 2.85 g/m*3 -0.75 C 0 km/h
1608 09-02-2010 00:00:00 -3.74483 C 2.17 g/m*3 -3.74 C 0 km/h
1609 10-02-2010 00:00:00 -4.8 C 2.32 g/m*3 -4.8 C 0 km/h
1610 11-02-2010 00:00:00 -3.79828 C 2.62 g/m*3 -3.8 C 0 km/h
1611 12-02-2010 00:00:00 -2.14737 C 2.95 g/m*3 -2.15 C 0 km/h
1612 13-02-2010 00:00:00 -2.57414 C 2.82 g/m*3 -2.57 C 0 km/h
1613 14-02-2010 00:00:00 -2.13621 C 3.1 g/m*3 -2.14 C 0 km/h
1614 15-02-2010 00:00:00 -1.12632 C 3.21 g/m*3 -1.13 C 0 km/h
1615 16-02-2010 00:00:00 -1.16379 C 3.02 g/m*3 -1.16 C 0 km/h
1616 17-02-2010 00:00:00 -1.61754 C 3.18 g/m*3 -1.62 C 0 km/h
1617 18-02-2010 00:00:00 3.2569 C 4.56 g/m*3 3.26 C 0 km/h
1618 19-02-2010 00:00:00 3.59375 C 4.12 g/m*3 3.59 C 0 km/h
1619 20-02-2010 00:00:00 1.69333 C 3.53 g/m*3 1.69 C 0 km/h
1620 21-02-2010 00:00:00 2.87833 C 4.25 g/m*3 2.88 C 0 km/h
1621 22-02-2010 00:00:00 6.76417 C 5.24 g/m*3 6.76 C 0 km/h
1622 23-02-2010 00:00:00 9.7875 C 7.07 g/m*3 9.79 C 0 km/h
1623 24-02-2010 00:00:00 9.55 C 6.5 g/m*3 9.55 C 0 km/h
1624 25-02-2010 00:00:00 9.58 C 5.92 g/m*3 9.58 C 0 km/h
1625 26-02-2010 00:00:00 8.62667 C 5.33 g/m*3 8.63 C 0 km/h
Sensor: Nr:Datum:Temp:Abs-Feuchte:Windchill:Wind:
Aussen-T/F 1626 27-02-2010 00:00:00 8.4025 C 4.07 g/m*3 8.4 C 0 km/h
1627 28-02-2010 00:00:00 8.30667 C 5.5 g/m*3 8.31 C 0 km/h
1628 01-03-2010 00:00:00 5.40917 C 3.85 g/m*3 5.41 C 0 km/h
1629 02-03-2010 00:00:00 3.135 C 3.87 g/m*3 3.14 C 0 km/h
1630 03-03-2010 00:00:00 2.9925 C 3.33 g/m*3 2.99 C 0 km/h
1631 04-03-2010 00:00:00 2.47395 C 2.67 g/m*3 2.47 C 0 km/h
1632 05-03-2010 00:00:00 0.77667 C 2.41 g/m*3 0.78 C 0 km/h
1633 06-03-2010 00:00:00 -0.47083 C 3.38 g/m*3 -0.47 C 0 km/h
1634 07-03-2010 00:00:00 -1.6825 C 2.27 g/m*3 -1.68 C 0 km/h
1635 08-03-2010 00:00:00 -1.21083 C 1.92 g/m*3 -1.21 C 0 km/h
1636 09-03-2010 00:00:00 -0.87167 C 1.76 g/m*3 -0.87 C 0 km/h
1637 10-03-2010 00:00:00 1.41667 C 1.75 g/m*3 1.42 C 0 km/h
1638 11-03-2010 00:00:00 0.40167 C 2.56 g/m*3 0.4 C 0 km/h
1639 12-03-2010 00:00:00 1.61167 C 3.86 g/m*3 1.61 C 0 km/h
1640 13-03-2010 00:00:00 4.36583 C 4.23 g/m*3 4.37 C 0 km/h
1641 14-03-2010 00:00:00 5.79833 C 4.06 g/m*3 5.8 C 0 km/h
1642 15-03-2010 00:00:00 6.445 C 5.04 g/m*3 6.45 C 0 km/h
1643 16-03-2010 00:00:00 6.08067 C 5.63 g/m*3 6.08 C 0 km/h
1644 17-03-2010 00:00:00 6.69417 C 4.48 g/m*3 6.69 C 0 km/h
1645 18-03-2010 00:00:00 10.12333 C 4.54 g/m*3 10.12 C 0 km/h
1646 19-03-2010 00:00:00 15.0225 C 4.66 g/m*3 15.02 C 0 km/h
1647 20-03-2010 00:00:00 14.37667 C 8.46 g/m*3 14.38 C 0 km/h
1648 21-03-2010 00:00:00 11.23667 C 8.65 g/m*3 11.24 C 0 km/h
1649 22-03-2010 00:00:00 9.7575 C 7.03 g/m*3 9.76 C 0 km/h
1650 23-03-2010 00:00:00 8.94 C 6.12 g/m*3 8.94 C 0 km/h
Sensor: Nr:Datum:Temp:Abs-Feuchte:Windchill:Wind:
Aussen-T/F 1651 24-03-2010 00:00:00 11.9975 C 6.24 g/m*3 12 C 0 km/h
1652 25-03-2010 00:00:00 14.27083 C 6.52 g/m*3 14.27 C 0 km/h
1653 26-03-2010 00:00:00 10.0325 C 7.02 g/m*3 10.03 C 0 km/h
1654 27-03-2010 00:00:00 9.34333 C 5.7 g/m*3 9.34 C 0 km/h
1655 28-03-2010 00:00:00 9.93478 C 6.19 g/m*3 9.93 C 0 km/h
1656 29-03-2010 00:00:00 11.88167 C 8.04 g/m*3 11.88 C 0 km/h
1657 30-03-2010 00:00:00 12.70672 C 6.43 g/m*3 12.71 C 0 km/h
1658 31-03-2010 00:00:00 8.18667 C 4.45 g/m*3 8.19 C 0 km/h
1659 01-04-2010 00:00:00 5.84333 C 3.76 g/m*3 5.84 C 0 km/h
1660 02-04-2010 00:00:00 6.48583 C 4.37 g/m*3 6.49 C 0 km/h
1661 03-04-2010 00:00:00 9.73667 C 5.47 g/m*3 9.74 C 0 km/h
1662 04-04-2010 00:00:00 8.98833 C 5.25 g/m*3 8.99 C 0 km/h
1663 05-04-2010 00:00:00 9.15083 C 4.56 g/m*3 9.15 C 0 km/h
1664 06-04-2010 00:00:00 10.38167 C 4.41 g/m*3 10.38 C 0 km/h
1665 07-04-2010 00:00:00 13.61167 C 5.07 g/m*3 13.61 C 0 km/h
1666 08-04-2010 00:00:00 12.375 C 6.96 g/m*3 12.38 C 0 km/h
1667 09-04-2010 00:00:00 11.49917 C 5.91 g/m*3 11.5 C 0 km/h
1668 10-04-2010 00:00:00 11.3575 C 4.66 g/m*3 11.36 C 0 km/h
1669 11-04-2010 00:00:00 7.86667 C 4.35 g/m*3 7.87 C 0 km/h
1670 12-04-2010 00:00:00 7.44958 C 5.35 g/m*3 7.45 C 0 km/h
1671 13-04-2010 00:00:00 11.85583 C 6.16 g/m*3 11.86 C 0 km/h
1672 14-04-2010 00:00:00 11.76417 C 4.66 g/m*3 11.76 C 0 km/h
1673 15-04-2010 00:00:00 11.8575 C 5 g/m*3 11.86 C 0 km/h
1674 16-04-2010 00:00:00 9.71583 C 4.32 g/m*3 9.72 C 0 km/h
1675 17-04-2010 00:00:00 11.1225 C 4.54 g/m*3 11.12 C 0 km/h
Sensor: Nr:Datum:Temp:Abs-Feuchte:Windchill:Wind:
Aussen-T/F 1676 18-04-2010 00:00:00 13.27917 C 4.52 g/m*3 13.28 C 0 km/h
1677 19-04-2010 00:00:00 11.18333 C 5.12 g/m*3 11.18 C 0 km/h
1678 20-04-2010 00:00:00 11.13833 C 5.11 g/m*3 11.14 C 0 km/h
1679 21-04-2010 00:00:00 7.34417 C 3.84 g/m*3 7.34 C 0 km/h
1680 22-04-2010 00:00:00 8.35333 C 3.82 g/m*3 8.35 C 0 km/h
1681 23-04-2010 00:00:00 11.44917 C 4.09 g/m*3 11.45 C 0 km/h
1682 24-04-2010 00:00:00 14.91167 C 4.56 g/m*3 14.91 C 0 km/h
1683 25-04-2010 00:00:00 17.1075 C 5.25 g/m*3 17.11 C 0 km/h
1684 26-04-2010 00:00:00 15.72269 C 7.07 g/m*3 15.72 C 0 km/h
1685 27-04-2010 00:00:00 15.50417 C 6.31 g/m*3 15.5 C 0 km/h
1686 28-04-2010 00:00:00 16.8925 C 6.33 g/m*3 16.89 C 0 km/h
1687 29-04-2010 00:00:00 19.21417 C 6.68 g/m*3 19.21 C 0 km/h
1688 30-04-2010 00:00:00 18.69583 C 7.11 g/m*3 18.7 C 0 km/h
1689 01-05-2010 00:00:00 15.09917 C 6.78 g/m*3 15.1 C 0 km/h
1690 02-05-2010 00:00:00 13.48583 C 7.64 g/m*3 13.49 C 0 km/h
1691 03-05-2010 00:00:00 10.01667 C 6.94 g/m*3 10.02 C 0 km/h
1692 04-05-2010 00:00:00 9.78833 C 5.53 g/m*3 9.79 C 0 km/h
1693 05-05-2010 00:00:00 10.09083 C 3.78 g/m*3 10.09 C 0 km/h
1694 06-05-2010 00:00:00 6.68167 C 6.78 g/m*3 6.68 C 0 km/h
1695 07-05-2010 00:00:00 6.49417 C 6.66 g/m*3 6.49 C 0 km/h
1696 08-05-2010 00:00:00 11.06218 C 6.38 g/m*3 11.06 C 0 km/h
1697 09-05-2010 00:00:00 12.575 C 6.93 g/m*3 12.58 C 0 km/h
1698 10-05-2010 00:00:00 11.99917 C 6.67 g/m*3 12 C 0 km/h
1699 11-05-2010 00:00:00 11.53167 C 6.84 g/m*3 11.53 C 0 km/h
1700 12-05-2010 00:00:00 8.62333 C 6.33 g/m*3 8.62 C 0 km/h
Sensor: Nr:Datum:Temp:Abs-Feuchte:Windchill:Wind:
Aussen-T/F 1701 13-05-2010 00:00:00 8.07667 C 6.31 g/m*3 8.08 C 0 km/h
1702 14-05-2010 00:00:00 8.97333 C 7.22 g/m*3 8.97 C 0 km/h
1703 15-05-2010 00:00:00 10.6825 C 5.92 g/m*3 10.68 C 0 km/h
1704 16-05-2010 00:00:00 13.32917 C 5.32 g/m*3 13.33 C 0 km/h
1705 17-05-2010 00:00:00 10.56917 C 7.13 g/m*3 10.57 C 0 km/h
1706 18-05-2010 00:00:00 11.44333 C 6.07 g/m*3 11.44 C 0 km/h
1707 19-05-2010 00:00:00 10.30583 C 6.32 g/m*3 10.31 C 0 km/h
1708 20-05-2010 00:00:00 12.64034 C 6.31 g/m*3 12.64 C 0 km/h
1709 21-05-2010 00:00:00 16.54333 C 7.66 g/m*3 16.54 C 0 km/h
1710 22-05-2010 00:00:00 18.32583 C 7.75 g/m*3 18.33 C 0 km/h
1711 23-05-2010 00:00:00 20.32083 C 8.65 g/m*3 20.32 C 0 km/h
1712 24-05-2010 00:00:00 21.23 C 8.94 g/m*3 21.23 C 0 km/h
1713 25-05-2010 00:00:00 20.64583 C 7.99 g/m*3 20.65 C 0 km/h
1714 26-05-2010 00:00:00 15.41917 C 9.07 g/m*3 15.42 C 0 km/h
1715 27-05-2010 00:00:00 15.6175 C 8.18 g/m*3 15.62 C 0 km/h
1716 28-05-2010 00:00:00 17.3075 C 7.94 g/m*3 17.31 C 0 km/h
1717 29-05-2010 00:00:00 16.34 C 7.23 g/m*3 16.34 C 0 km/h
1718 30-05-2010 00:00:00 14.5975 C 8.93 g/m*3 14.6 C 0 km/h
1719 31-05-2010 00:00:00 11.56667 C 8.16 g/m*3 11.57 C 0 km/h
1720 01-06-2010 00:00:00 16.01833 C 8.41 g/m*3 16.02 C 0 km/h
1721 02-06-2010 00:00:00 17.66471 C 7.79 g/m*3 17.66 C 0 km/h
1722 03-06-2010 00:00:00 20.49083 C 7.88 g/m*3 20.49 C 0 km/h
1723 04-06-2010 00:00:00 21.43 C 7.91 g/m*3 21.43 C 0 km/h
1724 05-06-2010 00:00:00 22.97667 C 8.82 g/m*3 22.98 C 0 km/h
1725 06-06-2010 00:00:00 20.91333 C 11.1 g/m*3 20.91 C 0 km/h
Sensor: Nr:Datum:Temp:Abs-Feuchte:Windchill:Wind:
Aussen-T/F 1726 07-06-2010 00:00:00 19.58833 C 9.05 g/m*3 19.59 C 0 km/h
1727 08-06-2010 00:00:00 19.76833 C 9.52 g/m*3 19.77 C 0 km/h
1728 09-06-2010 00:00:00 22.5625 C 11.34 g/m*3 22.56 C 0 km/h
1729 10-06-2010 00:00:00 22.76417 C 13.55 g/m*3 22.76 C 0 km/h
1730 11-06-2010 00:00:00 22.89167 C 11.59 g/m*3 22.89 C 0 km/h
1731 12-06-2010 00:00:00 18.84917 C 10.25 g/m*3 18.85 C 0 km/h
1732 13-06-2010 00:00:00 18.25083 C 7.8 g/m*3 18.25 C 0 km/h
1733 14-06-2010 00:00:00 19.76667 C 7.8 g/m*3 19.77 C 0 km/h
1734 15-06-2010 00:00:00 18.9 C 8.06 g/m*3 18.9 C 0 km/h
1735 16-06-2010 00:00:00 18.82833 C 6.18 g/m*3 18.83 C 0 km/h
1736 17-06-2010 00:00:00 15.08583 C 9.23 g/m*3 15.09 C 0 km/h
1737 18-06-2010 00:00:00 15.2325 C 9.35 g/m*3 15.23 C 0 km/h
1738 19-06-2010 00:00:00 14.2725 C 6.27 g/m*3 14.27 C 0 km/h
1739 20-06-2010 00:00:00 13.20333 C 6.8 g/m*3 13.2 C 0 km/h
1740 21-06-2010 00:00:00 14.11083 C 6.37 g/m*3 14.11 C 0 km/h
1741 22-06-2010 00:00:00 17.38667 C 7.03 g/m*3 17.39 C 0 km/h
1742 23-06-2010 00:00:00 19.75917 C 8.12 g/m*3 19.76 C 0 km/h
1743 24-06-2010 00:00:00 22.54833 C 8.68 g/m*3 22.55 C 0 km/h
1744 25-06-2010 00:00:00 23.37 C 8.65 g/m*3 23.37 C 0 km/h
1745 26-06-2010 00:00:00 23.635 C 8.77 g/m*3 23.64 C 0 km/h
1746 27-06-2010 00:00:00 24.49417 C 9.01 g/m*3 24.49 C 0 km/h
1747 28-06-2010 00:00:00 25.25546 C 9.1 g/m*3 25.26 C 0 km/h
1748 29-06-2010 00:00:00 24.86167 C 9.83 g/m*3 24.86 C 0 km/h
1749 30-06-2010 00:00:00 24.6175 C 10.06 g/m*3 24.62 C 0 km/h
1750 01-07-2010 00:00:00 25.8425 C 9.72 g/m*3 25.84 C 0 km/h
Sensor: Nr:Datum:Temp:Abs-Feuchte:Windchill:Wind:
Aussen-T/F 1751 02-07-2010 00:00:00 26.96667 C 9.63 g/m*3 26.97 C 0 km/h
1752 03-07-2010 00:00:00 26.33 C 11.31 g/m*3 26.33 C 0 km/h
1753 04-07-2010 00:00:00 26.44833 C 12.05 g/m*3 26.45 C 0 km/h
1754 05-07-2010 00:00:00 22.02083 C 9.04 g/m*3 22.02 C 0 km/h
1755 06-07-2010 00:00:00 20.17833 C 8.34 g/m*3 20.18 C 0 km/h
1756 07-07-2010 00:00:00 22.53417 C 8.16 g/m*3 22.53 C 0 km/h
1757 08-07-2010 00:00:00 26.43417 C 8.69 g/m*3 26.43 C 0 km/h
1758 09-07-2010 00:00:00 27.51333 C 9.42 g/m*3 27.51 C 0 km/h
1759 10-07-2010 00:00:00 29.25667 C 10.76 g/m*3 29.26 C 0 km/h
1760 11-07-2010 00:00:00 28.48319 C 12.85 g/m*3 28.48 C 0 km/h
1761 12-07-2010 00:00:00 27.1175 C 11.1 g/m*3 27.12 C 0 km/h
1762 13-07-2010 00:00:00 25.36083 C 10.39 g/m*3 25.36 C 0 km/h
1763 14-07-2010 00:00:00 25.98917 C 11.73 g/m*3 25.99 C 0 km/h
1764 15-07-2010 00:00:00 22.6525 C 8.81 g/m*3 22.65 C 0 km/h
1765 16-07-2010 00:00:00 23.97667 C 8.47 g/m*3 23.98 C 0 km/h
1766 17-07-2010 00:00:00 21.99167 C 10.18 g/m*3 21.99 C 0 km/h
1767 18-07-2010 00:00:00 21.73833 C 7.35 g/m*3 21.74 C 0 km/h
1768 19-07-2010 00:00:00 23.63167 C 8.01 g/m*3 23.63 C 0 km/h
1769 20-07-2010 00:00:00 25.03833 C 8.46 g/m*3 25.04 C 0 km/h
1770 21-07-2010 00:00:00 24.73833 C 9.31 g/m*3 24.74 C 0 km/h
1771 22-07-2010 00:00:00 21.34917 C 11.61 g/m*3 21.35 C 0 km/h
1772 23-07-2010 00:00:00 20.17059 C 11.52 g/m*3 20.17 C 0 km/h
1773 24-07-2010 00:00:00 19.00667 C 9.15 g/m*3 19.01 C 0 km/h
1774 25-07-2010 00:00:00 17.26833 C 7.8 g/m*3 17.27 C 0 km/h
1775 26-07-2010 00:00:00 17.2925 C 11.46 g/m*3 17.29 C 0 km/h
Sensor: Nr:Datum:Temp:Abs-Feuchte:Windchill:Wind:
Aussen-T/F 1776 27-07-2010 00:00:00 19.815 C 10.06 g/m*3 19.82 C 0 km/h
1777 28-07-2010 00:00:00 20.5075 C 11.17 g/m*3 20.51 C 0 km/h
1778 29-07-2010 00:00:00 16.32417 C 11.42 g/m*3 16.32 C 0 km/h
1779 30-07-2010 00:00:00 19.665 C 9.34 g/m*3 19.67 C 0 km/h
1780 31-07-2010 00:00:00 20.62417 C 9.08 g/m*3 20.62 C 0 km/h
1781 01-08-2010 00:00:00 22.90833 C 11.98 g/m*3 22.91 C 0 km/h
1782 02-08-2010 00:00:00 19.60917 C 11.25 g/m*3 19.61 C 0 km/h
1783 03-08-2010 00:00:00 18.94167 C 10.12 g/m*3 18.94 C 0 km/h
1784 04-08-2010 00:00:00 19.62269 C 9.16 g/m*3 19.62 C 0 km/h
1785 05-08-2010 00:00:00 18.49417 C 10 g/m*3 18.49 C 0 km/h
1786 06-08-2010 00:00:00 19.04667 C 8.08 g/m*3 19.05 C 0 km/h
1787 07-08-2010 00:00:00 19.46583 C 7.91 g/m*3 19.47 C 0 km/h
1788 08-08-2010 00:00:00 18.485 C 11.68 g/m*3 18.49 C 0 km/h
1789 09-08-2010 00:00:00 19.515 C 10.42 g/m*3 19.52 C 0 km/h
1790 10-08-2010 00:00:00 22.13583 C 9.74 g/m*3 22.14 C 0 km/h
1791 11-08-2010 00:00:00 20.32833 C 12.64 g/m*3 20.33 C 0 km/h
1792 12-08-2010 00:00:00 19.10917 C 11.28 g/m*3 19.11 C 0 km/h
1793 13-08-2010 00:00:00 18.77833 C 9.07 g/m*3 18.78 C 0 km/h
1794 14-08-2010 00:00:00 19.9675 C 9.59 g/m*3 19.97 C 0 km/h
1795 15-08-2010 00:00:00 16.88667 C 11.8 g/m*3 16.89 C 0 km/h
1796 16-08-2010 00:00:00 17.07479 C 11.15 g/m*3 17.07 C 0 km/h
1797 17-08-2010 00:00:00 16.06667 C 10.71 g/m*3 16.07 C 0 km/h
1798 18-08-2010 00:00:00 18.40917 C 9.91 g/m*3 18.41 C 0 km/h
1799 19-08-2010 00:00:00 18.88917 C 8.2 g/m*3 18.89 C 0 km/h
1800 20-08-2010 00:00:00 20.42605 C 9.9 g/m*3 20.43 C 0 km/h
Sensor: Nr:Datum:Temp:Abs-Feuchte:Windchill:Wind:
Aussen-T/F 1801 21-08-2010 00:00:00 23.76417 C 11.32 g/m*3 23.76 C 0 km/h
1802 22-08-2010 00:00:00 23.01667 C 12.14 g/m*3 23.02 C 0 km/h
1803 23-08-2010 00:00:00 21.205 C 13.12 g/m*3 21.21 C 0 km/h
1804 24-08-2010 00:00:00 19.27083 C 7.86 g/m*3 19.27 C 0 km/h
1805 25-08-2010 00:00:00 17.61917 C 7.68 g/m*3 17.62 C 0 km/h
1806 26-08-2010 00:00:00 20.68083 C 11.52 g/m*3 20.68 C 0 km/h
1807 27-08-2010 00:00:00 18.37667 C 13.18 g/m*3 18.38 C 0 km/h
1808 28-08-2010 00:00:00 14.0675 C 8.89 g/m*3 14.07 C 0 km/h
1809 29-08-2010 00:00:00 13.03167 C 8.58 g/m*3 13.03 C 0 km/h
1810 30-08-2010 00:00:00 12.5675 C 8.53 g/m*3 12.57 C 0 km/h
1811 31-08-2010 00:00:00 15.42917 C 8.4 g/m*3 15.43 C 0 km/h
1812 01-09-2010 00:00:00 14.82437 C 8.4 g/m*3 14.82 C 0 km/h
1813 02-09-2010 00:00:00 14.95333 C 8.79 g/m*3 14.95 C 0 km/h
1814 03-09-2010 00:00:00 15.91417 C 9.06 g/m*3 15.91 C 0 km/h
1815 04-09-2010 00:00:00 16.71417 C 8.43 g/m*3 16.71 C 0 km/h
1816 05-09-2010 00:00:00 15.205 C 7.52 g/m*3 15.21 C 0 km/h
1817 06-09-2010 00:00:00 15.675 C 6.76 g/m*3 15.68 C 0 km/h
1818 07-09-2010 00:00:00 13.36083 C 8.36 g/m*3 13.36 C 0 km/h
1819 08-09-2010 00:00:00 15.545 C 10.94 g/m*3 15.55 C 0 km/h
1820 09-09-2010 00:00:00 16.20583 C 9.61 g/m*3 16.21 C 0 km/h
1821 10-09-2010 00:00:00 16.18 C 10.13 g/m*3 16.18 C 0 km/h
1822 11-09-2010 00:00:00 18.13417 C 10.44 g/m*3 18.13 C 0 km/h
1823 12-09-2010 00:00:00 16.21667 C 10.52 g/m*3 16.22 C 0 km/h

Maximal/Minimal-Werte vom 13.09.2005 - 12.09.2010

Sensor Min Max Avg
Temp
(Aussen-T/F)
-16.4 °C
20-12-2009  01:30:01
36 °C
10-07-2010  17:47:03
11.62 °C
Abs-Feuchte
(Aussen-T/F)
1.12 g/m*3
19-12-2009  00:00:00
14.34 g/m*3
28-07-2006  00:00:00
7.09 g/m*3
Windchill
(Aussen-T/F)
-12.79 C
19-12-2009  00:00:00
29.26 C
10-07-2010  00:00:00
11.58 C

Die Daten stammen von einer Davis Vantage Pro 2 Wetter-Station und werden unter Linux mit der Software wview2wettercgi und aufbereitet. Alle Angaben erfolgen ohne Gewähr für ihre Vollständigkeit oder Richtigkeit.
Kontakt: Rainer Krienke krienke@uni-koblenz.de . Meine Webseiten an der Uni Koblenz oder privat.
Version: $Revision: 0.78 $